Wetterdaten: aktuell Samstag, 02.12.2023 23:40
Datum Zeit Auentemp. Feuchte A. Luftdruck Niederschlag Wind (50 m) Richtung Richtung Sonnenschein UV Solar Taupunkt Windchill Ben (50 m) Empfang
02.12.2023 23:40 -4,7 C 86 % 1016,5 hPa 0,0 l/m 14,5 kts (4 Bft) W 275 0 min 0,0 UV-I 0 W/m -6,7 C -18,9 C 19,1 kts (5 Bft) 100,00 %
02.12.2023 23:39 -4,7 C 86 % 1016,4 hPa 0,0 l/m 15,6 kts (5 Bft) W 267 0 min 0,0 UV-I 0 W/m -6,7 C -19,6 C 20,0 kts (5 Bft) 95,83 %
02.12.2023 23:38 -4,7 C 86 % 1016,4 hPa 0,0 l/m 19,8 kts (5 Bft) W 263 0 min 0,0 UV-I 0 W/m -6,7 C -22,0 C 23,5 kts (6 Bft) 95,65 %
02.12.2023 23:37 -4,8 C 86 % 1016,4 hPa 0,0 l/m 18,5 kts (5 Bft) W-SW 252 0 min 0,0 UV-I 0 W/m -6,8 C -21,5 C 21,7 kts (6 Bft) 96,67 %
02.12.2023 23:36 -4,7 C 86 % 1016,4 hPa 0,0 l/m 16,6 kts (5 Bft) W 271 0 min 0,0 UV-I 0 W/m -6,7 C -20,3 C 23,5 kts (6 Bft) 100,00 %
02.12.2023 23:35 -4,8 C 86 % 1016,3 hPa 0,0 l/m 14,4 kts (4 Bft) W 269 0 min 0,0 UV-I 0 W/m -6,8 C -18,9 C 16,5 kts (5 Bft) 95,83 %
02.12.2023 23:34 -4,8 C 85 % 1016,3 hPa 0,0 l/m 18,1 kts (5 Bft) W 279 0 min 0,0 UV-I 0 W/m -6,9 C -21,3 C 23,5 kts (6 Bft) 96,55 %
02.12.2023 23:33 -4,8 C 85 % 1016,2 hPa 0,0 l/m 19,8 kts (5 Bft) W 280 0 min 0,0 UV-I 0 W/m -6,9 C -22,2 C 22,6 kts (6 Bft) 100,00 %
02.12.2023 23:32 -4,7 C 86 % 1016,2 hPa 0,0 l/m 18,1 kts (5 Bft) W 271 0 min 0,0 UV-I 0 W/m -6,7 C -21,2 C 20,8 kts (5 Bft) 95,45 %
02.12.2023 23:31 -4,8 C 86 % 1016,3 hPa 0,0 l/m 13,2 kts (4 Bft) W-SW 250 0 min 0,0 UV-I 0 W/m -6,8 C -18,0 C 16,5 kts (5 Bft) 100,00 %
02.12.2023 23:30 -4,8 C 86 % 1016,3 hPa 0,0 l/m 17,7 kts (5 Bft) W 271 0 min 0,0 UV-I 0 W/m -6,8 C -21,1 C 20,8 kts (5 Bft) 100,00 %
02.12.2023 23:29 -4,8 C 86 % 1016,2 hPa 0,0 l/m 16,2 kts (5 Bft) W 267 0 min 0,0 UV-I 0 W/m -6,8 C -20,2 C 19,1 kts (5 Bft) 96,55 %
02.12.2023 23:28 -4,7 C 86 % 1016,2 hPa 0,0 l/m 18,8 kts (5 Bft) W 280 0 min 0,0 UV-I 0 W/m -6,7 C -21,6 C 21,7 kts (6 Bft) 100,00 %
02.12.2023 23:27 -4,7 C 86 % 1016,2 hPa 0,0 l/m 19,4 kts (5 Bft) W-NW 289 0 min 0,0 UV-I 0 W/m -6,7 C -21,9 C 22,6 kts (6 Bft) 96,67 %
02.12.2023 23:26 -4,8 C 86 % 1016,2 hPa 0,0 l/m 14,9 kts (4 Bft) W-SW 250 0 min 0,0 UV-I 0 W/m -6,8 C -19,3 C 17,4 kts (5 Bft) 100,00 %
02.12.2023 23:25 -4,8 C 86 % 1016,1 hPa 0,0 l/m 16,5 kts (5 Bft) W 269 0 min 0,0 UV-I 0 W/m -6,8 C -20,3 C 20,8 kts (5 Bft) 95,83 %
02.12.2023 23:24 -4,8 C 86 % 1016,1 hPa 0,0 l/m 15,2 kts (4 Bft) W-NW 287 0 min 0,0 UV-I 0 W/m -6,8 C -19,5 C 17,4 kts (5 Bft) 100,00 %
02.12.2023 23:23 -4,8 C 86 % 1016,1 hPa 0,0 l/m 17,4 kts (5 Bft) W 273 0 min 0,0 UV-I 0 W/m -6,8 C -20,9 C 21,7 kts (6 Bft) 95,83 %
02.12.2023 23:22 -4,8 C 86 % 1016,1 hPa 0,0 l/m 17,4 kts (5 Bft) W-SW 250 0 min 0,0 UV-I 0 W/m -6,8 C -20,9 C 20,8 kts (5 Bft) 100,00 %
02.12.2023 23:21 -4,8 C 86 % 1016,1 hPa 0,0 l/m 20,3 kts (5 Bft) W 275 0 min 0,0 UV-I 0 W/m -6,8 C -22,5 C 23,5 kts (6 Bft) 96,15 %
02.12.2023 23:20 -4,8 C 86 % 1016,1 hPa 0,0 l/m 20,6 kts (5 Bft) W-NW 294 0 min 0,0 UV-I 0 W/m -6,8 C -22,6 C 21,7 kts (6 Bft) 100,00 %
02.12.2023 23:19 -4,8 C 86 % 1016,1 hPa 0,0 l/m 19,5 kts (5 Bft) W 269 0 min 0,0 UV-I 0 W/m -6,8 C -22,1 C 22,6 kts (6 Bft) 95,00 %
02.12.2023 23:18 -4,8 C 86 % 1016,1 hPa 0,0 l/m 19,9 kts (5 Bft) W-SW 254 0 min 0,0 UV-I 0 W/m -6,8 C -22,3 C 26,9 kts (6 Bft) 100,00 %
02.12.2023 23:17 -4,8 C 86 % 1015,9 hPa 0,0 l/m 15,7 kts (5 Bft) W 263 0 min 0,0 UV-I 0 W/m -6,8 C -19,8 C 20,8 kts (5 Bft) 92,31 %
02.12.2023 23:16 -4,8 C 86 % 1016,0 hPa 0,0 l/m 16,6 kts (5 Bft) W 272 0 min 0,0 UV-I 0 W/m -6,8 C -20,4 C 20,0 kts (5 Bft) 100,00 %
02.12.2023 23:15 -4,8 C 86 % 1015,9 hPa 0,0 l/m 18,4 kts (5 Bft) W 277 0 min 0,0 UV-I 0 W/m -6,8 C -21,4 C 21,7 kts (6 Bft) 90,91 %
02.12.2023 23:14 -4,8 C 86 % 1015,9 hPa 0,0 l/m 15,8 kts (5 Bft) W-SW 253 0 min 0,0 UV-I 0 W/m -6,8 C -19,9 C 19,1 kts (5 Bft) 100,00 %
02.12.2023 23:13 -4,8 C 86 % 1015,9 hPa 0,0 l/m 17,8 kts (5 Bft) W 279 0 min 0,0 UV-I 0 W/m -6,8 C -21,1 C 20,0 kts (5 Bft) 91,30 %
02.12.2023 23:12 -4,8 C 86 % 1015,9 hPa 0,0 l/m 17,8 kts (5 Bft) W 263 0 min 0,0 UV-I 0 W/m -6,8 C -21,1 C 20,8 kts (5 Bft) 100,00 %
02.12.2023 23:11 -4,8 C 86 % 1015,9 hPa 0,0 l/m 18,6 kts (5 Bft) W 274 0 min 0,0 UV-I 0 W/m -6,8 C -21,6 C 21,7 kts (6 Bft) 96,00 %
02.12.2023 23:10 -4,8 C 86 % 1015,9 hPa 0,0 l/m 18,8 kts (5 Bft) W 275 0 min 0,0 UV-I 0 W/m -6,8 C -21,7 C 23,5 kts (6 Bft) 100,00 %
02.12.2023 23:09 -4,8 C 86 % 1015,9 hPa 0,0 l/m 17,1 kts (5 Bft) W 260 0 min 0,0 UV-I 0 W/m -6,8 C -20,7 C 18,3 kts (5 Bft) 94,12 %
02.12.2023 23:08 -4,8 C 86 % 1015,9 hPa 0,0 l/m 17,0 kts (5 Bft) W-SW 257 0 min 0,0 UV-I 0 W/m -6,8 C -20,6 C 20,8 kts (5 Bft) 91,67 %
02.12.2023 23:07 -4,8 C 86 % 1015,8 hPa 0,0 l/m 18,1 kts (5 Bft) W-SW 251 0 min 0,0 UV-I 0 W/m -6,8 C -21,3 C 23,5 kts (6 Bft) 96,15 %
02.12.2023 23:06 -4,8 C 86 % 1015,8 hPa 0,0 l/m 20,6 kts (5 Bft) W 259 0 min 0,0 UV-I 0 W/m -6,8 C -22,6 C 26,1 kts (6 Bft) 96,30 %
02.12.2023 23:05 -4,8 C 86 % 1015,8 hPa 0,0 l/m 16,9 kts (5 Bft) W 260 0 min 0,0 UV-I 0 W/m -6,8 C -20,6 C 23,5 kts (6 Bft) 95,65 %
02.12.2023 23:04 -4,8 C 86 % 1015,8 hPa 0,0 l/m 17,9 kts (5 Bft) W-SW 254 0 min 0,0 UV-I 0 W/m -6,8 C -21,2 C 20,8 kts (5 Bft) 100,00 %
02.12.2023 23:03 -4,8 C 86 % 1015,8 hPa 0,0 l/m 16,1 kts (5 Bft) W 273 0 min 0,0 UV-I 0 W/m -6,8 C -20,1 C 20,8 kts (5 Bft) 100,00 %
02.12.2023 23:02 -4,8 C 86 % 1015,7 hPa 0,0 l/m 16,3 kts (5 Bft) W 262 0 min 0,0 UV-I 0 W/m -6,8 C -20,2 C 20,8 kts (5 Bft) 91,67 %
02.12.2023 23:01 -4,8 C 86 % 1015,7 hPa 0,0 l/m 18,3 kts (5 Bft) W-SW 252 0 min 0,0 UV-I 0 W/m -6,8 C -21,4 C 23,5 kts (6 Bft) 96,55 %
02.12.2023 23:00 -4,8 C 86 % 1015,7 hPa 0,0 l/m 15,4 kts (4 Bft) W-SW 248 0 min 0,0 UV-I 0 W/m -6,8 C -19,7 C 22,6 kts (6 Bft) 96,88 %
02.12.2023 22:59 -4,8 C 86 % 1015,7 hPa 0,0 l/m 18,5 kts (5 Bft) W 271 0 min 0,0 UV-I 0 W/m -6,8 C -21,5 C 23,5 kts (6 Bft) 96,67 %
02.12.2023 22:58 -4,8 C 86 % 1015,7 hPa 0,0 l/m 15,7 kts (5 Bft) W 259 0 min 0,0 UV-I 0 W/m -6,8 C -19,8 C 18,3 kts (5 Bft) 100,00 %
02.12.2023 22:57 -4,8 C 86 % 1015,6 hPa 0,0 l/m 15,0 kts (4 Bft) W 278 0 min 0,0 UV-I 0 W/m -6,8 C -19,3 C 19,1 kts (5 Bft) 100,00 %
02.12.2023 22:56 -4,7 C 86 % 1015,6 hPa 0,0 l/m 19,4 kts (5 Bft) W-SW 254 0 min 0,0 UV-I 0 W/m -6,7 C -21,9 C 22,6 kts (6 Bft) 97,67 %
02.12.2023 22:55 -4,7 C 86 % 1015,5 hPa 0,0 l/m 16,6 kts (5 Bft) W 267 0 min 0,0 UV-I 0 W/m -6,7 C -20,3 C 20,8 kts (5 Bft) 95,83 %
02.12.2023 22:54 -4,7 C 87 % 1015,5 hPa 0,0 l/m 21,5 kts (6 Bft) W-SW 246 0 min 0,0 UV-I 0 W/m -6,5 C -22,9 C 23,5 kts (6 Bft) 100,00 %
02.12.2023 22:53 -4,7 C 87 % 1015,5 hPa 0,0 l/m 21,0 kts (6 Bft) W 280 0 min 0,0 UV-I 0 W/m -6,5 C -22,6 C 24,4 kts (6 Bft) 96,30 %
02.12.2023 22:52 -4,7 C 86 % 1015,5 hPa 0,0 l/m 15,5 kts (4 Bft) W-NW 286 0 min 0,0 UV-I 0 W/m -6,7 C -19,6 C 20,0 kts (5 Bft) 100,00 %
02.12.2023 22:51 -4,7 C 87 % 1015,4 hPa 0,0 l/m 15,7 kts (5 Bft) W 271 0 min 0,0 UV-I 0 W/m -6,5 C -19,7 C 19,1 kts (5 Bft) 100,00 %
02.12.2023 22:50 -4,8 C 87 % 1015,5 hPa 0,0 l/m 16,5 kts (5 Bft) W-SW 254 0 min 0,0 UV-I 0 W/m -6,6 C -20,4 C 20,8 kts (5 Bft) 95,83 %
02.12.2023 22:49 -4,7 C 87 % 1015,5 hPa 0,0 l/m 14,8 kts (4 Bft) W-SW 257 0 min 0,0 UV-I 0 W/m -6,5 C -19,1 C 15,7 kts (5 Bft) 100,00 %
02.12.2023 22:48 -4,8 C 87 % 1015,4 hPa 0,0 l/m 17,0 kts (5 Bft) W 261 0 min 0,0 UV-I 0 W/m -6,6 C -20,6 C 20,0 kts (5 Bft) 91,30 %
02.12.2023 22:47 -4,7 C 87 % 1015,4 hPa 0,0 l/m 14,5 kts (4 Bft) W-SW 254 0 min 0,0 UV-I 0 W/m -6,5 C -18,8 C 18,3 kts (5 Bft) 100,00 %
02.12.2023 22:46 -4,8 C 87 % 1015,4 hPa 0,0 l/m 13,7 kts (4 Bft) W-SW 248 0 min 0,0 UV-I 0 W/m -6,6 C -18,4 C 15,7 kts (5 Bft) 97,56 %
02.12.2023 22:45 -4,7 C 86 % 1015,3 hPa 0,0 l/m 16,5 kts (5 Bft) W-SW 252 0 min 0,0 UV-I 0 W/m -6,7 C -20,2 C 18,3 kts (5 Bft) 98,82 %
02.12.2023 22:44 -4,7 C 86 % 1015,4 hPa 0,0 l/m 16,5 kts (5 Bft) W-SW 257 0 min 0,0 UV-I 0 W/m -6,7 C -20,2 C 21,7 kts (6 Bft) 97,14 %
02.12.2023 22:43 -4,7 C 86 % 1015,3 hPa 0,0 l/m 17,0 kts (5 Bft) W 260 0 min 0,0 UV-I 0 W/m -6,7 C -20,5 C 19,1 kts (5 Bft) 100,00 %
02.12.2023 22:42 -4,8 C 86 % 1015,2 hPa 0,0 l/m 18,5 kts (5 Bft) W 267 0 min 0,0 UV-I 0 W/m -6,8 C -21,5 C 20,0 kts (5 Bft) 96,55 %
02.12.2023 22:41 -4,7 C 86 % 1015,2 hPa 0,0 l/m 20,4 kts (5 Bft) W 269 0 min 0,0 UV-I 0 W/m -6,7 C -22,4 C 25,2 kts (6 Bft) 100,00 %
02.12.2023 22:40 -4,7 C 86 % 1015,1 hPa 0,0 l/m 19,3 kts (5 Bft) W 262 0 min 0,0 UV-I 0 W/m -6,7 C -21,8 C 22,6 kts (6 Bft) 96,15 %
02.12.2023 22:39 -4,7 C 86 % 1015,1 hPa 0,0 l/m 14,7 kts (4 Bft) W-SW 257 0 min 0,0 UV-I 0 W/m -6,7 C -19,0 C 19,1 kts (5 Bft) 100,00 %
02.12.2023 22:38 -4,7 C 86 % 1015,1 hPa 0,0 l/m 15,0 kts (4 Bft) W 261 0 min 0,0 UV-I 0 W/m -6,7 C -19,2 C 17,4 kts (5 Bft) 100,00 %
02.12.2023 22:37 -4,7 C 86 % 1015,1 hPa 0,0 l/m 13,1 kts (4 Bft) W 265 0 min 0,0 UV-I 0 W/m -6,7 C -17,7 C 17,4 kts (5 Bft) 96,30 %
02.12.2023 22:36 -4,7 C 86 % 1015,1 hPa 0,0 l/m 18,6 kts (5 Bft) W-SW 254 0 min 0,0 UV-I 0 W/m -6,7 C -21,4 C 23,5 kts (6 Bft) 95,65 %
02.12.2023 22:35 -4,7 C 86 % 1015,0 hPa 0,0 l/m 16,3 kts (5 Bft) W-SW 258 0 min 0,0 UV-I 0 W/m -6,7 C -20,1 C 25,2 kts (6 Bft) 100,00 %
02.12.2023 22:34 -4,7 C 87 % 1015,0 hPa 0,0 l/m 16,0 kts (5 Bft) W-SW 253 0 min 0,0 UV-I 0 W/m -6,5 C -19,9 C 20,0 kts (5 Bft) 96,15 %
02.12.2023 22:33 -4,7 C 87 % 1015,0 hPa 0,0 l/m 17,0 kts (5 Bft) W 268 0 min 0,0 UV-I 0 W/m -6,5 C -20,5 C 20,8 kts (5 Bft) 100,00 %
02.12.2023 22:32 -4,7 C 86 % 1015,0 hPa 0,0 l/m 15,2 kts (4 Bft) W-SW 254 0 min 0,0 UV-I 0 W/m -6,7 C -19,4 C 20,8 kts (5 Bft) 100,00 %
02.12.2023 22:31 -4,7 C 87 % 1015,0 hPa 0,0 l/m 15,5 kts (4 Bft) W 261 0 min 0,0 UV-I 0 W/m -6,5 C -19,6 C 20,0 kts (5 Bft) 100,00 %
02.12.2023 22:30 -4,7 C 87 % 1015,0 hPa 0,0 l/m 15,9 kts (5 Bft) W 265 0 min 0,0 UV-I 0 W/m -6,5 C -19,8 C 21,7 kts (6 Bft) 94,12 %
02.12.2023 22:29 -4,7 C 87 % 1014,9 hPa 0,0 l/m 13,8 kts (4 Bft) W 279 0 min 0,0 UV-I 0 W/m -6,5 C -18,3 C 17,4 kts (5 Bft) 96,67 %
02.12.2023 22:28 -4,7 C 87 % 1015,5 hPa 0,0 l/m 13,4 kts (4 Bft) W 267 0 min 0,0 UV-I 0 W/m -6,5 C -18,0 C 15,7 kts (5 Bft) 100,00 %
02.12.2023 22:27 -4,7 C 87 % 1015,0 hPa 0,0 l/m 11,7 kts (4 Bft) W 279 0 min 0,0 UV-I 0 W/m -6,5 C -16,6 C 14,8 kts (4 Bft) 100,00 %
02.12.2023 22:26 -4,7 C 87 % 1014,9 hPa 0,0 l/m 14,5 kts (4 Bft) W-NW 285 0 min 0,0 UV-I 0 W/m -6,5 C -18,9 C 17,4 kts (5 Bft) 100,00 %
02.12.2023 22:25 -4,7 C 86 % 1014,9 hPa 0,0 l/m 13,4 kts (4 Bft) W 261 0 min 0,0 UV-I 0 W/m -6,7 C -18,0 C 17,4 kts (5 Bft) 100,00 %
02.12.2023 22:24 -4,7 C 87 % 1014,9 hPa 0,0 l/m 12,7 kts (4 Bft) W-SW 246 0 min 0,0 UV-I 0 W/m -6,5 C -17,5 C 14,8 kts (4 Bft) 96,55 %
02.12.2023 22:23 -4,7 C 86 % 1014,9 hPa 0,0 l/m 11,0 kts (4 Bft) W 264 0 min 0,0 UV-I 0 W/m -6,7 C -15,9 C 14,8 kts (4 Bft) 100,00 %
02.12.2023 22:22 -4,7 C 86 % 1014,9 hPa 0,0 l/m 14,9 kts (4 Bft) W-NW 282 0 min 0,0 UV-I 0 W/m -6,7 C -19,1 C 16,5 kts (5 Bft) 100,00 %
02.12.2023 22:21 -4,7 C 86 % 1014,9 hPa 0,0 l/m 14,1 kts (4 Bft) W 270 0 min 0,0 UV-I 0 W/m -6,7 C -18,6 C 17,4 kts (5 Bft) 100,00 %
02.12.2023 22:20 -4,7 C 86 % 1014,9 hPa 0,0 l/m 10,4 kts (3 Bft) W 277 0 min 0,0 UV-I 0 W/m -6,7 C -15,3 C 13,9 kts (4 Bft) 100,00 %
02.12.2023 22:19 -4,7 C 86 % 1014,9 hPa 0,0 l/m 10,1 kts (3 Bft) W 267 0 min 0,0 UV-I 0 W/m -6,7 C -15,0 C 13,0 kts (4 Bft) 100,00 %
02.12.2023 22:18 -4,7 C 86 % 1014,9 hPa 0,0 l/m 10,2 kts (3 Bft) W 266 0 min 0,0 UV-I 0 W/m -6,7 C -15,1 C 12,1 kts (4 Bft) 100,00 %
02.12.2023 22:17 -4,7 C 86 % 1014,8 hPa 0,0 l/m 12,8 kts (4 Bft) W 271 0 min 0,0 UV-I 0 W/m -6,7 C -17,5 C 13,9 kts (4 Bft) 100,00 %
02.12.2023 22:16 -4,7 C 86 % 1014,7 hPa 0,0 l/m 10,7 kts (4 Bft) W 273 0 min 0,0 UV-I 0 W/m -6,7 C -15,6 C 13,9 kts (4 Bft) 100,00 %
02.12.2023 22:15 -4,7 C 86 % 1014,7 hPa 0,0 l/m 11,5 kts (4 Bft) W-NW 286 0 min 0,0 UV-I 0 W/m -6,7 C -16,4 C 14,8 kts (4 Bft) 100,00 %
02.12.2023 22:14 -4,7 C 86 % 1014,8 hPa 0,0 l/m 13,2 kts (4 Bft) W 269 0 min 0,0 UV-I 0 W/m -6,7 C -17,8 C 16,5 kts (5 Bft) 100,00 %
02.12.2023 22:13 -4,7 C 86 % 1014,7 hPa 0,0 l/m 13,5 kts (4 Bft) W 278 0 min 0,0 UV-I 0 W/m -6,7 C -18,1 C 15,7 kts (5 Bft) 91,67 %
02.12.2023 22:12 -4,7 C 86 % 1014,7 hPa 0,0 l/m 12,1 kts (4 Bft) W 261 0 min 0,0 UV-I 0 W/m -6,7 C -16,9 C 14,8 kts (4 Bft) 100,00 %
02.12.2023 22:11 -4,7 C 86 % 1014,7 hPa 0,0 l/m 12,5 kts (4 Bft) W 275 0 min 0,0 UV-I 0 W/m -6,7 C -17,3 C 15,7 kts (5 Bft) 100,00 %
02.12.2023 22:10 -4,7 C 86 % 1014,6 hPa 0,0 l/m 11,4 kts (4 Bft) W 269 0 min 0,0 UV-I 0 W/m -6,7 C -16,3 C 13,9 kts (4 Bft) 100,00 %
02.12.2023 22:09 -4,7 C 86 % 1014,5 hPa 0,0 l/m 9,3 kts (3 Bft) W-NW 292 0 min 0,0 UV-I 0 W/m -6,7 C -14,2 C 11,3 kts (4 Bft) 100,00 %
02.12.2023 22:08 -4,7 C 86 % 1014,5 hPa 0,0 l/m 11,3 kts (4 Bft) W 271 0 min 0,0 UV-I 0 W/m -6,7 C -16,2 C 12,1 kts (4 Bft) 100,00 %
02.12.2023 22:07 -4,7 C 86 % 1014,5 hPa 0,0 l/m 11,4 kts (4 Bft) W-NW 288 0 min 0,0 UV-I 0 W/m -6,7 C -16,3 C 13,0 kts (4 Bft) 100,00 %
02.12.2023 22:06 -4,7 C 86 % 1014,5 hPa 0,0 l/m 10,5 kts (3 Bft) W-NW 286 0 min 0,0 UV-I 0 W/m -6,7 C -15,4 C 12,1 kts (4 Bft) 100,00 %
02.12.2023 22:05 -4,7 C 86 % 1014,5 hPa 0,0 l/m 9,7 kts (3 Bft) W-NW 286 0 min 0,0 UV-I 0 W/m -6,7 C -14,6 C 13,0 kts (4 Bft) 100,00 %
02.12.2023 22:04 -4,7 C 86 % 1014,5 hPa 0,0 l/m 14,6 kts (4 Bft) W 264 0 min 0,0 UV-I 0 W/m -6,7 C -18,9 C 17,4 kts (5 Bft) 100,00 %
02.12.2023 22:03 -4,7 C 86 % 1014,5 hPa 0,0 l/m 14,4 kts (4 Bft) W 269 0 min 0,0 UV-I 0 W/m -6,7 C -18,7 C 16,5 kts (5 Bft) 98,82 %
02.12.2023 22:02 -4,7 C 86 % 1014,4 hPa 0,0 l/m 10,2 kts (3 Bft) W-SW 254 0 min 0,0 UV-I 0 W/m -6,7 C -15,1 C 16,5 kts (5 Bft) 100,00 %
02.12.2023 22:01 -4,7 C 86 % 1014,4 hPa 0,0 l/m 11,2 kts (4 Bft) W 266 0 min 0,0 UV-I 0 W/m -6,7 C -16,1 C 13,0 kts (4 Bft) 100,00 %
02.12.2023 22:00 -4,7 C 86 % 1014,4 hPa 0,0 l/m 11,5 kts (4 Bft) W 269 0 min 0,0 UV-I 0 W/m -6,7 C -16,4 C 15,7 kts (5 Bft) 100,00 %
02.12.2023 21:59 -4,7 C 86 % 1014,4 hPa 0,0 l/m 12,6 kts (4 Bft) W 279 0 min 0,0 UV-I 0 W/m -6,7 C -17,4 C 16,5 kts (5 Bft) 100,00 %
02.12.2023 21:58 -4,7 C 86 % 1014,4 hPa 0,0 l/m 10,7 kts (3 Bft) W-NW 283 0 min 0,0 UV-I 0 W/m -6,7 C -15,6 C 13,0 kts (4 Bft) 100,00 %
02.12.2023 21:57 -4,7 C 86 % 1014,4 hPa 0,0 l/m 8,8 kts (3 Bft) W-SW 257 0 min 0,0 UV-I 0 W/m -6,7 C -13,5 C 9,6 kts (3 Bft) 98,81 %
02.12.2023 21:56 -4,7 C 86 % 1014,4 hPa 0,0 l/m 12,9 kts (4 Bft) W 268 0 min 0,0 UV-I 0 W/m -6,7 C -17,6 C 14,8 kts (4 Bft) 100,00 %
02.12.2023 21:55 -4,7 C 86 % 1014,4 hPa 0,0 l/m 11,8 kts (4 Bft) W 277 0 min 0,0 UV-I 0 W/m -6,7 C -16,6 C 14,8 kts (4 Bft) 100,00 %
02.12.2023 21:54 -4,7 C 86 % 1014,3 hPa 0,0 l/m 13,2 kts (4 Bft) W-NW 293 0 min 0,0 UV-I 0 W/m -6,7 C -17,9 C 16,5 kts (5 Bft) 100,00 %
02.12.2023 21:53 -4,7 C 86 % 1014,3 hPa 0,0 l/m 13,0 kts (4 Bft) W-NW 291 0 min 0,0 UV-I 0 W/m -6,7 C -17,7 C 14,8 kts (4 Bft) 100,00 %
02.12.2023 21:52 -4,7 C 86 % 1014,3 hPa 0,0 l/m 11,7 kts (4 Bft) W-SW 252 0 min 0,0 UV-I 0 W/m -6,7 C -16,5 C 13,9 kts (4 Bft) 100,00 %
02.12.2023 21:51 -4,6 C 86 % 1014,3 hPa 0,0 l/m 15,7 kts (5 Bft) W-NW 286 0 min 0,0 UV-I 0 W/m -6,6 C -19,5 C 16,5 kts (5 Bft) 100,00 %
02.12.2023 21:50 -4,6 C 86 % 1014,3 hPa 0,0 l/m 11,9 kts (4 Bft) W 275 0 min 0,0 UV-I 0 W/m -6,6 C -16,6 C 16,5 kts (5 Bft) 100,00 %
02.12.2023 21:49 -4,7 C 86 % 1014,2 hPa 0,0 l/m 13,2 kts (4 Bft) W 261 0 min 0,0 UV-I 0 W/m -6,7 C -17,8 C 16,5 kts (5 Bft) 95,65 %
02.12.2023 21:48 -4,6 C 86 % 1014,3 hPa 0,0 l/m 13,0 kts (4 Bft) W-SW 252 0 min 0,0 UV-I 0 W/m -6,6 C -17,6 C 17,4 kts (5 Bft) 100,00 %
02.12.2023 21:47 -4,6 C 86 % 1014,3 hPa 0,0 l/m 11,5 kts (4 Bft) W-NW 294 0 min 0,0 UV-I 0 W/m -6,6 C -16,2 C 14,8 kts (4 Bft) 100,00 %
02.12.2023 21:46 -4,6 C 86 % 1014,3 hPa 0,0 l/m 12,4 kts (4 Bft) W-NW 298 0 min 0,0 UV-I 0 W/m -6,6 C -17,0 C 16,5 kts (5 Bft) 95,83 %
02.12.2023 21:45 -4,6 C 86 % 1014,3 hPa 0,0 l/m 14,5 kts (4 Bft) W-SW 256 0 min 0,0 UV-I 0 W/m -6,6 C -18,7 C 17,4 kts (5 Bft) 100,00 %
02.12.2023 21:44 -4,6 C 86 % 1014,2 hPa 0,0 l/m 16,0 kts (5 Bft) W 277 0 min 0,0 UV-I 0 W/m -6,6 C -19,7 C 17,4 kts (5 Bft) 100,00 %
02.12.2023 21:43 -4,6 C 87 % 1014,3 hPa 0,0 l/m 13,6 kts (4 Bft) W 279 0 min 0,0 UV-I 0 W/m -6,4 C -18,0 C 16,5 kts (5 Bft) 100,00 %
02.12.2023 21:42 -4,6 C 87 % 1014,3 hPa 0,0 l/m 14,4 kts (4 Bft) W-NW 289 0 min 0,0 UV-I 0 W/m -6,4 C -18,7 C 16,5 kts (5 Bft) 100,00 %
02.12.2023 21:41 -4,6 C 87 % 1014,2 hPa 0,0 l/m 13,0 kts (4 Bft) W 273 0 min 0,0 UV-I 0 W/m -6,4 C -17,6 C 15,7 kts (5 Bft) 100,00 %
02.12.2023 21:40 -4,6 C 87 % 1014,2 hPa 0,0 l/m 11,4 kts (4 Bft) W-NW 287 0 min 0,0 UV-I 0 W/m -6,4 C -16,2 C 13,9 kts (4 Bft) 100,00 %
02.12.2023 21:39 -4,6 C 87 % 1014,2 hPa 0,0 l/m 12,6 kts (4 Bft) W 267 0 min 0,0 UV-I 0 W/m -6,4 C -17,2 C 16,5 kts (5 Bft) 96,15 %
02.12.2023 21:38 -4,6 C 87 % 1014,2 hPa 0,0 l/m 12,1 kts (4 Bft) W-NW 283 0 min 0,0 UV-I 0 W/m -6,4 C -16,8 C 13,9 kts (4 Bft) 100,00 %
02.12.2023 21:37 -4,6 C 87 % 1014,2 hPa 0,0 l/m 12,6 kts (4 Bft) W-NW 292 0 min 0,0 UV-I 0 W/m -6,4 C -17,2 C 13,9 kts (4 Bft) 100,00 %
02.12.2023 21:36 -4,6 C 87 % 1014,1 hPa 0,0 l/m 14,4 kts (4 Bft) W-NW 283 0 min 0,0 UV-I 0 W/m -6,4 C -18,6 C 17,4 kts (5 Bft) 100,00 %
02.12.2023 21:35 -4,6 C 87 % 1014,2 hPa 0,0 l/m 12,0 kts (4 Bft) W-NW 288 0 min 0,0 UV-I 0 W/m -6,4 C -16,7 C 14,8 kts (4 Bft) 95,65 %
02.12.2023 21:34 -4,5 C 87 % 1014,1 hPa 0,0 l/m 12,7 kts (4 Bft) W-NW 284 0 min 0,0 UV-I 0 W/m -6,3 C -17,2 C 15,7 kts (5 Bft) 95,83 %
02.12.2023 21:33 -4,5 C 87 % 1014,0 hPa 0,0 l/m 12,7 kts (4 Bft) W-NW 291 0 min 0,0 UV-I 0 W/m -6,3 C -17,2 C 17,4 kts (5 Bft) 100,00 %
02.12.2023 21:32 -4,5 C 87 % 1014,1 hPa 0,0 l/m 12,9 kts (4 Bft) W 281 0 min 0,0 UV-I 0 W/m -6,3 C -17,3 C 17,4 kts (5 Bft) 100,00 %
02.12.2023 21:31 -4,5 C 87 % 1014,0 hPa 0,0 l/m 11,9 kts (4 Bft) W-NW 288 0 min 0,0 UV-I 0 W/m -6,3 C -16,5 C 14,8 kts (4 Bft) 100,00 %
02.12.2023 21:30 -4,5 C 87 % 1014,0 hPa 0,0 l/m 15,1 kts (4 Bft) NW 313 0 min 0,0 UV-I 0 W/m -6,3 C -19,0 C 16,5 kts (5 Bft) 100,00 %
02.12.2023 21:29 -4,4 C 87 % 1013,9 hPa 0,0 l/m 14,6 kts (4 Bft) W 281 0 min 0,0 UV-I 0 W/m -6,2 C -18,5 C 16,5 kts (5 Bft) 91,67 %
02.12.2023 21:28 -4,4 C 87 % 1013,9 hPa 0,0 l/m 11,5 kts (4 Bft) W-NW 296 0 min 0,0 UV-I 0 W/m -6,2 C -16,0 C 13,9 kts (4 Bft) 100,00 %
02.12.2023 21:27 -4,4 C 87 % 1014,0 hPa 0,0 l/m 13,6 kts (4 Bft) W-NW 294 0 min 0,0 UV-I 0 W/m -6,2 C -17,7 C 15,7 kts (5 Bft) 100,00 %
02.12.2023 21:26 -4,4 C 87 % 1013,9 hPa 0,0 l/m 13,2 kts (4 Bft) W-NW 285 0 min 0,0 UV-I 0 W/m -6,2 C -17,5 C 15,7 kts (5 Bft) 100,00 %
02.12.2023 21:25 -4,4 C 87 % 1013,9 hPa 0,0 l/m 15,6 kts (4 Bft) W 275 0 min 0,0 UV-I 0 W/m -6,2 C -19,2 C 17,4 kts (5 Bft) 100,00 %
02.12.2023 21:24 -4,4 C 87 % 1013,8 hPa 0,0 l/m 11,2 kts (4 Bft) W 268 0 min 0,0 UV-I 0 W/m -6,2 C -15,7 C 13,9 kts (4 Bft) 100,00 %
02.12.2023 21:23 -4,4 C 87 % 1013,8 hPa 0,0 l/m 11,1 kts (4 Bft) W 263 0 min 0,0 UV-I 0 W/m -6,2 C -15,6 C 14,8 kts (4 Bft) 100,00 %
02.12.2023 21:22 -4,4 C 87 % 1013,7 hPa 0,0 l/m 11,1 kts (4 Bft) W 270 0 min 0,0 UV-I 0 W/m -6,2 C -15,6 C 13,9 kts (4 Bft) 95,65 %
02.12.2023 21:21 -4,4 C 87 % 1013,7 hPa 0,0 l/m 13,1 kts (4 Bft) W 275 0 min 0,0 UV-I 0 W/m -6,2 C -17,4 C 15,7 kts (5 Bft) 100,00 %
02.12.2023 21:20 -4,4 C 87 % 1013,8 hPa 0,0 l/m 8,5 kts (3 Bft) W 277 0 min 0,0 UV-I 0 W/m -6,2 C -12,8 C 11,3 kts (4 Bft) 100,00 %
02.12.2023 21:19 -4,4 C 87 % 1013,7 hPa 0,0 l/m 15,2 kts (4 Bft) W 273 0 min 0,0 UV-I 0 W/m -6,2 C -18,9 C 16,5 kts (5 Bft) 100,00 %
02.12.2023 21:18 -4,4 C 87 % 1013,6 hPa 0,0 l/m 16,1 kts (5 Bft) W-NW 288 0 min 0,0 UV-I 0 W/m -6,2 C -19,6 C 19,1 kts (5 Bft) 98,79 %
02.12.2023 21:17 -4,4 C 87 % 1013,7 hPa 0,0 l/m 12,4 kts (4 Bft) W 281 0 min 0,0 UV-I 0 W/m -6,2 C -16,8 C 14,8 kts (4 Bft) 100,00 %
02.12.2023 21:16 -4,4 C 87 % 1013,6 hPa 0,0 l/m 12,5 kts (4 Bft) W-SW 253 0 min 0,0 UV-I 0 W/m -6,2 C -16,8 C 16,5 kts (5 Bft) 100,00 %
02.12.2023 21:15 -4,4 C 87 % 1013,6 hPa 0,0 l/m 12,2 kts (4 Bft) W-NW 284 0 min 0,0 UV-I 0 W/m -6,2 C -16,6 C 13,9 kts (4 Bft) 100,00 %
02.12.2023 21:14 -4,4 C 87 % 1013,6 hPa 0,0 l/m 13,9 kts (4 Bft) W 266 0 min 0,0 UV-I 0 W/m -6,2 C -18,0 C 16,5 kts (5 Bft) 100,00 %
02.12.2023 21:13 -4,4 C 87 % 1013,6 hPa 0,0 l/m 14,2 kts (4 Bft) W 260 0 min 0,0 UV-I 0 W/m -6,2 C -18,2 C 16,5 kts (5 Bft) 100,00 %
02.12.2023 21:12 -4,4 C 87 % 1013,5 hPa 0,0 l/m 15,7 kts (5 Bft) W 261 0 min 0,0 UV-I 0 W/m -6,2 C -19,2 C 18,3 kts (5 Bft) 100,00 %
02.12.2023 21:11 -4,4 C 87 % 1013,4 hPa 0,0 l/m 14,0 kts (4 Bft) W 281 0 min 0,0 UV-I 0 W/m -6,2 C -18,1 C 15,7 kts (5 Bft) 100,00 %
02.12.2023 21:10 -4,4 C 87 % 1013,5 hPa 0,0 l/m 11,3 kts (4 Bft) W 274 0 min 0,0 UV-I 0 W/m -6,2 C -15,8 C 13,0 kts (4 Bft) 100,00 %
02.12.2023 21:09 -4,4 C 87 % 1013,4 hPa 0,0 l/m 13,1 kts (4 Bft) W-NW 298 0 min 0,0 UV-I 0 W/m -6,2 C -17,4 C 15,7 kts (5 Bft) 100,00 %
02.12.2023 21:08 -4,4 C 87 % 1013,4 hPa 0,0 l/m 15,0 kts (4 Bft) W 277 0 min 0,0 UV-I 0 W/m -6,2 C -18,8 C 16,5 kts (5 Bft) 100,00 %
02.12.2023 21:07 -4,4 C 87 % 1013,3 hPa 0,0 l/m 13,6 kts (4 Bft) W-NW 290 0 min 0,0 UV-I 0 W/m -6,2 C -17,7 C 15,7 kts (5 Bft) 100,00 %
02.12.2023 21:06 -4,4 C 87 % 1013,4 hPa 0,0 l/m 14,6 kts (4 Bft) W-NW 285 0 min 0,0 UV-I 0 W/m -6,2 C -18,5 C 16,5 kts (5 Bft) 100,00 %
02.12.2023 21:05 -4,4 C 87 % 1013,4 hPa 0,0 l/m 15,1 kts (4 Bft) W 275 0 min 0,0 UV-I 0 W/m -6,2 C -18,8 C 16,5 kts (5 Bft) 100,00 %
02.12.2023 21:04 -4,4 C 87 % 1013,3 hPa 0,0 l/m 14,1 kts (4 Bft) W-NW 289 0 min 0,0 UV-I 0 W/m -6,2 C -18,2 C 15,7 kts (5 Bft) 100,00 %
02.12.2023 21:03 -4,4 C 87 % 1013,3 hPa 0,0 l/m 14,4 kts (4 Bft) W-NW 293 0 min 0,0 UV-I 0 W/m -6,2 C -18,4 C 16,5 kts (5 Bft) 98,78 %
02.12.2023 21:02 -4,3 C 87 % 1013,2 hPa 0,0 l/m 13,3 kts (4 Bft) W 279 0 min 0,0 UV-I 0 W/m -6,1 C -17,4 C 15,7 kts (5 Bft) 100,00 %
02.12.2023 21:01 -4,4 C 87 % 1013,3 hPa 0,0 l/m 14,9 kts (4 Bft) W-NW 291 0 min 0,0 UV-I 0 W/m -6,2 C -18,7 C 16,5 kts (5 Bft) 100,00 %
02.12.2023 21:00 -4,4 C 87 % 1013,3 hPa 0,0 l/m 13,8 kts (4 Bft) W-NW 282 0 min 0,0 UV-I 0 W/m -6,2 C -17,9 C 15,7 kts (5 Bft) 100,00 %
02.12.2023 20:59 -4,4 C 87 % 1013,3 hPa 0,0 l/m 16,3 kts (5 Bft) W-NW 293 0 min 0,0 UV-I 0 W/m -6,2 C -19,7 C 20,8 kts (5 Bft) 100,00 %
02.12.2023 20:58 -4,3 C 87 % 1013,3 hPa 0,0 l/m 12,5 kts (4 Bft) W-NW 286 0 min 0,0 UV-I 0 W/m -6,1 C -16,7 C 14,8 kts (4 Bft) 100,00 %
02.12.2023 20:57 -4,3 C 87 % 1013,3 hPa 0,0 l/m 13,8 kts (4 Bft) W-NW 294 0 min 0,0 UV-I 0 W/m -6,1 C -17,8 C 18,3 kts (5 Bft) 100,00 %
02.12.2023 20:56 -4,3 C 87 % 1013,2 hPa 0,0 l/m 13,9 kts (4 Bft) W 281 0 min 0,0 UV-I 0 W/m -6,1 C -17,8 C 16,5 kts (5 Bft) 100,00 %
02.12.2023 20:55 -4,3 C 87 % 1013,2 hPa 0,0 l/m 15,7 kts (5 Bft) W 280 0 min 0,0 UV-I 0 W/m -6,1 C -19,1 C 18,3 kts (5 Bft) 100,00 %
02.12.2023 20:54 -4,3 C 87 % 1013,1 hPa 0,0 l/m 15,6 kts (4 Bft) W 278 0 min 0,0 UV-I 0 W/m -6,1 C -19,0 C 18,3 kts (5 Bft) 96,30 %
02.12.2023 20:53 -4,3 C 87 % 1013,1 hPa 0,0 l/m 13,6 kts (4 Bft) W 281 0 min 0,0 UV-I 0 W/m -6,1 C -17,6 C 15,7 kts (5 Bft) 100,00 %
02.12.2023 20:52 -4,3 C 87 % 1013,2 hPa 0,0 l/m 15,0 kts (4 Bft) W-NW 288 0 min 0,0 UV-I 0 W/m -6,1 C -18,6 C 19,1 kts (5 Bft) 100,00 %
02.12.2023 20:51 -4,3 C 87 % 1013,1 hPa 0,0 l/m 14,4 kts (4 Bft) W 268 0 min 0,0 UV-I 0 W/m -6,1 C -18,2 C 16,5 kts (5 Bft) 100,00 %
02.12.2023 20:50 -4,3 C 87 % 1013,1 hPa 0,0 l/m 14,4 kts (4 Bft) W-NW 282 0 min 0,0 UV-I 0 W/m -6,1 C -18,2 C 17,4 kts (5 Bft) 100,00 %
02.12.2023 20:49 -4,3 C 87 % 1013,0 hPa 0,0 l/m 14,9 kts (4 Bft) W-NW 291 0 min 0,0 UV-I 0 W/m -6,1 C -18,6 C 16,5 kts (5 Bft) 100,00 %
02.12.2023 20:48 -4,3 C 87 % 1013,0 hPa 0,0 l/m 12,7 kts (4 Bft) W 272 0 min 0,0 UV-I 0 W/m -6,1 C -16,9 C 14,8 kts (4 Bft) 100,00 %
02.12.2023 20:47 -4,3 C 87 % 1013,0 hPa 0,0 l/m 12,5 kts (4 Bft) W 281 0 min 0,0 UV-I 0 W/m -6,1 C -16,8 C 14,8 kts (4 Bft) 98,76 %
02.12.2023 20:46 -4,3 C 87 % 1013,0 hPa 0,0 l/m 13,7 kts (4 Bft) W 273 0 min 0,0 UV-I 0 W/m -6,1 C -17,7 C 15,7 kts (5 Bft) 100,00 %
02.12.2023 20:45 -4,3 C 87 % 1013,0 hPa 0,0 l/m 14,5 kts (4 Bft) W-NW 299 0 min 0,0 UV-I 0 W/m -6,1 C -18,3 C 17,4 kts (5 Bft) 95,65 %
02.12.2023 20:44 -4,3 C 87 % 1013,0 hPa 0,0 l/m 12,6 kts (4 Bft) W 279 0 min 0,0 UV-I 0 W/m -6,1 C -16,8 C 19,1 kts (5 Bft) 100,00 %
02.12.2023 20:43 -4,3 C 87 % 1013,0 hPa 0,0 l/m 11,0 kts (4 Bft) W 266 0 min 0,0 UV-I 0 W/m -6,1 C -15,4 C 13,0 kts (4 Bft) 96,15 %
02.12.2023 20:42 -4,3 C 87 % 1013,0 hPa 0,0 l/m 15,7 kts (5 Bft) W 260 0 min 0,0 UV-I 0 W/m -6,1 C -19,1 C 17,4 kts (5 Bft) 95,65 %
02.12.2023 20:41 -4,3 C 87 % 1013,0 hPa 0,0 l/m 14,8 kts (4 Bft) W 277 0 min 0,0 UV-I 0 W/m -6,1 C -18,5 C 17,4 kts (5 Bft) 100,00 %
02.12.2023 20:40 -4,3 C 87 % 1013,0 hPa 0,0 l/m 14,5 kts (4 Bft) W-NW 282 0 min 0,0 UV-I 0 W/m -6,1 C -18,3 C 17,4 kts (5 Bft) 100,00 %
02.12.2023 20:39 -4,3 C 87 % 1012,9 hPa 0,0 l/m 15,7 kts (5 Bft) W-NW 283 0 min 0,0 UV-I 0 W/m -6,1 C -19,1 C 21,7 kts (6 Bft) 100,00 %
02.12.2023 20:38 -4,3 C 87 % 1012,9 hPa 0,0 l/m 12,0 kts (4 Bft) W-NW 292 0 min 0,0 UV-I 0 W/m -6,1 C -16,3 C 17,4 kts (5 Bft) 100,00 %
02.12.2023 20:37 -4,3 C 87 % 1012,9 hPa 0,0 l/m 11,0 kts (4 Bft) W 270 0 min 0,0 UV-I 0 W/m -6,1 C -15,4 C 14,8 kts (4 Bft) 100,00 %
02.12.2023 20:36 -4,3 C 87 % 1012,9 hPa 0,0 l/m 11,1 kts (4 Bft) W-SW 242 0 min 0,0 UV-I 0 W/m -6,1 C -15,4 C 14,8 kts (4 Bft) 100,00 %
02.12.2023 20:35 -4,3 C 87 % 1012,9 hPa 0,0 l/m 11,9 kts (4 Bft) W 276 0 min 0,0 UV-I 0 W/m -6,1 C -16,2 C 13,0 kts (4 Bft) 100,00 %
02.12.2023 20:34 -4,3 C 87 % 1012,9 hPa 0,0 l/m 12,7 kts (4 Bft) W-SW 248 0 min 0,0 UV-I 0 W/m -6,1 C -16,9 C 14,8 kts (4 Bft) 95,83 %
02.12.2023 20:33 -4,3 C 87 % 1012,9 hPa 0,0 l/m 11,8 kts (4 Bft) W 273 0 min 0,0 UV-I 0 W/m -6,1 C -16,1 C 13,9 kts (4 Bft) 100,00 %
02.12.2023 20:32 -4,3 C 88 % 1012,9 hPa 0,0 l/m 13,3 kts (4 Bft) W 271 0 min 0,0 UV-I 0 W/m -6,0 C -17,4 C 15,7 kts (5 Bft) 100,00 %
02.12.2023 20:31 -4,3 C 88 % 1012,8 hPa 0,0 l/m 12,6 kts (4 Bft) W-SW 257 0 min 0,0 UV-I 0 W/m -6,0 C -16,8 C 16,5 kts (5 Bft) 100,00 %
02.12.2023 20:30 -4,3 C 88 % 1012,9 hPa 0,0 l/m 13,6 kts (4 Bft) W-SW 252 0 min 0,0 UV-I 0 W/m -6,0 C -17,6 C 20,8 kts (5 Bft) 100,00 %
02.12.2023 20:29 -4,3 C 88 % 1012,8 hPa 0,0 l/m 18,1 kts (5 Bft) W 277 0 min 0,0 UV-I 0 W/m -6,0 C -20,6 C 22,6 kts (6 Bft) 100,00 %
02.12.2023 20:28 -4,3 C 88 % 1012,8 hPa 0,0 l/m 14,4 kts (4 Bft) W-NW 294 0 min 0,0 UV-I 0 W/m -6,0 C -18,2 C 17,4 kts (5 Bft) 100,00 %
02.12.2023 20:27 -4,3 C 88 % 1012,7 hPa 0,0 l/m 13,7 kts (4 Bft) W 279 0 min 0,0 UV-I 0 W/m -6,0 C -17,7 C 19,1 kts (5 Bft) 100,00 %
02.12.2023 20:26 -4,3 C 88 % 1012,6 hPa 0,0 l/m 15,4 kts (4 Bft) W-SW 250 0 min 0,0 UV-I 0 W/m -6,0 C -19,0 C 17,4 kts (5 Bft) 100,00 %
02.12.2023 20:25 -4,3 C 88 % 1012,5 hPa 0,0 l/m 11,8 kts (4 Bft) W 268 0 min 0,0 UV-I 0 W/m -6,0 C -16,1 C 13,9 kts (4 Bft) 100,00 %
02.12.2023 20:24 -4,3 C 88 % 1012,5 hPa 0,0 l/m 16,3 kts (5 Bft) W 266 0 min 0,0 UV-I 0 W/m -6,0 C -19,5 C 20,8 kts (5 Bft) 100,00 %
02.12.2023 20:23 -4,3 C 88 % 1012,5 hPa 0,0 l/m 12,3 kts (4 Bft) W 275 0 min 0,0 UV-I 0 W/m -6,0 C -16,5 C 14,8 kts (4 Bft) 95,83 %
02.12.2023 20:22 -4,3 C 87 % 1012,5 hPa 0,0 l/m 13,1 kts (4 Bft) W 275 0 min 0,0 UV-I 0 W/m -6,1 C -17,2 C 15,7 kts (5 Bft) 96,55 %
02.12.2023 20:21 -4,3 C 88 % 1012,5 hPa 0,0 l/m 13,1 kts (4 Bft) W 264 0 min 0,0 UV-I 0 W/m -6,0 C -17,2 C 16,5 kts (5 Bft) 100,00 %
02.12.2023 20:20 -4,3 C 88 % 1012,4 hPa 0,0 l/m 14,6 kts (4 Bft) W-NW 286 0 min 0,0 UV-I 0 W/m -6,0 C -18,4 C 17,4 kts (5 Bft) 91,30 %
02.12.2023 20:19 -4,3 C 88 % 1012,4 hPa 0,0 l/m 17,5 kts (5 Bft) W-NW 290 0 min 0,0 UV-I 0 W/m -6,0 C -20,2 C 20,8 kts (5 Bft) 100,00 %
02.12.2023 20:18 -4,3 C 88 % 1012,4 hPa 0,0 l/m 14,7 kts (4 Bft) W-NW 282 0 min 0,0 UV-I 0 W/m -6,0 C -18,5 C 17,4 kts (5 Bft) 100,00 %
02.12.2023 20:17 -4,3 C 88 % 1012,4 hPa 0,0 l/m 13,4 kts (4 Bft) NW 311 0 min 0,0 UV-I 0 W/m -6,0 C -17,5 C 17,4 kts (5 Bft) 100,00 %
02.12.2023 20:16 -4,3 C 88 % 1012,4 hPa 0,0 l/m 14,1 kts (4 Bft) W 277 0 min 0,0 UV-I 0 W/m -6,0 C -18,0 C 18,3 kts (5 Bft) 98,75 %
02.12.2023 20:15 -4,3 C 88 % 1012,4 hPa 0,0 l/m 12,9 kts (4 Bft) W-NW 284 0 min 0,0 UV-I 0 W/m -6,0 C -17,1 C 17,4 kts (5 Bft) 100,00 %
02.12.2023 20:14 -4,3 C 88 % 1012,3 hPa 0,0 l/m 13,3 kts (4 Bft) W-NW 285 0 min 0,0 UV-I 0 W/m -6,0 C -17,4 C 16,5 kts (5 Bft) 100,00 %
02.12.2023 20:13 -4,3 C 88 % 1012,2 hPa 0,0 l/m 14,8 kts (4 Bft) W-SW 240 0 min 0,0 UV-I 0 W/m -6,0 C -18,5 C 20,8 kts (5 Bft) 100,00 %
02.12.2023 20:12 -4,3 C 88 % 1012,2 hPa 0,0 l/m 15,9 kts (5 Bft) W 281 0 min 0,0 UV-I 0 W/m -6,0 C -19,3 C 21,7 kts (6 Bft) 100,00 %
02.12.2023 20:11 -4,3 C 88 % 1012,2 hPa 0,0 l/m 14,4 kts (4 Bft) W 261 0 min 0,0 UV-I 0 W/m -6,0 C -18,2 C 19,1 kts (5 Bft) 96,30 %
02.12.2023 20:10 -4,3 C 88 % 1012,1 hPa 0,0 l/m 13,0 kts (4 Bft) W-SW 245 0 min 0,0 UV-I 0 W/m -6,0 C -17,2 C 16,5 kts (5 Bft) 100,00 %
02.12.2023 20:09 -4,2 C 88 % 1012,1 hPa 0,0 l/m 14,0 kts (4 Bft) W-SW 254 0 min 0,0 UV-I 0 W/m -5,9 C -17,8 C 16,5 kts (5 Bft) 98,75 %
02.12.2023 20:08 -4,2 C 88 % 1012,1 hPa 0,0 l/m 13,1 kts (4 Bft) W 269 0 min 0,0 UV-I 0 W/m -5,9 C -17,1 C 13,9 kts (4 Bft) 96,88 %
02.12.2023 20:07 -4,2 C 88 % 1012,1 hPa 0,0 l/m 17,9 kts (5 Bft) W 262 0 min 0,0 UV-I 0 W/m -5,9 C -20,3 C 22,6 kts (6 Bft) 97,73 %
02.12.2023 20:05 -4,2 C 88 % 1012,0 hPa 0,0 l/m 18,2 kts (5 Bft) W 277 0 min 0,0 UV-I 0 W/m -5,9 C -20,5 C 22,6 kts (6 Bft) 92,31 %
02.12.2023 20:04 -4,2 C 88 % 1012,0 hPa 0,0 l/m 16,3 kts (5 Bft) W 263 0 min 0,0 UV-I 0 W/m -5,9 C -19,4 C 18,3 kts (5 Bft) 90,91 %
02.12.2023 20:03 -4,2 C 88 % 1012,0 hPa 0,0 l/m 15,3 kts (4 Bft) W 269 0 min 0,0 UV-I 0 W/m -5,9 C -18,7 C 20,8 kts (5 Bft) 100,00 %
02.12.2023 20:02 -4,2 C 88 % 1012,0 hPa 0,0 l/m 14,3 kts (4 Bft) W 259 0 min 0,0 UV-I 0 W/m -5,9 C -18,0 C 16,5 kts (5 Bft) 96,15 %
02.12.2023 20:01 -4,2 C 88 % 1011,9 hPa 0,0 l/m 16,8 kts (5 Bft) W 268 0 min 0,0 UV-I 0 W/m -5,9 C -19,7 C 21,7 kts (6 Bft) 100,00 %
02.12.2023 20:00 -4,2 C 88 % 1011,9 hPa 0,0 l/m 16,4 kts (5 Bft) W-SW 250 0 min 0,0 UV-I 0 W/m -5,9 C -19,4 C 20,0 kts (5 Bft) 96,15 %
02.12.2023 19:59 -4,2 C 88 % 1011,9 hPa 0,0 l/m 17,6 kts (5 Bft) W 275 0 min 0,0 UV-I 0 W/m -5,9 C -20,2 C 21,7 kts (6 Bft) 100,00 %
02.12.2023 19:58 -4,2 C 88 % 1012,0 hPa 0,0 l/m 15,8 kts (5 Bft) W 271 0 min 0,0 UV-I 0 W/m -5,9 C -19,1 C 19,1 kts (5 Bft) 95,65 %
02.12.2023 19:57 -4,2 C 88 % 1012,0 hPa 0,0 l/m 16,3 kts (5 Bft) W 271 0 min 0,0 UV-I 0 W/m -5,9 C -19,4 C 19,1 kts (5 Bft) 100,00 %
02.12.2023 19:56 -4,2 C 88 % 1011,9 hPa 0,0 l/m 12,9 kts (4 Bft) W-NW 294 0 min 0,0 UV-I 0 W/m -5,9 C -16,9 C 13,9 kts (4 Bft) 93,33 %
02.12.2023 19:55 -4,2 C 88 % 1011,9 hPa 0,0 l/m 16,9 kts (5 Bft) W 266 0 min 0,0 UV-I 0 W/m -5,9 C -19,7 C 20,0 kts (5 Bft) 100,00 %
02.12.2023 19:54 -4,2 C 88 % 1011,9 hPa 0,0 l/m 16,3 kts (5 Bft) W-SW 253 0 min 0,0 UV-I 0 W/m -5,9 C -19,4 C 20,8 kts (5 Bft) 96,55 %
02.12.2023 19:53 -4,2 C 88 % 1011,8 hPa 0,0 l/m 16,1 kts (5 Bft) W 267 0 min 0,0 UV-I 0 W/m -5,9 C -19,2 C 19,1 kts (5 Bft) 100,00 %
02.12.2023 19:52 -4,2 C 88 % 1011,9 hPa 0,0 l/m 15,4 kts (4 Bft) W 259 0 min 0,0 UV-I 0 W/m -5,9 C -18,8 C 23,5 kts (6 Bft) 96,88 %
02.12.2023 19:51 -4,2 C 88 % 1011,6 hPa 0,0 l/m 13,3 kts (4 Bft) W 264 0 min 0,0 UV-I 0 W/m -5,9 C -17,2 C 14,8 kts (4 Bft) 100,00 %
02.12.2023 19:50 -4,2 C 88 % 1011,6 hPa 0,0 l/m 17,3 kts (5 Bft) W 262 0 min 0,0 UV-I 0 W/m -5,9 C -20,0 C 21,7 kts (6 Bft) 95,65 %
02.12.2023 19:49 -4,2 C 88 % 1011,6 hPa 0,0 l/m 18,4 kts (5 Bft) W-NW 290 0 min 0,0 UV-I 0 W/m -5,9 C -20,6 C 22,6 kts (6 Bft) 100,00 %
02.12.2023 19:48 -4,2 C 88 % 1011,6 hPa 0,0 l/m 18,0 kts (5 Bft) W 269 0 min 0,0 UV-I 0 W/m -5,9 C -20,4 C 21,7 kts (6 Bft) 100,00 %
02.12.2023 19:47 -4,2 C 88 % 1011,5 hPa 0,0 l/m 15,3 kts (4 Bft) W-SW 257 0 min 0,0 UV-I 0 W/m -5,9 C -18,7 C 17,4 kts (5 Bft) 96,88 %
02.12.2023 19:46 -4,1 C 88 % 1011,5 hPa 0,0 l/m 17,4 kts (5 Bft) W 275 0 min 0,0 UV-I 0 W/m -5,8 C -19,9 C 21,7 kts (6 Bft) 95,83 %
02.12.2023 19:45 -4,1 C 88 % 1011,4 hPa 0,0 l/m 17,4 kts (5 Bft) W 271 0 min 0,0 UV-I 0 W/m -5,8 C -19,9 C 22,6 kts (6 Bft) 100,00 %
02.12.2023 19:44 -4,2 C 88 % 1011,4 hPa 0,0 l/m 21,5 kts (6 Bft) W 259 0 min 0,0 UV-I 0 W/m -5,9 C -22,1 C 25,2 kts (6 Bft) 100,00 %
02.12.2023 19:43 -4,1 C 88 % 1011,3 hPa 0,0 l/m 16,9 kts (5 Bft) W 265 0 min 0,0 UV-I 0 W/m -5,8 C -19,6 C 23,5 kts (6 Bft) 95,65 %
02.12.2023 19:42 -4,1 C 88 % 1011,4 hPa 0,0 l/m 14,1 kts (4 Bft) W 272 0 min 0,0 UV-I 0 W/m -5,8 C -17,8 C 18,3 kts (5 Bft) 96,97 %
02.12.2023 19:41 -4,1 C 88 % 1011,3 hPa 0,0 l/m 18,4 kts (5 Bft) W 276 0 min 0,0 UV-I 0 W/m -5,8 C -20,5 C 23,5 kts (6 Bft) 100,00 %
02.12.2023 19:40 -4,1 C 88 % 1011,3 hPa 0,0 l/m 19,1 kts (5 Bft) W 276 0 min 0,0 UV-I 0 W/m -5,8 C -20,8 C 23,5 kts (6 Bft) 96,30 %
02.12.2023 19:39 -4,1 C 88 % 1011,3 hPa 0,0 l/m 13,0 kts (4 Bft) W-SW 257 0 min 0,0 UV-I 0 W/m -5,8 C -16,9 C 17,4 kts (5 Bft) 100,00 %
02.12.2023 19:38 -4,1 C 88 % 1011,3 hPa 0,0 l/m 17,2 kts (5 Bft) W 262 0 min 0,0 UV-I 0 W/m -5,8 C -19,8 C 20,8 kts (5 Bft) 100,00 %
02.12.2023 19:37 -4,1 C 88 % 1011,3 hPa 0,0 l/m 17,3 kts (5 Bft) W 274 0 min 0,0 UV-I 0 W/m -5,8 C -19,9 C 20,8 kts (5 Bft) 95,65 %
02.12.2023 19:36 -4,1 C 88 % 1011,3 hPa 0,0 l/m 22,4 kts (6 Bft) W 259 0 min 0,0 UV-I 0 W/m -5,8 C -22,4 C 24,4 kts (6 Bft) 97,73 %
02.12.2023 19:35 -4,1 C 88 % 1011,3 hPa 0,0 l/m 19,9 kts (5 Bft) W 281 0 min 0,0 UV-I 0 W/m -5,8 C -21,2 C 22,6 kts (6 Bft) 98,79 %
02.12.2023 19:34 -4,1 C 88 % 1011,4 hPa 0,0 l/m 18,7 kts (5 Bft) W 269 0 min 0,0 UV-I 0 W/m -5,8 C -20,6 C 23,5 kts (6 Bft) 100,00 %
02.12.2023 19:33 -4,1 C 88 % 1011,3 hPa 0,0 l/m 22,5 kts (6 Bft) W 262 0 min 0,0 UV-I 0 W/m -5,8 C -22,4 C 24,4 kts (6 Bft) 96,55 %
02.12.2023 19:32 -4,1 C 88 % 1011,3 hPa 0,0 l/m 18,8 kts (5 Bft) W-SW 257 0 min 0,0 UV-I 0 W/m -5,8 C -20,7 C 23,5 kts (6 Bft) 96,43 %
02.12.2023 19:30 -4,1 C 89 % 1011,3 hPa 0,0 l/m 18,1 kts (5 Bft) W 259 0 min 0,0 UV-I 0 W/m -5,6 C -20,3 C 24,4 kts (6 Bft) 100,00 %
02.12.2023 19:29 -4,0 C 88 % 1011,3 hPa 0,0 l/m 18,4 kts (5 Bft) W-SW 242 0 min 0,0 UV-I 0 W/m -5,7 C -20,3 C 21,7 kts (6 Bft) 95,65 %
02.12.2023 19:28 -4,0 C 88 % 1011,3 hPa 0,0 l/m 20,4 kts (5 Bft) W 266 0 min 0,0 UV-I 0 W/m -5,7 C -21,3 C 24,4 kts (6 Bft) 100,00 %
02.12.2023 19:27 -4,0 C 89 % 1011,3 hPa 0,0 l/m 19,1 kts (5 Bft) W 274 0 min 0,0 UV-I 0 W/m -5,5 C -20,7 C 24,4 kts (6 Bft) 96,15 %
02.12.2023 19:26 -4,0 C 88 % 1011,3 hPa 0,0 l/m 21,3 kts (6 Bft) W 269 0 min 0,0 UV-I 0 W/m -5,7 C -21,7 C 26,1 kts (6 Bft) 100,00 %
02.12.2023 19:25 -4,0 C 88 % 1011,2 hPa 0,0 l/m 17,7 kts (5 Bft) W 259 0 min 0,0 UV-I 0 W/m -5,7 C -19,9 C 21,7 kts (6 Bft) 94,12 %
02.12.2023 19:24 -4,0 C 89 % 1011,3 hPa 0,0 l/m 19,0 kts (5 Bft) W 259 0 min 0,0 UV-I 0 W/m -5,5 C -20,6 C 20,8 kts (5 Bft) 94,29 %
02.12.2023 19:23 -4,0 C 89 % 1011,2 hPa 0,0 l/m 14,3 kts (4 Bft) W 268 0 min 0,0 UV-I 0 W/m -5,5 C -17,7 C 22,6 kts (6 Bft) 91,67 %
02.12.2023 19:22 -4,0 C 89 % 1011,1 hPa 0,0 l/m 17,7 kts (5 Bft) W 265 0 min 0,0 UV-I 0 W/m -5,5 C -19,9 C 20,8 kts (5 Bft) 100,00 %
02.12.2023 19:21 -4,0 C 89 % 1011,1 hPa 0,0 l/m 13,2 kts (4 Bft) W 273 0 min 0,0 UV-I 0 W/m -5,5 C -16,9 C 14,8 kts (4 Bft) 96,55 %
02.12.2023 19:20 -4,0 C 89 % 1011,0 hPa 0,0 l/m 15,9 kts (5 Bft) SW 236 0 min 0,0 UV-I 0 W/m -5,5 C -18,8 C 18,3 kts (5 Bft) 94,74 %
02.12.2023 19:19 -4,0 C 89 % 1011,0 hPa 0,0 l/m 15,9 kts (5 Bft) W 281 0 min 0,0 UV-I 0 W/m -5,5 C -18,8 C 22,6 kts (6 Bft) 98,83 %
02.12.2023 19:18 -4,0 C 88 % 1011,1 hPa 0,0 l/m 20,1 kts (5 Bft) W-SW 255 0 min 0,0 UV-I 0 W/m -5,7 C -21,2 C 25,2 kts (6 Bft) 100,00 %
02.12.2023 19:17 -3,9 C 89 % 1011,1 hPa 0,0 l/m 16,3 kts (5 Bft) W-SW 257 0 min 0,0 UV-I 0 W/m -5,4 C -19,0 C 20,0 kts (5 Bft) 96,88 %
02.12.2023 19:16 -3,9 C 89 % 1011,1 hPa 0,0 l/m 16,9 kts (5 Bft) W-SW 254 0 min 0,0 UV-I 0 W/m -5,4 C -19,3 C 20,0 kts (5 Bft) 100,00 %
02.12.2023 19:15 -3,9 C 89 % 1011,1 hPa 0,0 l/m 19,0 kts (5 Bft) W 271 0 min 0,0 UV-I 0 W/m -5,4 C -20,5 C 23,5 kts (6 Bft) 96,15 %
02.12.2023 19:14 -3,9 C 89 % 1011,0 hPa 0,0 l/m 16,0 kts (5 Bft) W 268 0 min 0,0 UV-I 0 W/m -5,4 C -18,8 C 20,8 kts (5 Bft) 100,00 %
02.12.2023 19:13 -3,9 C 89 % 1010,9 hPa 0,0 l/m 17,1 kts (5 Bft) W-SW 254 0 min 0,0 UV-I 0 W/m -5,4 C -19,4 C 20,8 kts (5 Bft) 95,83 %
02.12.2023 19:12 -3,9 C 88 % 1011,0 hPa 0,0 l/m 17,3 kts (5 Bft) W 281 0 min 0,0 UV-I 0 W/m -5,6 C -19,6 C 19,1 kts (5 Bft) 97,56 %
02.12.2023 19:11 -3,9 C 88 % 1010,9 hPa 0,0 l/m 20,4 kts (5 Bft) W 265 0 min 0,0 UV-I 0 W/m -5,6 C -21,2 C 23,5 kts (6 Bft) 98,84 %
02.12.2023 19:10 -3,9 C 89 % 1010,9 hPa 0,0 l/m 21,0 kts (5 Bft) W 264 0 min 0,0 UV-I 0 W/m -5,4 C -21,4 C 24,4 kts (6 Bft) 100,00 %
02.12.2023 19:09 -3,9 C 88 % 1010,8 hPa 0,0 l/m 17,0 kts (5 Bft) W 269 0 min 0,0 UV-I 0 W/m -5,6 C -19,4 C 20,0 kts (5 Bft) 97,06 %
02.12.2023 19:08 -3,9 C 89 % 1010,7 hPa 0,0 l/m 17,3 kts (5 Bft) W 273 0 min 0,0 UV-I 0 W/m -5,4 C -19,6 C 21,7 kts (6 Bft) 100,00 %
02.12.2023 19:07 -3,9 C 89 % 1010,8 hPa 0,0 l/m 20,6 kts (5 Bft) W-NW 286 0 min 0,0 UV-I 0 W/m -5,4 C -21,3 C 25,2 kts (6 Bft) 100,00 %
02.12.2023 19:06 -3,9 C 89 % 1010,7 hPa 0,0 l/m 19,2 kts (5 Bft) W-SW 255 0 min 0,0 UV-I 0 W/m -5,4 C -20,6 C 24,4 kts (6 Bft) 98,84 %
02.12.2023 19:05 -3,8 C 89 % 1010,7 hPa 0,0 l/m 19,9 kts (5 Bft) W 270 0 min 0,0 UV-I 0 W/m -5,3 C -20,8 C 24,4 kts (6 Bft) 100,00 %
02.12.2023 19:04 -3,8 C 89 % 1010,7 hPa 0,0 l/m 19,5 kts (5 Bft) W 280 0 min 0,0 UV-I 0 W/m -5,3 C -20,6 C 22,6 kts (6 Bft) 100,00 %
02.12.2023 19:03 -3,8 C 89 % 1010,6 hPa 0,0 l/m 20,1 kts (5 Bft) W 267 0 min 0,0 UV-I 0 W/m -5,3 C -20,9 C 24,4 kts (6 Bft) 100,00 %
02.12.2023 19:02 -3,8 C 89 % 1010,7 hPa 0,0 l/m 19,4 kts (5 Bft) W-SW 254 0 min 0,0 UV-I 0 W/m -5,3 C -20,5 C 24,4 kts (6 Bft) 97,73 %
02.12.2023 19:00 -3,8 C 89 % 1010,6 hPa 0,0 l/m 17,9 kts (5 Bft) W 274 0 min 0,0 UV-I 0 W/m -5,3 C -19,8 C 21,7 kts (6 Bft) 100,00 %
02.12.2023 18:59 -3,8 C 89 % 1010,6 hPa 0,0 l/m 17,9 kts (5 Bft) W 279 0 min 0,0 UV-I 0 W/m -5,3 C -19,7 C 22,6 kts (6 Bft) 98,83 %
02.12.2023 18:58 -3,8 C 89 % 1010,6 hPa 0,0 l/m 18,7 kts (5 Bft) W 263 0 min 0,0 UV-I 0 W/m -5,3 C -20,2 C 22,6 kts (6 Bft) 97,37 %
02.12.2023 18:57 -3,8 C 89 % 1010,5 hPa 0,0 l/m 13,0 kts (4 Bft) W-NW 285 0 min 0,0 UV-I 0 W/m -5,3 C -16,5 C 14,8 kts (4 Bft) 100,00 %
02.12.2023 18:56 -3,8 C 89 % 1010,5 hPa 0,0 l/m 17,2 kts (5 Bft) W-SW 256 0 min 0,0 UV-I 0 W/m -5,3 C -19,3 C 20,8 kts (5 Bft) 100,00 %
02.12.2023 18:55 -3,8 C 89 % 1010,5 hPa 0,0 l/m 18,2 kts (5 Bft) W 267 0 min 0,0 UV-I 0 W/m -5,3 C -19,9 C 25,2 kts (6 Bft) 95,83 %
02.12.2023 18:54 -3,8 C 88 % 1010,5 hPa 0,0 l/m 21,0 kts (6 Bft) W 279 0 min 0,0 UV-I 0 W/m -5,5 C -21,3 C 26,1 kts (6 Bft) 100,00 %
02.12.2023 18:53 -3,8 C 89 % 1010,4 hPa 0,0 l/m 15,4 kts (4 Bft) W 262 0 min 0,0 UV-I 0 W/m -5,3 C -18,2 C 18,3 kts (5 Bft) 100,00 %
02.12.2023 18:52 -3,8 C 89 % 1010,4 hPa 0,0 l/m 18,1 kts (5 Bft) W 280 0 min 0,0 UV-I 0 W/m -5,3 C -19,9 C 22,6 kts (6 Bft) 100,00 %
02.12.2023 18:51 -3,8 C 89 % 1010,3 hPa 0,0 l/m 19,7 kts (5 Bft) W 266 0 min 0,0 UV-I 0 W/m -5,3 C -20,7 C 23,5 kts (6 Bft) 100,00 %
02.12.2023 18:50 -3,8 C 89 % 1010,3 hPa 0,0 l/m 18,4 kts (5 Bft) W 280 0 min 0,0 UV-I 0 W/m -5,3 C -20,0 C 21,7 kts (6 Bft) 98,00 %
02.12.2023 18:49 -3,8 C 89 % 1010,3 hPa 0,0 l/m 17,5 kts (5 Bft) W 272 0 min 0,0 UV-I 0 W/m -5,3 C -19,5 C 21,7 kts (6 Bft) 98,83 %
02.12.2023 18:48 -3,8 C 89 % 1010,2 hPa 0,0 l/m 16,5 kts (5 Bft) W-SW 252 0 min 0,0 UV-I 0 W/m -5,3 C -19,0 C 20,0 kts (5 Bft) 100,00 %
02.12.2023 18:47 -3,8 C 89 % 1010,2 hPa 0,0 l/m 18,7 kts (5 Bft) W 267 0 min 0,0 UV-I 0 W/m -5,3 C -20,2 C 25,2 kts (6 Bft) 100,00 %
02.12.2023 18:46 -3,8 C 89 % 1010,2 hPa 0,0 l/m 20,5 kts (5 Bft) W 261 0 min 0,0 UV-I 0 W/m -5,3 C -21,1 C 22,6 kts (6 Bft) 93,33 %
02.12.2023 18:45 -3,8 C 89 % 1010,2 hPa 0,0 l/m 15,8 kts (5 Bft) W 279 0 min 0,0 UV-I 0 W/m -5,3 C -18,5 C 19,1 kts (5 Bft) 100,00 %
02.12.2023 18:44 -3,8 C 89 % 1010,2 hPa 0,0 l/m 18,6 kts (5 Bft) W 271 0 min 0,0 UV-I 0 W/m -5,3 C -20,1 C 22,6 kts (6 Bft) 100,00 %
02.12.2023 18:43 -3,8 C 89 % 1010,2 hPa 0,0 l/m 17,2 kts (5 Bft) W 261 0 min 0,0 UV-I 0 W/m -5,3 C -19,3 C 20,0 kts (5 Bft) 100,00 %
02.12.2023 18:42 -3,7 C 89 % 1010,2 hPa 0,0 l/m 17,8 kts (5 Bft) W 260 0 min 0,0 UV-I 0 W/m -5,2 C -19,6 C 21,7 kts (6 Bft) 100,00 %
02.12.2023 18:41 -3,7 C 89 % 1010,2 hPa 0,0 l/m 16,3 kts (5 Bft) W 267 0 min 0,0 UV-I 0 W/m -5,2 C -18,6 C 21,7 kts (6 Bft) 100,00 %
02.12.2023 18:40 -3,7 C 89 % 1010,2 hPa 0,0 l/m 17,7 kts (5 Bft) W 265 0 min 0,0 UV-I 0 W/m -5,2 C -19,5 C 23,5 kts (6 Bft) 100,00 %
02.12.2023 18:39 -3,7 C 89 % 1010,2 hPa 0,0 l/m 15,6 kts (4 Bft) W 259 0 min 0,0 UV-I 0 W/m -5,2 C -18,2 C 20,0 kts (5 Bft) 100,00 %
02.12.2023 18:38 -3,7 C 89 % 1010,2 hPa 0,0 l/m 15,2 kts (4 Bft) W 277 0 min 0,0 UV-I 0 W/m -5,2 C -17,9 C 20,0 kts (5 Bft) 100,00 %
02.12.2023 18:37 -3,7 C 89 % 1010,2 hPa 0,0 l/m 15,4 kts (4 Bft) W 272 0 min 0,0 UV-I 0 W/m -5,2 C -18,1 C 18,3 kts (5 Bft) 100,00 %
02.12.2023 18:36 -3,7 C 89 % 1010,0 hPa 0,0 l/m 17,0 kts (5 Bft) W 272 0 min 0,0 UV-I 0 W/m -5,2 C -19,1 C 20,8 kts (5 Bft) 100,00 %
02.12.2023 18:35 -3,6 C 89 % 1010,1 hPa 0,0 l/m 21,7 kts (6 Bft) W 260 0 min 0,0 UV-I 0 W/m -5,1 C -21,3 C 26,1 kts (6 Bft) 100,00 %
02.12.2023 18:34 -3,7 C 89 % 1010,1 hPa 0,0 l/m 17,2 kts (5 Bft) W 260 0 min 0,0 UV-I 0 W/m -5,2 C -19,2 C 26,9 kts (6 Bft) 100,00 %
02.12.2023 18:33 -3,6 C 89 % 1010,1 hPa 0,0 l/m 17,0 kts (5 Bft) W 271 0 min 0,0 UV-I 0 W/m -5,1 C -19,0 C 20,0 kts (5 Bft) 100,00 %
02.12.2023 18:32 -3,6 C 89 % 1010,1 hPa 0,0 l/m 17,3 kts (5 Bft) W 259 0 min 0,0 UV-I 0 W/m -5,1 C -19,1 C 20,8 kts (5 Bft) 100,00 %
02.12.2023 18:31 -3,6 C 89 % 1010,0 hPa 0,0 l/m 19,2 kts (5 Bft) W-SW 252 0 min 0,0 UV-I 0 W/m -5,1 C -20,1 C 20,8 kts (5 Bft) 92,31 %
02.12.2023 18:30 -3,6 C 89 % 1010,0 hPa 0,0 l/m 17,0 kts (5 Bft) W-SW 250 0 min 0,0 UV-I 0 W/m -5,1 C -18,9 C 20,0 kts (5 Bft) 100,00 %
02.12.2023 18:29 -3,6 C 89 % 1010,0 hPa 0,0 l/m 16,9 kts (5 Bft) W 259 0 min 0,0 UV-I 0 W/m -5,1 C -18,9 C 20,8 kts (5 Bft) 100,00 %
02.12.2023 18:28 -3,6 C 89 % 1010,0 hPa 0,0 l/m 21,9 kts (6 Bft) W-SW 248 0 min 0,0 UV-I 0 W/m -5,1 C -21,4 C 25,2 kts (6 Bft) 100,00 %
02.12.2023 18:27 -3,6 C 89 % 1010,0 hPa 0,0 l/m 18,5 kts (5 Bft) W 259 0 min 0,0 UV-I 0 W/m -5,1 C -19,8 C 24,4 kts (6 Bft) 98,82 %
02.12.2023 18:26 -3,5 C 89 % 1010,0 hPa 0,0 l/m 18,8 kts (5 Bft) W 259 0 min 0,0 UV-I 0 W/m -5,0 C -19,8 C 23,5 kts (6 Bft) 95,65 %
02.12.2023 18:25 -3,5 C 89 % 1009,9 hPa 0,0 l/m 22,6 kts (6 Bft) W-SW 255 0 min 0,0 UV-I 0 W/m -5,0 C -21,5 C 26,1 kts (6 Bft) 100,00 %
02.12.2023 18:24 -3,5 C 89 % 1009,9 hPa 0,0 l/m 19,9 kts (5 Bft) W-SW 253 0 min 0,0 UV-I 0 W/m -5,0 C -20,3 C 24,4 kts (6 Bft) 100,00 %
02.12.2023 18:23 -3,5 C 89 % 1009,8 hPa 0,0 l/m 19,1 kts (5 Bft) W 265 0 min 0,0 UV-I 0 W/m -5,0 C -19,9 C 22,6 kts (6 Bft) 100,00 %
02.12.2023 18:22 -3,4 C 89 % 1009,8 hPa 0,0 l/m 21,2 kts (6 Bft) W-SW 256 0 min 0,0 UV-I 0 W/m -4,9 C -20,8 C 26,1 kts (6 Bft) 97,30 %
02.12.2023 18:21 -3,4 C 89 % 1009,8 hPa 0,0 l/m 17,8 kts (5 Bft) W 264 0 min 0,0 UV-I 0 W/m -4,9 C -19,1 C 22,6 kts (6 Bft) 100,00 %
02.12.2023 18:20 -3,4 C 89 % 1009,8 hPa 0,0 l/m 17,2 kts (5 Bft) W-SW 254 0 min 0,0 UV-I 0 W/m -4,9 C -18,8 C 21,7 kts (6 Bft) 100,00 %
02.12.2023 18:19 -3,4 C 89 % 1009,7 hPa 0,0 l/m 14,8 kts (4 Bft) W 259 0 min 0,0 UV-I 0 W/m -4,9 C -17,3 C 15,7 kts (5 Bft) 100,00 %
02.12.2023 18:18 -3,4 C 89 % 1009,7 hPa 0,0 l/m 14,4 kts (4 Bft) W-SW 255 0 min 0,0 UV-I 0 W/m -4,9 C -17,0 C 16,5 kts (5 Bft) 100,00 %
02.12.2023 18:17 -3,5 C 89 % 1009,7 hPa 0,0 l/m 17,2 kts (5 Bft) W 279 0 min 0,0 UV-I 0 W/m -5,0 C -18,9 C 19,1 kts (5 Bft) 95,65 %
02.12.2023 18:16 -3,4 C 89 % 1009,7 hPa 0,0 l/m 17,0 kts (5 Bft) W-SW 249 0 min 0,0 UV-I 0 W/m -4,9 C -18,7 C 19,1 kts (5 Bft) 100,00 %
02.12.2023 18:15 -3,4 C 89 % 1009,7 hPa 0,0 l/m 15,1 kts (4 Bft) W 259 0 min 0,0 UV-I 0 W/m -4,9 C -17,5 C 18,3 kts (5 Bft) 98,82 %
02.12.2023 18:14 -3,4 C 89 % 1009,6 hPa 0,0 l/m 14,6 kts (4 Bft) W-SW 254 0 min 0,0 UV-I 0 W/m -4,9 C -17,1 C 18,3 kts (5 Bft) 100,00 %
02.12.2023 18:13 -3,4 C 89 % 1009,6 hPa 0,0 l/m 14,8 kts (4 Bft) W 265 0 min 0,0 UV-I 0 W/m -4,9 C -17,3 C 17,4 kts (5 Bft) 100,00 %
02.12.2023 18:12 -3,4 C 89 % 1009,6 hPa 0,0 l/m 10,9 kts (4 Bft) SW 226 0 min 0,0 UV-I 0 W/m -4,9 C -14,1 C 11,3 kts (4 Bft) 98,81 %
02.12.2023 18:11 -3,4 C 89 % 1009,5 hPa 0,0 l/m 13,9 kts (4 Bft) W-SW 253 0 min 0,0 UV-I 0 W/m -4,9 C -16,6 C 16,5 kts (5 Bft) 100,00 %
02.12.2023 18:10 -3,4 C 89 % 1009,5 hPa 0,0 l/m 15,6 kts (5 Bft) W 259 0 min 0,0 UV-I 0 W/m -4,9 C -17,8 C 19,1 kts (5 Bft) 100,00 %
02.12.2023 18:09 -3,4 C 89 % 1009,5 hPa 0,0 l/m 16,7 kts (5 Bft) W-SW 257 0 min 0,0 UV-I 0 W/m -4,9 C -18,5 C 17,4 kts (5 Bft) 100,00 %
02.12.2023 18:08 -3,4 C 89 % 1009,5 hPa 0,0 l/m 13,0 kts (4 Bft) W 266 0 min 0,0 UV-I 0 W/m -4,9 C -15,9 C 14,8 kts (4 Bft) 91,67 %
02.12.2023 18:07 -3,4 C 89 % 1009,5 hPa 0,0 l/m 14,1 kts (4 Bft) W 266 0 min 0,0 UV-I 0 W/m -4,9 C -16,8 C 15,7 kts (5 Bft) 100,00 %
02.12.2023 18:06 -3,4 C 89 % 1009,5 hPa 0,0 l/m 14,0 kts (4 Bft) W 263 0 min 0,0 UV-I 0 W/m -4,9 C -16,7 C 16,5 kts (5 Bft) 100,00 %
02.12.2023 18:05 -3,4 C 89 % 1009,5 hPa 0,0 l/m 13,2 kts (4 Bft) W 264 0 min 0,0 UV-I 0 W/m -4,9 C -16,1 C 14,8 kts (4 Bft) 100,00 %
02.12.2023 18:04 -3,4 C 89 % 1009,4 hPa 0,0 l/m 14,8 kts (4 Bft) W 261 0 min 0,0 UV-I 0 W/m -4,9 C -17,3 C 15,7 kts (5 Bft) 100,00 %
02.12.2023 18:03 -3,4 C 89 % 1009,4 hPa 0,0 l/m 15,7 kts (5 Bft) W 265 0 min 0,0 UV-I 0 W/m -4,9 C -17,9 C 17,4 kts (5 Bft) 98,80 %
02.12.2023 18:02 -3,4 C 89 % 1009,4 hPa 0,0 l/m 15,4 kts (4 Bft) W 269 0 min 0,0 UV-I 0 W/m -4,9 C -17,7 C 16,5 kts (5 Bft) 100,00 %
02.12.2023 18:01 -3,4 C 89 % 1009,3 hPa 0,0 l/m 16,1 kts (5 Bft) W 269 0 min 0,0 UV-I 0 W/m -4,9 C -18,1 C 18,3 kts (5 Bft) 100,00 %
02.12.2023 18:00 -3,4 C 89 % 1009,3 hPa 0,0 l/m 17,4 kts (5 Bft) W 273 0 min 0,0 UV-I 0 W/m -4,9 C -18,9 C 22,6 kts (6 Bft) 100,00 %
02.12.2023 17:59 -3,4 C 89 % 1009,3 hPa 0,0 l/m 14,3 kts (4 Bft) W-SW 252 0 min 0,0 UV-I 0 W/m -4,9 C -16,9 C 16,5 kts (5 Bft) 100,00 %
02.12.2023 17:58 -3,4 C 89 % 1009,3 hPa 0,0 l/m 12,7 kts (4 Bft) W 266 0 min 0,0 UV-I 0 W/m -4,9 C -15,7 C 17,4 kts (5 Bft) 100,00 %
02.12.2023 17:57 -3,4 C 89 % 1009,2 hPa 0,0 l/m 16,6 kts (5 Bft) W 273 0 min 0,0 UV-I 0 W/m -4,9 C -18,4 C 18,3 kts (5 Bft) 100,00 %
02.12.2023 17:56 -3,4 C 89 % 1009,2 hPa 0,0 l/m 15,3 kts (4 Bft) W 265 0 min 0,0 UV-I 0 W/m -4,9 C -17,6 C 18,3 kts (5 Bft) 100,00 %
02.12.2023 17:55 -3,4 C 89 % 1009,2 hPa 0,0 l/m 13,9 kts (4 Bft) W-SW 256 0 min 0,0 UV-I 0 W/m -4,9 C -16,6 C 16,5 kts (5 Bft) 100,00 %
02.12.2023 17:54 -3,4 C 89 % 1009,2 hPa 0,0 l/m 16,1 kts (5 Bft) W-SW 246 0 min 0,0 UV-I 0 W/m -4,9 C -18,1 C 20,0 kts (5 Bft) 95,83 %
02.12.2023 17:53 -3,4 C 89 % 1009,2 hPa 0,0 l/m 16,4 kts (5 Bft) W 259 0 min 0,0 UV-I 0 W/m -4,9 C -18,3 C 18,3 kts (5 Bft) 100,00 %
02.12.2023 17:52 -3,4 C 89 % 1009,1 hPa 0,0 l/m 14,8 kts (4 Bft) W-SW 253 0 min 0,0 UV-I 0 W/m -4,9 C -17,3 C 20,8 kts (5 Bft) 100,00 %
02.12.2023 17:51 -3,4 C 89 % 1009,1 hPa 0,0 l/m 13,6 kts (4 Bft) W 275 0 min 0,0 UV-I 0 W/m -4,9 C -16,4 C 15,7 kts (5 Bft) 100,00 %
02.12.2023 17:50 -3,4 C 89 % 1009,1 hPa 0,0 l/m 15,7 kts (5 Bft) W 273 0 min 0,0 UV-I 0 W/m -4,9 C -17,8 C 18,3 kts (5 Bft) 100,00 %
02.12.2023 17:49 -3,4 C 89 % 1009,1 hPa 0,0 l/m 13,8 kts (4 Bft) W-SW 258 0 min 0,0 UV-I 0 W/m -4,9 C -16,5 C 18,3 kts (5 Bft) 100,00 %
02.12.2023 17:48 -3,4 C 89 % 1009,1 hPa 0,0 l/m 14,6 kts (4 Bft) W-SW 249 0 min 0,0 UV-I 0 W/m -4,9 C -17,2 C 16,5 kts (5 Bft) 100,00 %
02.12.2023 17:47 -3,4 C 89 % 1009,1 hPa 0,0 l/m 10,9 kts (4 Bft) W 263 0 min 0,0 UV-I 0 W/m -4,9 C -14,1 C 15,7 kts (5 Bft) 100,00 %
02.12.2023 17:46 -3,4 C 89 % 1009,1 hPa 0,0 l/m 11,4 kts (4 Bft) W 264 0 min 0,0 UV-I 0 W/m -4,9 C -14,6 C 13,9 kts (4 Bft) 100,00 %
02.12.2023 17:45 -3,4 C 89 % 1009,0 hPa 0,0 l/m 12,9 kts (4 Bft) W 271 0 min 0,0 UV-I 0 W/m -4,9 C -15,9 C 13,9 kts (4 Bft) 100,00 %
02.12.2023 17:44 -3,4 C 89 % 1009,0 hPa 0,0 l/m 13,1 kts (4 Bft) W-SW 248 0 min 0,0 UV-I 0 W/m -4,9 C -16,0 C 15,7 kts (5 Bft) 100,00 %
02.12.2023 17:43 -3,4 C 89 % 1009,0 hPa 0,0 l/m 15,3 kts (4 Bft) W 268 0 min 0,0 UV-I 0 W/m -4,9 C -17,6 C 19,1 kts (5 Bft) 100,00 %
02.12.2023 17:42 -3,4 C 89 % 1009,0 hPa 0,0 l/m 12,4 kts (4 Bft) W 268 0 min 0,0 UV-I 0 W/m -4,9 C -15,5 C 14,8 kts (4 Bft) 100,00 %
02.12.2023 17:41 -3,4 C 89 % 1009,0 hPa 0,0 l/m 14,6 kts (4 Bft) W 261 0 min 0,0 UV-I 0 W/m -4,9 C -17,1 C 17,4 kts (5 Bft) 100,00 %
02.12.2023 17:40 -3,4 C 89 % 1008,9 hPa 0,0 l/m 13,0 kts (4 Bft) W-SW 248 0 min 0,0 UV-I 0 W/m -4,9 C -15,9 C 15,7 kts (5 Bft) 95,65 %
02.12.2023 17:39 -3,4 C 89 % 1008,9 hPa 0,0 l/m 13,2 kts (4 Bft) W-SW 252 0 min 0,0 UV-I 0 W/m -4,9 C -16,1 C 15,7 kts (5 Bft) 100,00 %
02.12.2023 17:38 -3,4 C 89 % 1008,9 hPa 0,0 l/m 13,6 kts (4 Bft) W-NW 283 0 min 0,0 UV-I 0 W/m -4,9 C -16,4 C 16,5 kts (5 Bft) 90,91 %
02.12.2023 17:37 -3,4 C 89 % 1008,9 hPa 0,0 l/m 14,6 kts (4 Bft) W 264 0 min 0,0 UV-I 0 W/m -4,9 C -17,2 C 16,5 kts (5 Bft) 100,00 %
02.12.2023 17:36 -3,4 C 89 % 1008,9 hPa 0,0 l/m 11,2 kts (4 Bft) W-SW 252 0 min 0,0 UV-I 0 W/m -4,9 C -14,4 C 14,8 kts (4 Bft) 100,00 %
02.12.2023 17:35 -3,4 C 89 % 1008,9 hPa 0,0 l/m 10,4 kts (3 Bft) W 268 0 min 0,0 UV-I 0 W/m -4,9 C -13,7 C 12,1 kts (4 Bft) 98,78 %
02.12.2023 17:34 -3,4 C 89 % 1008,7 hPa 0,0 l/m 10,5 kts (3 Bft) W 268 0 min 0,0 UV-I 0 W/m -4,9 C -13,8 C 13,0 kts (4 Bft) 100,00 %
02.12.2023 17:33 -3,4 C 89 % 1008,7 hPa 0,0 l/m 10,0 kts (3 Bft) W-SW 251 0 min 0,0 UV-I 0 W/m -4,9 C -13,2 C 11,3 kts (4 Bft) 100,00 %
02.12.2023 17:32 -3,4 C 89 % 1008,6 hPa 0,0 l/m 9,0 kts (3 Bft) W 273 0 min 0,0 UV-I 0 W/m -4,9 C -12,1 C 10,4 kts (3 Bft) 98,77 %
02.12.2023 17:31 -3,4 C 89 % 1008,6 hPa 0,0 l/m 10,2 kts (3 Bft) W 279 0 min 0,0 UV-I 0 W/m -4,9 C -13,4 C 11,3 kts (4 Bft) 100,00 %
02.12.2023 17:30 -3,4 C 89 % 1008,5 hPa 0,0 l/m 11,5 kts (4 Bft) W 278 0 min 0,0 UV-I 0 W/m -4,9 C -14,7 C 14,8 kts (4 Bft) 97,62 %
02.12.2023 17:29 -3,4 C 89 % 1008,5 hPa 0,0 l/m 7,8 kts (3 Bft) W 278 0 min 0,0 UV-I 0 W/m -4,9 C -10,8 C 9,6 kts (3 Bft) 98,77 %
02.12.2023 17:28 -3,4 C 89 % 1008,5 hPa 0,0 l/m 12,4 kts (4 Bft) W 259 0 min 0,0 UV-I 0 W/m -4,9 C -15,5 C 16,5 kts (5 Bft) 100,00 %
02.12.2023 17:27 -3,4 C 89 % 1008,6 hPa 0,0 l/m 14,1 kts (4 Bft) W 266 0 min 0,0 UV-I 0 W/m -4,9 C -16,8 C 17,4 kts (5 Bft) 100,00 %
02.12.2023 17:26 -3,4 C 89 % 1008,5 hPa 0,0 l/m 12,2 kts (4 Bft) W 267 0 min 0,0 UV-I 0 W/m -4,9 C -15,3 C 14,8 kts (4 Bft) 100,00 %
02.12.2023 17:25 -3,4 C 89 % 1008,5 hPa 0,0 l/m 12,4 kts (4 Bft) W 270 0 min 0,0 UV-I 0 W/m -4,9 C -15,5 C 13,0 kts (4 Bft) 100,00 %
02.12.2023 17:24 -3,4 C 89 % 1008,5 hPa 0,0 l/m 10,8 kts (4 Bft) W 277 0 min 0,0 UV-I 0 W/m -4,9 C -14,0 C 13,9 kts (4 Bft) 100,00 %
02.12.2023 17:23 -3,4 C 89 % 1008,5 hPa 0,0 l/m 10,2 kts (3 Bft) W-NW 288 0 min 0,0 UV-I 0 W/m -4,9 C -13,4 C 13,0 kts (4 Bft) 100,00 %
02.12.2023 17:22 -3,4 C 89 % 1008,5 hPa 0,0 l/m 13,4 kts (4 Bft) W 262 0 min 0,0 UV-I 0 W/m -4,9 C -16,3 C 15,7 kts (5 Bft) 100,00 %
02.12.2023 17:21 -3,4 C 89 % 1008,5 hPa 0,0 l/m 12,1 kts (4 Bft) W-SW 254 0 min 0,0 UV-I 0 W/m -4,9 C -15,2 C 15,7 kts (5 Bft) 100,00 %
02.12.2023 17:20 -3,5 C 89 % 1008,5 hPa 0,0 l/m 12,9 kts (4 Bft) W-NW 292 0 min 0,0 UV-I 0 W/m -5,0 C -16,0 C 14,8 kts (4 Bft) 100,00 %
02.12.2023 17:19 -3,4 C 89 % 1008,4 hPa 0,0 l/m 13,5 kts (4 Bft) W 269 0 min 0,0 UV-I 0 W/m -4,9 C -16,3 C 16,5 kts (5 Bft) 100,00 %
02.12.2023 17:18 -3,4 C 89 % 1008,5 hPa 0,0 l/m 11,8 kts (4 Bft) W-SW 253 0 min 0,0 UV-I 0 W/m -4,9 C -14,9 C 13,9 kts (4 Bft) 98,75 %
02.12.2023 17:17 -3,4 C 89 % 1008,4 hPa 0,0 l/m 11,6 kts (4 Bft) W 261 0 min 0,0 UV-I 0 W/m -4,9 C -14,8 C 13,9 kts (4 Bft) 100,00 %
02.12.2023 17:16 -3,4 C 89 % 1008,5 hPa 0,0 l/m 11,5 kts (4 Bft) W-SW 252 0 min 0,0 UV-I 0 W/m -4,9 C -14,7 C 14,8 kts (4 Bft) 100,00 %
02.12.2023 17:15 -3,4 C 89 % 1008,4 hPa 0,0 l/m 9,2 kts (3 Bft) W 271 0 min 0,0 UV-I 0 W/m -4,9 C -12,4 C 12,1 kts (4 Bft) 96,55 %
02.12.2023 17:14 -3,4 C 89 % 1008,4 hPa 0,0 l/m 11,0 kts (4 Bft) W 263 0 min 0,0 UV-I 0 W/m -4,9 C -14,2 C 12,1 kts (4 Bft) 100,00 %
02.12.2023 17:13 -3,4 C 89 % 1008,2 hPa 0,0 l/m 13,6 kts (4 Bft) W-SW 250 0 min 0,0 UV-I 0 W/m -4,9 C -16,4 C 15,7 kts (5 Bft) 100,00 %
02.12.2023 17:12 -3,5 C 89 % 1008,2 hPa 0,0 l/m 9,7 kts (3 Bft) W 271 0 min 0,0 UV-I 0 W/m -5,0 C -13,0 C 10,4 kts (3 Bft) 100,00 %
02.12.2023 17:11 -3,4 C 89 % 1008,2 hPa 0,0 l/m 11,9 kts (4 Bft) W-SW 258 0 min 0,0 UV-I 0 W/m -4,9 C -15,1 C 14,8 kts (4 Bft) 100,00 %
02.12.2023 17:10 -3,4 C 89 % 1008,2 hPa 0,0 l/m 12,0 kts (4 Bft) W 260 0 min 0,0 UV-I 0 W/m -4,9 C -15,1 C 13,9 kts (4 Bft) 100,00 %
02.12.2023 17:09 -3,4 C 89 % 1008,2 hPa 0,0 l/m 12,5 kts (4 Bft) W 280 0 min 0,0 UV-I 0 W/m -4,9 C -15,5 C 14,8 kts (4 Bft) 100,00 %
02.12.2023 17:08 -3,5 C 89 % 1008,2 hPa 0,0 l/m 11,7 kts (4 Bft) W 267 0 min 0,0 UV-I 0 W/m -5,0 C -15,0 C 15,7 kts (5 Bft) 100,00 %
02.12.2023 17:07 -3,4 C 89 % 1008,2 hPa 0,0 l/m 9,8 kts (3 Bft) W 280 0 min 0,0 UV-I 0 W/m -4,9 C -13,1 C 11,3 kts (4 Bft) 95,65 %
02.12.2023 17:06 -3,4 C 89 % 1008,2 hPa 0,0 l/m 11,4 kts (4 Bft) W 271 0 min 0,0 UV-I 0 W/m -4,9 C -14,6 C 13,9 kts (4 Bft) 100,00 %
02.12.2023 17:05 -3,4 C 89 % 1008,2 hPa 0,0 l/m 13,3 kts (4 Bft) W 271 0 min 0,0 UV-I 0 W/m -4,9 C -16,2 C 16,5 kts (5 Bft) 100,00 %
02.12.2023 17:04 -3,4 C 89 % 1008,2 hPa 0,0 l/m 12,3 kts (4 Bft) W 268 0 min 0,0 UV-I 0 W/m -4,9 C -15,3 C 14,8 kts (4 Bft) 100,00 %
02.12.2023 17:03 -3,5 C 89 % 1008,1 hPa 0,0 l/m 14,3 kts (4 Bft) W 279 0 min 0,0 UV-I 0 W/m -5,0 C -17,0 C 17,4 kts (5 Bft) 100,00 %
02.12.2023 17:02 -3,4 C 89 % 1008,1 hPa 0,0 l/m 10,1 kts (3 Bft) W 266 0 min 0,0 UV-I 0 W/m -4,9 C -13,3 C 13,0 kts (4 Bft) 100,00 %
02.12.2023 17:01 -3,4 C 89 % 1008,1 hPa 0,0 l/m 13,0 kts (4 Bft) W 267 0 min 0,0 UV-I 0 W/m -4,9 C -15,9 C 15,7 kts (5 Bft) 100,00 %
02.12.2023 17:00 -3,4 C 89 % 1008,1 hPa 0,0 l/m 13,3 kts (4 Bft) W-NW 287 0 min 0,0 UV-I 0 W/m -4,9 C -16,2 C 14,8 kts (4 Bft) 100,00 %
02.12.2023 16:59 -3,5 C 89 % 1008,0 hPa 0,0 l/m 15,0 kts (4 Bft) W 272 0 min 0,0 UV-I 0 W/m -5,0 C -17,5 C 17,4 kts (5 Bft) 100,00 %
02.12.2023 16:58 -3,4 C 89 % 1008,0 hPa 0,0 l/m 14,7 kts (4 Bft) W-SW 252 0 min 0,0 UV-I 0 W/m -4,9 C -17,2 C 17,4 kts (5 Bft) 100,00 %
02.12.2023 16:57 -3,4 C 89 % 1008,0 hPa 0,0 l/m 14,8 kts (4 Bft) W 260 0 min 0,0 UV-I 0 W/m -4,9 C -17,3 C 16,5 kts (5 Bft) 100,00 %
02.12.2023 16:56 -3,4 C 89 % 1007,9 hPa 0,0 l/m 14,8 kts (4 Bft) W 273 0 min 0,0 UV-I 0 W/m -4,9 C -17,3 C 16,5 kts (5 Bft) 100,00 %
02.12.2023 16:55 -3,5 C 89 % 1007,8 hPa 0,0 l/m 13,9 kts (4 Bft) W 280 0 min 0,0 UV-I 0 W/m -5,0 C -16,7 C 18,3 kts (5 Bft) 100,00 %
02.12.2023 16:54 -3,5 C 89 % 1008,0 hPa 0,0 l/m 10,2 kts (3 Bft) W 281 0 min 0,0 UV-I 0 W/m -5,0 C -13,6 C 13,0 kts (4 Bft) 98,72 %
02.12.2023 16:53 -3,4 C 89 % 1007,8 hPa 0,0 l/m 13,7 kts (4 Bft) W-NW 284 0 min 0,0 UV-I 0 W/m -4,9 C -16,4 C 16,5 kts (5 Bft) 100,00 %
02.12.2023 16:52 -3,5 C 89 % 1007,8 hPa 0,0 l/m 12,1 kts (4 Bft) W 273 0 min 0,0 UV-I 0 W/m -5,0 C -15,4 C 16,5 kts (5 Bft) 100,00 %
02.12.2023 16:51 -3,5 C 89 % 1007,8 hPa 0,0 l/m 10,5 kts (3 Bft) W-SW 252 0 min 0,0 UV-I 0 W/m -5,0 C -13,8 C 12,1 kts (4 Bft) 100,00 %
02.12.2023 16:50 -3,5 C 89 % 1007,8 hPa 0,0 l/m 14,0 kts (4 Bft) W 265 0 min 0,0 UV-I 0 W/m -5,0 C -16,8 C 16,5 kts (5 Bft) 100,00 %
02.12.2023 16:49 -3,5 C 89 % 1007,7 hPa 0,0 l/m 12,9 kts (4 Bft) W 281 0 min 0,0 UV-I 0 W/m -5,0 C -16,0 C 16,5 kts (5 Bft) 100,00 %
02.12.2023 16:48 -3,5 C 89 % 1007,7 hPa 0,0 l/m 13,6 kts (4 Bft) W 279 0 min 0,0 UV-I 0 W/m -5,0 C -16,5 C 15,7 kts (5 Bft) 95,65 %
02.12.2023 16:47 -3,5 C 89 % 1007,6 hPa 0,0 l/m 9,4 kts (3 Bft) W-NW 288 0 min 0,0 UV-I 0 W/m -5,0 C -12,8 C 13,0 kts (4 Bft) 100,00 %
02.12.2023 16:46 -3,5 C 89 % 1007,6 hPa 0,0 l/m 13,3 kts (4 Bft) W-SW 252 0 min 0,0 UV-I 0 W/m -5,0 C -16,3 C 15,7 kts (5 Bft) 100,00 %
02.12.2023 16:45 -3,5 C 89 % 1007,6 hPa 0,0 l/m 14,0 kts (4 Bft) W-SW 242 0 min 0,0 UV-I 0 W/m -5,0 C -16,9 C 15,7 kts (5 Bft) 100,00 %
02.12.2023 16:44 -3,5 C 89 % 1007,5 hPa 0,0 l/m 14,2 kts (4 Bft) W 259 0 min 0,0 UV-I 0 W/m -5,0 C -17,0 C 17,4 kts (5 Bft) 100,00 %
02.12.2023 16:43 -3,5 C 89 % 1007,5 hPa 0,0 l/m 14,0 kts (4 Bft) W 275 0 min 0,0 UV-I 0 W/m -5,0 C -16,8 C 16,5 kts (5 Bft) 100,00 %
02.12.2023 16:42 -3,6 C 89 % 1007,5 hPa 0,0 l/m 12,5 kts (4 Bft) W 265 0 min 0,0 UV-I 0 W/m -5,1 C -15,8 C 14,8 kts (4 Bft) 100,00 %
02.12.2023 16:41 -3,5 C 89 % 1007,5 hPa 0,0 l/m 11,7 kts (4 Bft) W 279 0 min 0,0 UV-I 0 W/m -5,0 C -14,9 C 13,0 kts (4 Bft) 100,00 %
02.12.2023 16:40 -3,5 C 89 % 1007,5 hPa 0,0 l/m 10,2 kts (3 Bft) W 269 0 min 0,0 UV-I 0 W/m -5,0 C -13,5 C 12,1 kts (4 Bft) 100,00 %
02.12.2023 16:39 -3,6 C 89 % 1007,5 hPa 0,0 l/m 12,1 kts (4 Bft) W 265 0 min 0,0 UV-I 0 W/m -5,1 C -15,5 C 13,0 kts (4 Bft) 100,00 %
02.12.2023 16:38 -3,5 C 89 % 1007,5 hPa 0,0 l/m 11,0 kts (4 Bft) W 269 0 min 0,0 UV-I 0 W/m -5,0 C -14,3 C 13,0 kts (4 Bft) 100,00 %
02.12.2023 16:37 -3,5 C 89 % 1007,5 hPa 0,0 l/m 11,4 kts (4 Bft) W 275 0 min 0,0 UV-I 0 W/m -5,0 C -14,8 C 13,9 kts (4 Bft) 100,00 %
02.12.2023 16:36 -3,5 C 89 % 1007,5 hPa 0,0 l/m 11,0 kts (4 Bft) W 275 0 min 0,0 UV-I 0 W/m -5,0 C -14,4 C 13,0 kts (4 Bft) 100,00 %
02.12.2023 16:35 -3,5 C 89 % 1007,5 hPa 0,0 l/m 12,0 kts (4 Bft) W 272 0 min 0,0 UV-I 0 W/m -5,0 C -15,3 C 14,8 kts (4 Bft) 100,00 %
02.12.2023 16:34 -3,5 C 89 % 1007,3 hPa 0,0 l/m 12,6 kts (4 Bft) W 260 0 min 0,0 UV-I 0 W/m -5,0 C -15,8 C 16,5 kts (5 Bft) 96,55 %
02.12.2023 16:33 -3,5 C 89 % 1007,3 hPa 0,0 l/m 12,1 kts (4 Bft) W-NW 287 0 min 0,0 UV-I 0 W/m -5,0 C -15,4 C 14,8 kts (4 Bft) 100,00 %
02.12.2023 16:32 -3,6 C 89 % 1007,3 hPa 0,0 l/m 12,6 kts (4 Bft) W-SW 256 0 min 0,0 UV-I 0 W/m -5,1 C -15,9 C 14,8 kts (4 Bft) 100,00 %
02.12.2023 16:31 -3,5 C 89 % 1007,3 hPa 0,0 l/m 14,3 kts (4 Bft) W-NW 286 0 min 0,0 UV-I 0 W/m -5,0 C -17,0 C 15,7 kts (5 Bft) 95,83 %
02.12.2023 16:30 -3,6 C 89 % 1007,3 hPa 0,0 l/m 11,6 kts (4 Bft) W 273 0 min 0,0 UV-I 0 W/m -5,1 C -15,0 C 14,8 kts (4 Bft) 92,31 %
02.12.2023 16:29 -3,5 C 89 % 1007,3 hPa 0,0 l/m 11,6 kts (4 Bft) W-NW 290 0 min 0,0 UV-I 0 W/m -5,0 C -14,9 C 13,9 kts (4 Bft) 96,30 %
02.12.2023 16:28 -3,5 C 89 % 1007,2 hPa 0,0 l/m 10,4 kts (3 Bft) W 267 0 min 0,0 UV-I 0 W/m -5,0 C -13,7 C 14,8 kts (4 Bft) 100,00 %
02.12.2023 16:27 -3,5 C 89 % 1007,2 hPa 0,0 l/m 11,9 kts (4 Bft) W-NW 284 0 min 0,0 UV-I 0 W/m -5,0 C -15,2 C 13,9 kts (4 Bft) 98,71 %
02.12.2023 16:26 -3,5 C 89 % 1007,3 hPa 0,0 l/m 13,3 kts (4 Bft) W 277 0 min 0,0 UV-I 0 W/m -5,0 C -16,3 C 16,5 kts (5 Bft) 95,65 %
02.12.2023 16:25 -3,5 C 89 % 1007,2 hPa 0,0 l/m 13,0 kts (4 Bft) W 267 0 min 0,0 UV-I 0 W/m -5,0 C -16,0 C 14,8 kts (4 Bft) 100,00 %
02.12.2023 16:24 -3,4 C 89 % 1007,2 hPa 0,0 l/m 14,0 kts (4 Bft) W 272 0 min 0,0 UV-I 0 W/m -4,9 C -16,7 C 16,5 kts (5 Bft) 96,88 %
02.12.2023 16:23 -3,5 C 89 % 1007,2 hPa 0,0 l/m 12,3 kts (4 Bft) W 280 0 min 0,0 UV-I 0 W/m -5,0 C -15,5 C 17,4 kts (5 Bft) 100,00 %
02.12.2023 16:22 -3,5 C 89 % 1007,2 hPa 0,0 l/m 12,6 kts (4 Bft) W-NW 289 0 min 0,0 UV-I 0 W/m -5,0 C -15,7 C 14,8 kts (4 Bft) 92,31 %
02.12.2023 16:21 -3,5 C 89 % 1007,2 hPa 0,0 l/m 12,2 kts (4 Bft) W 272 0 min 0,0 UV-I 0 W/m -5,0 C -15,4 C 14,8 kts (4 Bft) 100,00 %
02.12.2023 16:20 -3,5 C 89 % 1007,2 hPa 0,0 l/m 14,5 kts (4 Bft) W 264 0 min 0,0 UV-I 0 W/m -5,0 C -17,2 C 17,4 kts (5 Bft) 95,83 %
02.12.2023 16:19 -3,4 C 89 % 1007,2 hPa 0,0 l/m 15,4 kts (4 Bft) W 267 0 min 0,0 UV-I 0 W/m -4,9 C -17,7 C 20,0 kts (5 Bft) 95,24 %
02.12.2023 16:18 -3,4 C 89 % 1007,2 hPa 0,0 l/m 9,6 kts (3 Bft) W 261 0 min 0,0 UV-I 0 W/m -4,9 C -12,8 C 11,3 kts (4 Bft) 95,65 %
02.12.2023 16:17 -3,4 C 89 % 1007,2 hPa 0,0 l/m 13,7 kts (4 Bft) W 279 0 min 0,0 UV-I 0 W/m -4,9 C -16,5 C 16,5 kts (5 Bft) 96,15 %
02.12.2023 16:16 -3,4 C 89 % 1007,1 hPa 0,0 l/m 12,3 kts (4 Bft) W-NW 285 0 min 0,0 UV-I 0 W/m -4,9 C -15,3 C 15,7 kts (5 Bft) 96,30 %
02.12.2023 16:15 -3,4 C 89 % 1007,0 hPa 0,0 l/m 10,9 kts (4 Bft) W 264 0 min 0,0 UV-I 0 W/m -4,9 C -14,1 C 15,7 kts (5 Bft) 100,00 %
02.12.2023 16:14 -3,4 C 89 % 1007,0 hPa 0,0 l/m 13,4 kts (4 Bft) W-NW 289 0 min 0,0 UV-I 0 W/m -4,9 C -16,2 C 17,4 kts (5 Bft) 95,12 %
02.12.2023 16:13 -3,4 C 89 % 1007,0 hPa 0,0 l/m 12,4 kts (4 Bft) W-SW 240 0 min 0,0 UV-I 0 W/m -4,9 C -15,4 C 16,5 kts (5 Bft) 100,00 %
02.12.2023 16:12 -3,4 C 89 % 1007,0 hPa 0,0 l/m 13,7 kts (4 Bft) W 264 0 min 0,0 UV-I 0 W/m -4,9 C -16,4 C 15,7 kts (5 Bft) 96,67 %
02.12.2023 16:11 -3,4 C 89 % 1007,0 hPa 0,0 l/m 9,7 kts (3 Bft) W-NW 288 0 min 0,0 UV-I 0 W/m -4,9 C -12,9 C 11,3 kts (4 Bft) 100,00 %
02.12.2023 16:10 -3,4 C 89 % 1007,0 hPa 0,0 l/m 11,4 kts (4 Bft) W 277 0 min 0,0 UV-I 0 W/m -4,9 C -14,6 C 13,9 kts (4 Bft) 86,96 %
02.12.2023 16:09 -3,4 C 89 % 1006,9 hPa 0,0 l/m 11,9 kts (4 Bft) W-SW 248 0 min 0,0 UV-I 0 W/m -4,9 C -15,0 C 13,9 kts (4 Bft) 98,00 %
02.12.2023 16:08 -3,4 C 89 % 1006,9 hPa 0,0 l/m 14,8 kts (4 Bft) W 281 0 min 0,0 UV-I 0 W/m -4,9 C -17,3 C 15,7 kts (5 Bft) 98,78 %
02.12.2023 16:07 -3,4 C 89 % 1006,8 hPa 0,0 l/m 13,0 kts (4 Bft) W 268 0 min 0,0 UV-I 0 W/m -4,9 C -15,9 C 16,5 kts (5 Bft) 100,00 %
02.12.2023 16:06 -3,3 C 89 % 1006,8 hPa 0,0 l/m 11,6 kts (4 Bft) W 263 0 min 0,0 UV-I 0 W/m -4,8 C -14,6 C 13,9 kts (4 Bft) 92,59 %
02.12.2023 16:05 -3,3 C 89 % 1006,9 hPa 0,0 l/m 12,6 kts (4 Bft) W 269 0 min 0,0 UV-I 0 W/m -4,8 C -15,5 C 14,8 kts (4 Bft) 100,00 %
02.12.2023 16:04 -3,3 C 89 % 1006,8 hPa 0,0 l/m 13,6 kts (4 Bft) W-SW 256 0 min 0,0 UV-I 0 W/m -4,8 C -16,2 C 17,4 kts (5 Bft) 98,31 %
02.12.2023 16:03 -3,3 C 89 % 1006,8 hPa 0,0 l/m 10,3 kts (3 Bft) W-SW 257 0 min 0,0 UV-I 0 W/m -4,8 C -13,4 C 12,1 kts (4 Bft) 98,79 %
02.12.2023 16:02 -3,3 C 89 % 1006,8 hPa 0,0 l/m 13,6 kts (4 Bft) W 271 0 min 0,0 UV-I 0 W/m -4,8 C -16,3 C 15,7 kts (5 Bft) 91,67 %
02.12.2023 16:01 -3,3 C 89 % 1006,8 hPa 0,0 l/m 11,4 kts (4 Bft) W 280 0 min 0,0 UV-I 0 W/m -4,8 C -14,4 C 15,7 kts (5 Bft) 100,00 %
02.12.2023 16:00 -3,3 C 89 % 1006,7 hPa 0,0 l/m 11,2 kts (4 Bft) W-SW 254 0 min 0,0 UV-I 0 W/m -4,8 C -14,3 C 14,8 kts (4 Bft) 92,59 %
02.12.2023 15:59 -3,3 C 89 % 1006,7 hPa 0,0 l/m 9,5 kts (3 Bft) W 267 0 min 0,0 UV-I 0 W/m -4,8 C -12,6 C 11,3 kts (4 Bft) 100,00 %
02.12.2023 15:58 -3,3 C 89 % 1006,6 hPa 0,0 l/m 11,4 kts (4 Bft) W 264 0 min 0,0 UV-I 0 W/m -4,8 C -14,5 C 15,7 kts (5 Bft) 95,83 %
02.12.2023 15:57 -3,3 C 89 % 1006,5 hPa 0,0 l/m 11,9 kts (4 Bft) W-NW 284 0 min 0,0 UV-I 0 W/m -4,8 C -14,9 C 13,0 kts (4 Bft) 96,88 %
02.12.2023 15:56 -3,3 C 89 % 1006,4 hPa 0,0 l/m 11,5 kts (4 Bft) W 281 0 min 0,0 UV-I 0 W/m -4,8 C -14,5 C 16,5 kts (5 Bft) 100,00 %
02.12.2023 15:55 -3,3 C 89 % 1006,4 hPa 0,0 l/m 11,5 kts (4 Bft) W 277 0 min 0,0 UV-I 0 W/m -4,8 C -14,5 C 13,9 kts (4 Bft) 94,74 %
02.12.2023 15:54 -3,3 C 89 % 1006,6 hPa 0,0 l/m 10,9 kts (4 Bft) W 278 0 min 0,0 UV-I 0 W/m -4,8 C -14,0 C 13,0 kts (4 Bft) 83,33 %
02.12.2023 15:53 -3,3 C 89 % 1006,4 hPa 0,0 l/m 10,3 kts (3 Bft) W-SW 257 0 min 0,0 UV-I 0 W/m -4,8 C -13,4 C 13,0 kts (4 Bft) 100,00 %
02.12.2023 15:52 -3,3 C 89 % 1006,4 hPa 0,0 l/m 8,6 kts (3 Bft) W 263 0 min 0,0 UV-I 0 W/m -4,8 C -11,6 C 11,3 kts (4 Bft) 97,06 %
02.12.2023 15:51 -3,3 C 89 % 1006,4 hPa 0,0 l/m 11,1 kts (4 Bft) W-NW 290 0 min 0,0 UV-I 0 W/m -4,8 C -14,1 C 14,8 kts (4 Bft) 100,00 %
02.12.2023 15:50 -3,3 C 89 % 1006,4 hPa 0,0 l/m 9,1 kts (3 Bft) W 277 0 min 0,0 UV-I 0 W/m -4,8 C -12,2 C 10,4 kts (3 Bft) 95,83 %
02.12.2023 15:49 -3,3 C 89 % 1006,4 hPa 0,0 l/m 8,3 kts (3 Bft) W 267 0 min 0,0 UV-I 0 W/m -4,8 C -11,2 C 10,4 kts (3 Bft) 100,00 %
02.12.2023 15:48 -3,3 C 89 % 1006,4 hPa 0,0 l/m 6,4 kts (2 Bft) W 271 0 min 0,0 UV-I 0 W/m -4,8 C -8,7 C 8,7 kts (3 Bft) 95,83 %
02.12.2023 15:47 -3,3 C 89 % 1006,4 hPa 0,0 l/m 7,6 kts (3 Bft) W 271 0 min 0,0 UV-I 0 W/m -4,8 C -10,4 C 9,6 kts (3 Bft) 96,55 %
02.12.2023 15:46 -3,3 C 89 % 1006,4 hPa 0,0 l/m 9,7 kts (3 Bft) W 269 0 min 0,0 UV-I 0 W/m -4,8 C -12,8 C 11,3 kts (4 Bft) 100,00 %
02.12.2023 15:45 -3,3 C 89 % 1006,4 hPa 0,0 l/m 10,8 kts (4 Bft) W-SW 251 0 min 0,0 UV-I 0 W/m -4,8 C -13,9 C 13,0 kts (4 Bft) 95,65 %
02.12.2023 15:44 -3,3 C 89 % 1006,4 hPa 0,0 l/m 11,8 kts (4 Bft) W 263 0 min 0,0 UV-I 0 W/m -4,8 C -14,8 C 13,9 kts (4 Bft) 100,00 %
02.12.2023 15:43 -3,3 C 89 % 1006,4 hPa 0,0 l/m 11,4 kts (4 Bft) W 271 0 min 0,0 UV-I 0 W/m -4,8 C -14,4 C 16,5 kts (5 Bft) 96,15 %
02.12.2023 15:42 -3,3 C 89 % 1006,4 hPa 0,0 l/m 11,3 kts (4 Bft) W-NW 292 0 min 0,0 UV-I 0 W/m -4,8 C -14,4 C 13,9 kts (4 Bft) 95,65 %
02.12.2023 15:41 -3,3 C 89 % 1006,3 hPa 0,0 l/m 13,4 kts (4 Bft) W-SW 257 0 min 0,0 UV-I 0 W/m -4,8 C -16,1 C 16,5 kts (5 Bft) 95,83 %
02.12.2023 15:40 -3,3 C 89 % 1006,3 hPa 0,0 l/m 13,1 kts (4 Bft) W 274 0 min 0,0 UV-I 0 W/m -4,8 C -15,9 C 16,5 kts (5 Bft) 100,00 %
02.12.2023 15:39 -3,3 C 89 % 1006,3 hPa 0,0 l/m 11,3 kts (4 Bft) W-NW 286 0 min 0,0 UV-I 0 W/m -4,8 C -14,3 C 13,0 kts (4 Bft) 95,83 %
02.12.2023 15:38 -3,3 C 89 % 1006,3 hPa 0,0 l/m 11,6 kts (4 Bft) W 269 0 min 0,0 UV-I 0 W/m -4,8 C -14,6 C 13,9 kts (4 Bft) 100,00 %
02.12.2023 15:37 -3,2 C 89 % 1006,3 hPa 0,0 l/m 9,9 kts (3 Bft) W-NW 284 0 min 0,0 UV-I 0 W/m -4,7 C -12,9 C 13,0 kts (4 Bft) 96,30 %
02.12.2023 15:36 -3,2 C 89 % 1006,2 hPa 0,0 l/m 12,5 kts (4 Bft) W 272 0 min 0,0 UV-I 0 W/m -4,7 C -15,3 C 16,5 kts (5 Bft) 100,00 %
02.12.2023 15:35 -3,3 C 89 % 1006,3 hPa 0,0 l/m 11,2 kts (4 Bft) W-NW 289 0 min 0,0 UV-I 0 W/m -4,8 C -14,2 C 13,0 kts (4 Bft) 93,33 %
02.12.2023 15:34 -3,2 C 89 % 1006,2 hPa 0,0 l/m 7,5 kts (3 Bft) W 273 0 min 0,0 UV-I 0 W/m -4,7 C -10,0 C 9,6 kts (3 Bft) 100,00 %
02.12.2023 15:33 -3,2 C 89 % 1006,2 hPa 0,0 l/m 7,6 kts (3 Bft) W-NW 284 0 min 0,0 UV-I 0 W/m -4,7 C -10,2 C 9,6 kts (3 Bft) 96,30 %
02.12.2023 15:32 -3,2 C 89 % 1006,2 hPa 0,0 l/m 8,3 kts (3 Bft) W-SW 238 0 min 0,0 UV-I 0 W/m -4,7 C -11,1 C 12,1 kts (4 Bft) 100,00 %
02.12.2023 15:31 -3,2 C 89 % 1006,2 hPa 0,0 l/m 10,8 kts (4 Bft) W 277 0 min 0,0 UV-I 0 W/m -4,7 C -13,8 C 13,0 kts (4 Bft) 95,83 %
02.12.2023 15:30 -3,2 C 89 % 1006,2 hPa 0,0 l/m 10,6 kts (3 Bft) W 259 0 min 0,0 UV-I 0 W/m -4,7 C -13,6 C 13,9 kts (4 Bft) 95,65 %
02.12.2023 15:29 -3,2 C 89 % 1006,2 hPa 0,0 l/m 7,6 kts (3 Bft) W-NW 299 0 min 0,0 UV-I 0 W/m -4,7 C -10,2 C 8,7 kts (3 Bft) 95,83 %
02.12.2023 15:28 -3,2 C 89 % 1006,0 hPa 0,0 l/m 9,5 kts (3 Bft) W-NW 302 0 min 0,0 UV-I 0 W/m -4,7 C -12,5 C 11,3 kts (4 Bft) 100,00 %
02.12.2023 15:27 -3,2 C 89 % 1006,0 hPa 0,0 l/m 10,4 kts (3 Bft) W 281 0 min 0,0 UV-I 0 W/m -4,7 C -13,3 C 12,1 kts (4 Bft) 91,67 %
02.12.2023 15:26 -3,2 C 89 % 1005,9 hPa 0,0 l/m 7,3 kts (3 Bft) W-NW 298 0 min 0,0 UV-I 5 W/m -4,7 C -9,9 C 8,7 kts (3 Bft) 96,55 %
02.12.2023 15:25 -3,2 C 89 % 1005,9 hPa 0,0 l/m 8,9 kts (3 Bft) W-NW 290 0 min 0,0 UV-I 5 W/m -4,7 C -11,7 C 11,3 kts (4 Bft) 93,33 %
02.12.2023 15:24 -3,2 C 89 % 1005,8 hPa 0,0 l/m 8,1 kts (3 Bft) W-NW 299 0 min 0,0 UV-I 5 W/m -4,7 C -10,9 C 9,6 kts (3 Bft) 100,00 %
02.12.2023 15:23 -3,2 C 89 % 1005,8 hPa 0,0 l/m 9,2 kts (3 Bft) NW 304 0 min 0,0 UV-I 5 W/m -4,7 C -12,2 C 11,3 kts (4 Bft) 100,00 %
02.12.2023 15:22 -3,2 C 89 % 1005,7 hPa 0,0 l/m 10,6 kts (3 Bft) W-NW 292 0 min 0,0 UV-I 5 W/m -4,7 C -13,6 C 14,8 kts (4 Bft) 100,00 %
02.12.2023 15:21 -3,2 C 89 % 1005,7 hPa 0,0 l/m 10,4 kts (3 Bft) W 278 0 min 0,0 UV-I 5 W/m -4,7 C -13,3 C 13,0 kts (4 Bft) 100,00 %
02.12.2023 15:20 -3,2 C 89 % 1005,9 hPa 0,0 l/m 9,6 kts (3 Bft) W-NW 292 0 min 0,0 UV-I 5 W/m -4,7 C -12,5 C 11,3 kts (4 Bft) 98,90 %
02.12.2023 15:19 -3,2 C 89 % 1005,8 hPa 0,0 l/m 13,2 kts (4 Bft) W 275 0 min 0,0 UV-I 5 W/m -4,7 C -15,8 C 15,7 kts (5 Bft) 100,00 %
02.12.2023 15:18 -3,2 C 89 % 1005,8 hPa 0,0 l/m 10,4 kts (3 Bft) W-NW 285 0 min 0,0 UV-I 5 W/m -4,7 C -13,3 C 12,1 kts (4 Bft) 96,55 %
02.12.2023 15:17 -3,2 C 89 % 1005,9 hPa 0,0 l/m 13,0 kts (4 Bft) W 259 0 min 0,0 UV-I 5 W/m -4,7 C -15,6 C 15,7 kts (5 Bft) 100,00 %
02.12.2023 15:16 -3,2 C 89 % 1005,9 hPa 0,0 l/m 9,5 kts (3 Bft) W-NW 298 0 min 0,0 UV-I 5 W/m -4,7 C -12,5 C 12,1 kts (4 Bft) 100,00 %
02.12.2023 15:15 -3,2 C 89 % 1005,8 hPa 0,0 l/m 10,9 kts (4 Bft) W-NW 298 0 min 0,0 UV-I 5 W/m -4,7 C -13,8 C 13,0 kts (4 Bft) 95,83 %
02.12.2023 15:14 -3,2 C 89 % 1005,9 hPa 0,0 l/m 9,7 kts (3 Bft) W-NW 284 0 min 0,0 UV-I 7 W/m -4,7 C -12,6 C 14,8 kts (4 Bft) 100,00 %
02.12.2023 15:13 -3,2 C 89 % 1005,8 hPa 0,0 l/m 8,7 kts (3 Bft) W-NW 287 0 min 0,0 UV-I 7 W/m -4,7 C -11,6 C 11,3 kts (4 Bft) 100,00 %
02.12.2023 15:12 -3,2 C 89 % 1005,8 hPa 0,0 l/m 9,3 kts (3 Bft) W 278 0 min 0,0 UV-I 7 W/m -4,7 C -12,3 C 11,3 kts (4 Bft) 95,65 %
02.12.2023 15:11 -3,2 C 89 % 1005,8 hPa 0,0 l/m 9,5 kts (3 Bft) W 271 0 min 0,0 UV-I 7 W/m -4,7 C -12,5 C 12,1 kts (4 Bft) 95,83 %
02.12.2023 15:10 -3,2 C 89 % 1005,8 hPa 0,0 l/m 7,0 kts (3 Bft) W-SW 256 0 min 0,0 UV-I 7 W/m -4,7 C -9,5 C 10,4 kts (3 Bft) 100,00 %
02.12.2023 15:09 -3,2 C 89 % 1005,8 hPa 0,0 l/m 11,3 kts (4 Bft) W 281 0 min 0,0 UV-I 7 W/m -4,7 C -14,2 C 13,9 kts (4 Bft) 100,00 %
02.12.2023 15:08 -3,2 C 89 % 1005,8 hPa 0,0 l/m 9,2 kts (3 Bft) W-SW 246 0 min 0,0 UV-I 7 W/m -4,7 C -12,2 C 11,3 kts (4 Bft) 100,00 %
02.12.2023 15:07 -3,2 C 89 % 1005,8 hPa 0,0 l/m 11,5 kts (4 Bft) W 275 0 min 0,0 UV-I 7 W/m -4,7 C -14,4 C 14,8 kts (4 Bft) 100,00 %
02.12.2023 15:06 -3,2 C 89 % 1005,7 hPa 0,0 l/m 13,1 kts (4 Bft) W 265 0 min 0,0 UV-I 7 W/m -4,7 C -15,7 C 14,8 kts (4 Bft) 100,00 %
02.12.2023 15:05 -3,2 C 89 % 1005,7 hPa 0,0 l/m 11,8 kts (4 Bft) W 279 0 min 0,0 UV-I 7 W/m -4,7 C -14,6 C 13,9 kts (4 Bft) 100,00 %
02.12.2023 15:04 -3,2 C 89 % 1005,6 hPa 0,0 l/m 14,3 kts (4 Bft) W 274 0 min 0,0 UV-I 7 W/m -4,7 C -16,6 C 15,7 kts (5 Bft) 96,67 %
02.12.2023 15:03 -3,2 C 89 % 1005,5 hPa 0,0 l/m 11,9 kts (4 Bft) NW 306 0 min 0,0 UV-I 7 W/m -4,7 C -14,7 C 15,7 kts (5 Bft) 100,00 %
02.12.2023 15:02 -3,1 C 89 % 1005,6 hPa 0,0 l/m 10,8 kts (4 Bft) W-NW 284 0 min 0,0 UV-I 7 W/m -4,6 C -13,6 C 13,9 kts (4 Bft) 100,00 %
02.12.2023 15:01 -3,2 C 89 % 1005,6 hPa 0,0 l/m 12,3 kts (4 Bft) W-NW 291 0 min 0,0 UV-I 7 W/m -4,7 C -15,1 C 13,9 kts (4 Bft) 97,56 %
02.12.2023 15:00 -3,2 C 89 % 1005,6 hPa 0,0 l/m 12,1 kts (4 Bft) W 267 0 min 0,0 UV-I 7 W/m -4,7 C -14,9 C 14,8 kts (4 Bft) 98,90 %
02.12.2023 14:59 -3,2 C 89 % 1005,5 hPa 0,0 l/m 12,1 kts (4 Bft) W-NW 285 0 min 0,0 UV-I 7 W/m -4,7 C -15,0 C 13,9 kts (4 Bft) 100,00 %
02.12.2023 14:58 -3,2 C 89 % 1005,5 hPa 0,0 l/m 14,0 kts (4 Bft) W 279 0 min 0,0 UV-I 7 W/m -4,7 C -16,4 C 16,5 kts (5 Bft) 100,00 %
02.12.2023 14:57 -3,2 C 89 % 1005,4 hPa 0,0 l/m 10,2 kts (3 Bft) NW 309 0 min 0,0 UV-I 9 W/m -4,7 C -13,1 C 11,3 kts (4 Bft) 98,90 %
02.12.2023 14:56 -3,2 C 89 % 1005,4 hPa 0,0 l/m 9,6 kts (3 Bft) W-NW 286 0 min 0,0 UV-I 9 W/m -4,7 C -12,6 C 13,0 kts (4 Bft) 100,00 %
02.12.2023 14:55 -3,2 C 89 % 1005,4 hPa 0,0 l/m 7,9 kts (3 Bft) W-NW 298 0 min 0,0 UV-I 9 W/m -4,7 C -10,6 C 9,6 kts (3 Bft) 100,00 %
02.12.2023 14:54 -3,1 C 89 % 1005,4 hPa 0,0 l/m 5,6 kts (2 Bft) W-NW 286 0 min 0,0 UV-I 9 W/m -4,6 C -7,1 C 8,7 kts (3 Bft) 100,00 %
02.12.2023 14:53 -3,2 C 89 % 1005,4 hPa 0,0 l/m 8,9 kts (3 Bft) NW 321 0 min 0,0 UV-I 11 W/m -4,7 C -11,8 C 9,6 kts (3 Bft) 100,00 %
02.12.2023 14:52 -3,2 C 89 % 1005,3 hPa 0,0 l/m 11,7 kts (4 Bft) W 281 0 min 0,0 UV-I 11 W/m -4,7 C -14,6 C 13,9 kts (4 Bft) 100,00 %
02.12.2023 14:51 -3,1 C 89 % 1005,3 hPa 0,0 l/m 10,5 kts (3 Bft) W-NW 300 0 min 0,0 UV-I 11 W/m -4,6 C -13,4 C 13,9 kts (4 Bft) 100,00 %
02.12.2023 14:50 -3,1 C 89 % 1005,3 hPa 0,0 l/m 11,3 kts (4 Bft) W 275 0 min 0,0 UV-I 11 W/m -4,6 C -14,1 C 13,9 kts (4 Bft) 97,14 %
02.12.2023 14:49 -3,1 C 89 % 1005,2 hPa 0,0 l/m 10,0 kts (3 Bft) NW 304 0 min 0,0 UV-I 12 W/m -4,6 C -12,8 C 13,9 kts (4 Bft) 100,00 %
02.12.2023 14:48 -3,1 C 89 % 1005,2 hPa 0,0 l/m 11,4 kts (4 Bft) NW 325 0 min 0,0 UV-I 12 W/m -4,6 C -14,2 C 13,9 kts (4 Bft) 100,00 %
02.12.2023 14:47 -3,1 C 89 % 1005,2 hPa 0,0 l/m 9,8 kts (3 Bft) W-NW 300 0 min 0,0 UV-I 12 W/m -4,6 C -12,7 C 12,1 kts (4 Bft) 97,56 %
02.12.2023 14:46 -3,1 C 89 % 1005,2 hPa 0,0 l/m 10,4 kts (3 Bft) W-NW 293 0 min 0,0 UV-I 12 W/m -4,6 C -13,3 C 12,1 kts (4 Bft) 100,00 %
02.12.2023 14:45 -3,1 C 89 % 1005,2 hPa 0,0 l/m 12,7 kts (4 Bft) NW 306 0 min 0,0 UV-I 11 W/m -4,6 C -15,3 C 17,4 kts (5 Bft) 100,00 %
02.12.2023 14:44 -3,1 C 89 % 1005,0 hPa 0,0 l/m 10,1 kts (3 Bft) W-NW 298 0 min 0,0 UV-I 11 W/m -4,6 C -13,0 C 13,0 kts (4 Bft) 100,00 %
02.12.2023 14:43 -3,1 C 89 % 1005,1 hPa 0,0 l/m 12,4 kts (4 Bft) W-NW 299 0 min 0,0 UV-I 11 W/m -4,6 C -15,0 C 15,7 kts (5 Bft) 100,00 %
02.12.2023 14:42 -3,1 C 89 % 1005,1 hPa 0,0 l/m 9,7 kts (3 Bft) NW 312 0 min 0,0 UV-I 11 W/m -4,6 C -12,6 C 13,0 kts (4 Bft) 100,00 %
02.12.2023 14:41 -3,1 C 89 % 1005,0 hPa 0,0 l/m 9,4 kts (3 Bft) W-NW 300 0 min 0,0 UV-I 12 W/m -4,6 C -12,2 C 11,3 kts (4 Bft) 96,97 %
02.12.2023 14:40 -3,1 C 89 % 1005,1 hPa 0,0 l/m 11,6 kts (4 Bft) NW 304 0 min 0,0 UV-I 12 W/m -4,6 C -14,3 C 13,9 kts (4 Bft) 100,00 %
02.12.2023 14:39 -3,1 C 89 % 1005,0 hPa 0,0 l/m 12,1 kts (4 Bft) W-NW 282 0 min 0,0 UV-I 12 W/m -4,6 C -14,8 C 14,8 kts (4 Bft) 100,00 %
02.12.2023 14:38 -3,1 C 89 % 1005,1 hPa 0,0 l/m 10,5 kts (3 Bft) NW 309 0 min 0,0 UV-I 12 W/m -4,6 C -13,3 C 13,9 kts (4 Bft) 100,00 %
02.12.2023 14:37 -3,1 C 89 % 1005,1 hPa 0,0 l/m 14,1 kts (4 Bft) W-NW 288 0 min 0,0 UV-I 12 W/m -4,6 C -16,4 C 17,4 kts (5 Bft) 100,00 %
02.12.2023 14:36 -3,1 C 89 % 1005,1 hPa 0,0 l/m 12,0 kts (4 Bft) W 273 0 min 0,0 UV-I 12 W/m -4,6 C -14,8 C 13,9 kts (4 Bft) 95,65 %
02.12.2023 14:35 -3,1 C 89 % 1005,2 hPa 0,0 l/m 11,4 kts (4 Bft) W-NW 290 0 min 0,0 UV-I 12 W/m -4,6 C -14,2 C 13,9 kts (4 Bft) 100,00 %
02.12.2023 14:34 -3,1 C 89 % 1005,2 hPa 0,0 l/m 9,6 kts (3 Bft) W 276 0 min 0,0 UV-I 12 W/m -4,6 C -12,5 C 11,3 kts (4 Bft) 100,00 %
02.12.2023 14:33 -3,1 C 89 % 1005,2 hPa 0,0 l/m 11,8 kts (4 Bft) W-NW 292 0 min 0,0 UV-I 12 W/m -4,6 C -14,6 C 14,8 kts (4 Bft) 100,00 %
02.12.2023 14:32 -3,1 C 89 % 1005,2 hPa 0,0 l/m 11,9 kts (4 Bft) W 277 0 min 0,0 UV-I 12 W/m -4,6 C -14,7 C 16,5 kts (5 Bft) 100,00 %
02.12.2023 14:31 -3,1 C 89 % 1005,2 hPa 0,0 l/m 9,9 kts (3 Bft) W 277 0 min 0,0 UV-I 12 W/m -4,6 C -12,7 C 12,1 kts (4 Bft) 100,00 %
02.12.2023 14:30 -3,1 C 89 % 1005,2 hPa 0,0 l/m 12,0 kts (4 Bft) W 277 0 min 0,0 UV-I 12 W/m -4,6 C -14,8 C 13,9 kts (4 Bft) 100,00 %
02.12.2023 14:29 -3,1 C 89 % 1005,1 hPa 0,0 l/m 11,8 kts (4 Bft) W-NW 290 0 min 0,0 UV-I 14 W/m -4,6 C -14,6 C 13,0 kts (4 Bft) 100,00 %
02.12.2023 14:28 -3,1 C 89 % 1005,2 hPa 0,0 l/m 12,6 kts (4 Bft) W-NW 292 0 min 0,0 UV-I 14 W/m -4,6 C -15,2 C 15,7 kts (5 Bft) 100,00 %
02.12.2023 14:27 -3,0 C 89 % 1005,2 hPa 0,0 l/m 11,8 kts (4 Bft) W-NW 293 0 min 0,0 UV-I 14 W/m -4,6 C -14,4 C 14,8 kts (4 Bft) 100,00 %
02.12.2023 14:26 -3,1 C 89 % 1005,2 hPa 0,0 l/m 14,2 kts (4 Bft) W 273 0 min 0,0 UV-I 14 W/m -4,6 C -16,4 C 17,4 kts (5 Bft) 100,00 %
02.12.2023 14:25 -3,1 C 89 % 1005,2 hPa 0,0 l/m 12,5 kts (4 Bft) W 277 0 min 0,0 UV-I 16 W/m -4,6 C -15,1 C 14,8 kts (4 Bft) 95,83 %
02.12.2023 14:24 -3,0 C 89 % 1005,2 hPa 0,0 l/m 14,7 kts (4 Bft) W 276 0 min 0,0 UV-I 16 W/m -4,6 C -16,6 C 16,5 kts (5 Bft) 100,00 %
02.12.2023 14:23 -3,0 C 89 % 1005,2 hPa 0,0 l/m 16,1 kts (5 Bft) W-NW 284 0 min 0,0 UV-I 16 W/m -4,6 C -17,6 C 17,4 kts (5 Bft) 100,00 %
02.12.2023 14:22 -3,0 C 89 % 1005,2 hPa 0,0 l/m 17,1 kts (5 Bft) W 275 0 min 0,0 UV-I 16 W/m -4,6 C -18,1 C 20,0 kts (5 Bft) 100,00 %
02.12.2023 14:21 -3,0 C 89 % 1005,1 hPa 0,0 l/m 17,8 kts (5 Bft) W-NW 286 0 min 0,0 UV-I 16 W/m -4,6 C -18,6 C 20,0 kts (5 Bft) 100,00 %
02.12.2023 14:20 -3,0 C 89 % 1005,1 hPa 0,0 l/m 19,0 kts (5 Bft) W-NW 299 0 min 0,0 UV-I 16 W/m -4,6 C -19,2 C 21,7 kts (6 Bft) 100,00 %
02.12.2023 14:19 -2,9 C 89 % 1005,0 hPa 0,0 l/m 15,3 kts (4 Bft) W-NW 283 0 min 0,0 UV-I 16 W/m -4,5 C -16,9 C 17,4 kts (5 Bft) 100,00 %
02.12.2023 14:18 -2,9 C 89 % 1005,1 hPa 0,0 l/m 16,6 kts (5 Bft) W 275 0 min 0,0 UV-I 16 W/m -4,5 C -17,7 C 20,8 kts (5 Bft) 100,00 %
02.12.2023 14:17 -2,9 C 89 % 1005,1 hPa 0,0 l/m 15,5 kts (4 Bft) W 275 0 min 0,0 UV-I 16 W/m -4,5 C -17,0 C 19,1 kts (5 Bft) 100,00 %
02.12.2023 14:16 -2,9 C 89 % 1005,0 hPa 0,0 l/m 14,4 kts (4 Bft) W 273 0 min 0,0 UV-I 16 W/m -4,5 C -16,3 C 16,5 kts (5 Bft) 100,00 %
02.12.2023 14:15 -2,9 C 89 % 1005,0 hPa 0,0 l/m 14,7 kts (4 Bft) W 274 0 min 0,0 UV-I 18 W/m -4,5 C -16,5 C 18,3 kts (5 Bft) 100,00 %
02.12.2023 14:14 -2,9 C 89 % 1005,0 hPa 0,0 l/m 16,1 kts (5 Bft) W 278 0 min 0,0 UV-I 18 W/m -4,5 C -17,5 C 20,0 kts (5 Bft) 100,00 %
02.12.2023 14:13 -2,9 C 89 % 1005,0 hPa 0,0 l/m 16,5 kts (5 Bft) W 271 0 min 0,0 UV-I 19 W/m -4,5 C -17,7 C 19,1 kts (5 Bft) 100,00 %
02.12.2023 14:12 -2,9 C 89 % 1004,9 hPa 0,0 l/m 16,6 kts (5 Bft) W 278 0 min 0,0 UV-I 19 W/m -4,5 C -17,7 C 20,8 kts (5 Bft) 100,00 %
02.12.2023 14:11 -2,8 C 89 % 1004,9 hPa 0,0 l/m 14,3 kts (4 Bft) W 271 0 min 0,0 UV-I 19 W/m -4,4 C -16,1 C 16,5 kts (5 Bft) 100,00 %
02.12.2023 14:10 -2,8 C 89 % 1004,9 hPa 0,0 l/m 13,9 kts (4 Bft) W-NW 292 0 min 0,0 UV-I 19 W/m -4,4 C -15,8 C 16,5 kts (5 Bft) 100,00 %
02.12.2023 14:09 -2,8 C 89 % 1004,8 hPa 0,0 l/m 14,5 kts (4 Bft) W-NW 287 0 min 0,0 UV-I 19 W/m -4,4 C -16,3 C 17,4 kts (5 Bft) 100,00 %
02.12.2023 14:08 -2,8 C 89 % 1004,7 hPa 0,0 l/m 13,6 kts (4 Bft) W-NW 291 0 min 0,0 UV-I 19 W/m -4,4 C -15,6 C 16,5 kts (5 Bft) 100,00 %
02.12.2023 14:07 -2,8 C 89 % 1004,7 hPa 0,0 l/m 15,9 kts (5 Bft) W-NW 296 0 min 0,0 UV-I 19 W/m -4,4 C -17,1 C 17,4 kts (5 Bft) 100,00 %
02.12.2023 14:06 -2,8 C 89 % 1004,6 hPa 0,0 l/m 17,8 kts (5 Bft) W 276 0 min 0,0 UV-I 18 W/m -4,4 C -18,2 C 20,0 kts (5 Bft) 98,83 %
02.12.2023 14:05 -2,8 C 89 % 1004,6 hPa 0,0 l/m 15,7 kts (5 Bft) W 280 0 min 0,0 UV-I 18 W/m -4,4 C -17,0 C 20,8 kts (5 Bft) 100,00 %
02.12.2023 14:04 -2,7 C 89 % 1004,5 hPa 0,0 l/m 17,2 kts (5 Bft) W-NW 284 0 min 0,0 UV-I 18 W/m -4,3 C -17,8 C 20,8 kts (5 Bft) 100,00 %
02.12.2023 14:03 -2,8 C 89 % 1004,5 hPa 0,0 l/m 15,9 kts (5 Bft) W-NW 283 0 min 0,0 UV-I 18 W/m -4,4 C -17,2 C 18,3 kts (5 Bft) 95,65 %
02.12.2023 14:02 -2,7 C 89 % 1004,5 hPa 0,0 l/m 14,6 kts (4 Bft) W-NW 287 0 min 0,0 UV-I 16 W/m -4,3 C -16,2 C 17,4 kts (5 Bft) 100,00 %
02.12.2023 14:00 -2,7 C 89 % 1004,4 hPa 0,0 l/m 15,2 kts (4 Bft) W-NW 289 0 min 0,0 UV-I 16 W/m -4,3 C -16,6 C 17,4 kts (5 Bft) 100,00 %
02.12.2023 13:59 -2,7 C 89 % 1004,4 hPa 0,0 l/m 14,5 kts (4 Bft) W-NW 286 0 min 0,0 UV-I 16 W/m -4,3 C -16,1 C 16,5 kts (5 Bft) 100,00 %
02.12.2023 13:58 -2,7 C 89 % 1004,5 hPa 0,0 l/m 12,3 kts (4 Bft) W-NW 286 0 min 0,0 UV-I 16 W/m -4,3 C -14,4 C 14,8 kts (4 Bft) 95,65 %
02.12.2023 13:57 -2,6 C 89 % 1004,5 hPa 0,0 l/m 12,0 kts (4 Bft) W 281 0 min 0,0 UV-I 16 W/m -4,2 C -14,0 C 16,5 kts (5 Bft) 95,74 %
02.12.2023 13:56 -2,6 C 89 % 1004,4 hPa 0,0 l/m 13,2 kts (4 Bft) W 279 0 min 0,0 UV-I 18 W/m -4,2 C -15,0 C 15,7 kts (5 Bft) 98,84 %
02.12.2023 13:55 -2,6 C 89 % 1004,4 hPa 0,0 l/m 12,7 kts (4 Bft) W-NW 286 0 min 0,0 UV-I 18 W/m -4,2 C -14,6 C 14,8 kts (4 Bft) 100,00 %
02.12.2023 13:54 -2,6 C 89 % 1004,4 hPa 0,0 l/m 16,7 kts (5 Bft) W 279 0 min 0,0 UV-I 18 W/m -4,2 C -17,4 C 20,0 kts (5 Bft) 96,30 %
02.12.2023 13:53 -2,6 C 89 % 1004,3 hPa 0,0 l/m 14,1 kts (4 Bft) W 279 0 min 0,0 UV-I 18 W/m -4,2 C -15,7 C 16,5 kts (5 Bft) 100,00 %
02.12.2023 13:52 -2,5 C 89 % 1004,3 hPa 0,0 l/m 11,6 kts (4 Bft) W 281 0 min 0,0 UV-I 18 W/m -4,1 C -13,5 C 15,7 kts (5 Bft) 100,00 %
02.12.2023 13:51 -2,5 C 89 % 1004,4 hPa 0,0 l/m 10,1 kts (3 Bft) W-SW 255 0 min 0,0 UV-I 18 W/m -4,1 C -12,2 C 13,0 kts (4 Bft) 100,00 %
02.12.2023 13:50 -2,4 C 89 % 1004,5 hPa 0,0 l/m 12,0 kts (4 Bft) W 281 0 min 0,0 UV-I 16 W/m -4,0 C -13,8 C 14,8 kts (4 Bft) 98,84 %
02.12.2023 13:49 -2,4 C 89 % 1004,5 hPa 0,0 l/m 11,7 kts (4 Bft) W-NW 292 0 min 0,0 UV-I 16 W/m -4,0 C -13,6 C 13,9 kts (4 Bft) 100,00 %
02.12.2023 13:48 -2,4 C 89 % 1004,5 hPa 0,0 l/m 10,3 kts (3 Bft) W 280 0 min 0,0 UV-I 16 W/m -4,0 C -12,2 C 13,9 kts (4 Bft) 100,00 %
02.12.2023 13:47 -2,3 C 89 % 1004,6 hPa 0,0 l/m 5,0 kts (2 Bft) W 267 0 min 0,0 UV-I 16 W/m -3,9 C -5,4 C 7,0 kts (3 Bft) 100,00 %
02.12.2023 13:46 -2,4 C 89 % 1004,6 hPa 0,0 l/m 6,6 kts (2 Bft) W 265 0 min 0,0 UV-I 16 W/m -4,0 C -7,9 C 7,0 kts (3 Bft) 100,00 %
02.12.2023 13:45 -2,3 C 89 % 1004,6 hPa 0,0 l/m 7,1 kts (3 Bft) W 276 0 min 0,0 UV-I 18 W/m -3,9 C -8,5 C 7,8 kts (3 Bft) 100,00 %
02.12.2023 13:44 -2,3 C 89 % 1004,6 hPa 0,0 l/m 7,3 kts (3 Bft) W 277 0 min 0,0 UV-I 18 W/m -3,9 C -8,8 C 8,7 kts (3 Bft) 97,73 %
02.12.2023 13:43 -2,3 C 89 % 1004,7 hPa 0,0 l/m 8,3 kts (3 Bft) W 261 0 min 0,0 UV-I 18 W/m -3,9 C -10,0 C 9,6 kts (3 Bft) 98,83 %
02.12.2023 13:42 -2,3 C 89 % 1004,6 hPa 0,0 l/m 8,1 kts (3 Bft) W-SW 252 0 min 0,0 UV-I 19 W/m -3,9 C -9,8 C 10,4 kts (3 Bft) 95,83 %
02.12.2023 13:41 -2,3 C 89 % 1004,5 hPa 0,0 l/m 8,3 kts (3 Bft) W 262 0 min 0,0 UV-I 19 W/m -3,9 C -10,0 C 9,6 kts (3 Bft) 100,00 %
02.12.2023 13:40 -2,3 C 89 % 1004,5 hPa 0,0 l/m 8,2 kts (3 Bft) W 260 0 min 0,0 UV-I 19 W/m -3,9 C -9,8 C 9,6 kts (3 Bft) 100,00 %
02.12.2023 13:39 -2,3 C 89 % 1004,5 hPa 0,0 l/m 9,2 kts (3 Bft) W 275 0 min 0,0 UV-I 19 W/m -3,9 C -11,0 C 10,4 kts (3 Bft) 100,00 %
02.12.2023 13:38 -2,3 C 89 % 1004,4 hPa 0,0 l/m 9,9 kts (3 Bft) W 276 0 min 0,0 UV-I 19 W/m -3,9 C -11,7 C 11,3 kts (4 Bft) 100,00 %
02.12.2023 13:37 -2,3 C 89 % 1004,4 hPa 0,0 l/m 9,8 kts (3 Bft) W 271 0 min 0,0 UV-I 19 W/m -3,9 C -11,6 C 11,3 kts (4 Bft) 100,00 %
02.12.2023 13:36 -2,3 C 89 % 1004,4 hPa 0,0 l/m 9,3 kts (3 Bft) W 261 0 min 0,0 UV-I 18 W/m -3,9 C -11,1 C 12,1 kts (4 Bft) 100,00 %
02.12.2023 13:35 -2,3 C 89 % 1004,4 hPa 0,0 l/m 11,7 kts (4 Bft) W-SW 250 0 min 0,0 UV-I 18 W/m -3,9 C -13,4 C 13,0 kts (4 Bft) 92,86 %
02.12.2023 13:34 -2,3 C 89 % 1004,4 hPa 0,0 l/m 10,2 kts (3 Bft) W-SW 252 0 min 0,0 UV-I 18 W/m -3,9 C -12,0 C 12,1 kts (4 Bft) 100,00 %
02.12.2023 13:33 -2,3 C 89 % 1004,2 hPa 0,0 l/m 11,6 kts (4 Bft) W 265 0 min 0,0 UV-I 18 W/m -3,9 C -13,3 C 13,9 kts (4 Bft) 100,00 %
02.12.2023 13:32 -2,3 C 89 % 1004,3 hPa 0,0 l/m 9,0 kts (3 Bft) W 265 0 min 0,0 UV-I 18 W/m -3,9 C -10,8 C 11,3 kts (4 Bft) 100,00 %
02.12.2023 13:31 -2,3 C 89 % 1004,4 hPa 0,0 l/m 9,8 kts (3 Bft) W 261 0 min 0,0 UV-I 18 W/m -3,9 C -11,6 C 11,3 kts (4 Bft) 94,12 %
02.12.2023 13:30 -2,3 C 89 % 1004,5 hPa 0,0 l/m 9,3 kts (3 Bft) W 259 0 min 0,0 UV-I 18 W/m -3,9 C -11,1 C 11,3 kts (4 Bft) 100,00 %
02.12.2023 13:29 -2,3 C 89 % 1004,5 hPa 0,0 l/m 8,6 kts (3 Bft) W 265 0 min 0,0 UV-I 18 W/m -3,9 C -10,4 C 11,3 kts (4 Bft) 95,65 %
02.12.2023 13:28 -2,3 C 89 % 1004,4 hPa 0,0 l/m 8,0 kts (3 Bft) W-SW 253 0 min 0,0 UV-I 16 W/m -3,9 C -9,7 C 11,3 kts (4 Bft) 100,00 %
02.12.2023 13:27 -2,3 C 89 % 1004,4 hPa 0,0 l/m 8,1 kts (3 Bft) W-NW 298 0 min 0,0 UV-I 16 W/m -3,9 C -9,8 C 10,4 kts (3 Bft) 100,00 %
02.12.2023 13:26 -2,3 C 89 % 1004,4 hPa 0,0 l/m 7,9 kts (3 Bft) W-SW 250 0 min 0,0 UV-I 16 W/m -3,9 C -9,5 C 10,4 kts (3 Bft) 100,00 %
02.12.2023 13:25 -2,3 C 89 % 1004,4 hPa 0,0 l/m 11,8 kts (4 Bft) W-SW 252 0 min 0,0 UV-I 16 W/m -3,9 C -13,5 C 13,0 kts (4 Bft) 100,00 %
02.12.2023 13:24 -2,3 C 89 % 1004,5 hPa 0,0 l/m 9,7 kts (3 Bft) W 259 0 min 0,0 UV-I 16 W/m -3,9 C -11,5 C 12,1 kts (4 Bft) 100,00 %
02.12.2023 13:23 -2,2 C 89 % 1004,4 hPa 0,0 l/m 8,6 kts (3 Bft) W-SW 252 0 min 0,0 UV-I 18 W/m -3,8 C -10,3 C 10,4 kts (3 Bft) 100,00 %
02.12.2023 13:22 -2,2 C 89 % 1004,3 hPa 0,0 l/m 6,7 kts (3 Bft) W 261 0 min 0,0 UV-I 18 W/m -3,8 C -7,9 C 9,6 kts (3 Bft) 100,00 %
02.12.2023 13:21 -2,2 C 89 % 1004,2 hPa 0,0 l/m 8,0 kts (3 Bft) W-NW 287 0 min 0,0 UV-I 19 W/m -3,8 C -9,6 C 9,6 kts (3 Bft) 46,67 %
02.12.2023 13:20 -2,2 C 89 % 1004,2 hPa 0,0 l/m 8,5 kts (3 Bft) W-NW 286 0 min 0,0 UV-I 21 W/m -3,8 C -10,2 C 10,4 kts (3 Bft) 92,31 %
02.12.2023 13:19 -2,2 C 89 % 1004,2 hPa 0,0 l/m 9,6 kts (3 Bft) W-NW 300 0 min 0,0 UV-I 21 W/m -3,8 C -11,3 C 11,3 kts (4 Bft) 100,00 %
02.12.2023 13:18 -2,2 C 89 % 1004,2 hPa 0,0 l/m 10,0 kts (3 Bft) W-NW 296 0 min 0,0 UV-I 21 W/m -3,8 C -11,8 C 11,3 kts (4 Bft) 98,89 %
02.12.2023 13:17 -2,2 C 89 % 1004,1 hPa 0,0 l/m 9,8 kts (3 Bft) W-NW 286 0 min 0,0 UV-I 21 W/m -3,8 C -11,5 C 11,3 kts (4 Bft) 100,00 %
02.12.2023 13:16 -2,1 C 89 % 1004,1 hPa 0,0 l/m 10,7 kts (3 Bft) W-NW 300 0 min 0,0 UV-I 21 W/m -3,7 C -12,2 C 12,1 kts (4 Bft) 100,00 %
02.12.2023 13:15 -2,1 C 89 % 1004,1 hPa 0,0 l/m 9,7 kts (3 Bft) W 266 0 min 0,0 UV-I 21 W/m -3,7 C -11,3 C 13,0 kts (4 Bft) 100,00 %
02.12.2023 13:14 -2,1 C 89 % 1004,1 hPa 0,0 l/m 10,0 kts (3 Bft) W 275 0 min 0,0 UV-I 19 W/m -3,7 C -11,6 C 11,3 kts (4 Bft) 100,00 %
02.12.2023 13:13 -2,1 C 89 % 1004,1 hPa 0,0 l/m 9,8 kts (3 Bft) W-NW 290 0 min 0,0 UV-I 19 W/m -3,7 C -11,4 C 11,3 kts (4 Bft) 100,00 %
02.12.2023 13:12 -2,1 C 89 % 1004,0 hPa 0,0 l/m 9,3 kts (3 Bft) W-NW 286 0 min 0,0 UV-I 19 W/m -3,7 C -10,9 C 10,4 kts (3 Bft) 100,00 %
02.12.2023 13:11 -2,1 C 89 % 1004,0 hPa 0,0 l/m 8,8 kts (3 Bft) W-NW 290 0 min 0,0 UV-I 19 W/m -3,7 C -10,3 C 9,6 kts (3 Bft) 100,00 %
02.12.2023 13:10 -2,1 C 89 % 1004,0 hPa 0,0 l/m 10,9 kts (4 Bft) NW 309 0 min 0,0 UV-I 19 W/m -3,7 C -12,4 C 13,9 kts (4 Bft) 100,00 %
02.12.2023 13:09 -2,1 C 89 % 1004,0 hPa 0,0 l/m 8,5 kts (3 Bft) NW 306 0 min 0,0 UV-I 19 W/m -3,7 C -10,0 C 11,3 kts (4 Bft) 100,00 %
02.12.2023 13:08 -2,1 C 89 % 1003,9 hPa 0,0 l/m 8,7 kts (3 Bft) W-NW 288 0 min 0,0 UV-I 19 W/m -3,7 C -10,2 C 9,6 kts (3 Bft) 100,00 %
02.12.2023 13:07 -2,1 C 89 % 1003,9 hPa 0,0 l/m 8,7 kts (3 Bft) NW 321 0 min 0,0 UV-I 19 W/m -3,7 C -10,2 C 11,3 kts (4 Bft) 100,00 %
02.12.2023 13:06 -2,1 C 89 % 1003,9 hPa 0,0 l/m 7,8 kts (3 Bft) W 277 0 min 0,0 UV-I 19 W/m -3,7 C -9,2 C 8,7 kts (3 Bft) 100,00 %
02.12.2023 13:05 -2,0 C 89 % 1003,9 hPa 0,0 l/m 8,7 kts (3 Bft) W 276 0 min 0,0 UV-I 19 W/m -3,6 C -10,1 C 10,4 kts (3 Bft) 100,00 %
02.12.2023 13:04 -2,0 C 89 % 1003,9 hPa 0,0 l/m 5,8 kts (2 Bft) W-NW 296 0 min 0,0 UV-I 19 W/m -3,6 C -6,3 C 9,6 kts (3 Bft) 100,00 %
02.12.2023 13:03 -2,0 C 89 % 1003,8 hPa 0,0 l/m 7,7 kts (3 Bft) W-NW 300 0 min 0,0 UV-I 21 W/m -3,6 C -8,9 C 8,7 kts (3 Bft) 100,00 %
02.12.2023 13:02 -2,0 C 89 % 1003,8 hPa 0,0 l/m 8,3 kts (3 Bft) W-NW 295 0 min 0,0 UV-I 21 W/m -3,6 C -9,7 C 10,4 kts (3 Bft) 100,00 %
02.12.2023 13:01 -2,0 C 89 % 1003,8 hPa 0,0 l/m 5,9 kts (2 Bft) W 277 0 min 0,0 UV-I 21 W/m -3,6 C -6,4 C 8,7 kts (3 Bft) 100,00 %
02.12.2023 13:00 -2,0 C 90 % 1003,6 hPa 0,0 l/m 7,6 kts (3 Bft) W-NW 296 0 min 0,0 UV-I 21 W/m -3,4 C -8,7 C 10,4 kts (3 Bft) 100,00 %
02.12.2023 12:59 -2,0 C 90 % 1003,6 hPa 0,0 l/m 10,3 kts (3 Bft) W 263 0 min 0,0 UV-I 21 W/m -3,4 C -11,8 C 11,3 kts (4 Bft) 100,00 %
02.12.2023 12:58 -2,0 C 90 % 1003,5 hPa 0,0 l/m 9,1 kts (3 Bft) W 279 0 min 0,0 UV-I 21 W/m -3,4 C -10,5 C 11,3 kts (4 Bft) 100,00 %
02.12.2023 12:57 -1,9 C 90 % 1003,5 hPa 0,0 l/m 9,9 kts (3 Bft) W-NW 283 0 min 0,0 UV-I 21 W/m -3,3 C -11,2 C 11,3 kts (4 Bft) 100,00 %
02.12.2023 12:56 -1,9 C 90 % 1003,5 hPa 0,0 l/m 10,0 kts (3 Bft) W 261 0 min 0,0 UV-I 21 W/m -3,3 C -11,4 C 11,3 kts (4 Bft) 100,00 %
02.12.2023 12:55 -1,9 C 90 % 1003,5 hPa 0,0 l/m 10,7 kts (3 Bft) W 277 0 min 0,0 UV-I 23 W/m -3,3 C -12,0 C 12,1 kts (4 Bft) 100,00 %
02.12.2023 12:54 -2,0 C 90 % 1003,4 hPa 0,0 l/m 9,0 kts (3 Bft) W-SW 257 0 min 0,0 UV-I 23 W/m -3,4 C -10,4 C 10,4 kts (3 Bft) 100,00 %
02.12.2023 12:53 -1,9 C 90 % 1003,4 hPa 0,0 l/m 8,9 kts (3 Bft) W 267 0 min 0,0 UV-I 23 W/m -3,3 C -10,2 C 11,3 kts (4 Bft) 100,00 %
02.12.2023 12:52 -1,9 C 90 % 1003,3 hPa 0,0 l/m 7,8 kts (3 Bft) W 270 0 min 0,0 UV-I 23 W/m -3,3 C -9,0 C 10,4 kts (3 Bft) 100,00 %
02.12.2023 12:51 -1,9 C 90 % 1003,3 hPa 0,0 l/m 8,5 kts (3 Bft) W-SW 240 0 min 0,0 UV-I 25 W/m -3,3 C -9,8 C 10,4 kts (3 Bft) 100,00 %
02.12.2023 12:50 -1,9 C 90 % 1003,1 hPa 0,0 l/m 9,1 kts (3 Bft) W 271 0 min 0,0 UV-I 25 W/m -3,3 C -10,4 C 10,4 kts (3 Bft) 100,00 %
02.12.2023 12:49 -1,9 C 90 % 1003,0 hPa 0,0 l/m 7,9 kts (3 Bft) W 273 0 min 0,0 UV-I 25 W/m -3,3 C -9,0 C 9,6 kts (3 Bft) 100,00 %
02.12.2023 12:48 -1,9 C 90 % 1003,0 hPa 0,0 l/m 8,9 kts (3 Bft) W 281 0 min 0,0 UV-I 25 W/m -3,3 C -10,2 C 11,3 kts (4 Bft) 100,00 %
02.12.2023 12:47 -1,9 C 90 % 1003,0 hPa 0,0 l/m 7,4 kts (3 Bft) W-NW 283 0 min 0,0 UV-I 25 W/m -3,3 C -8,4 C 8,7 kts (3 Bft) 90,48 %
02.12.2023 12:46 -1,9 C 90 % 1003,0 hPa 0,0 l/m 6,7 kts (3 Bft) NW 309 0 min 0,0 UV-I 23 W/m -3,3 C -7,5 C 9,6 kts (3 Bft) 100,00 %
02.12.2023 12:45 -1,9 C 90 % 1002,9 hPa 0,0 l/m 7,6 kts (3 Bft) W-NW 300 0 min 0,0 UV-I 23 W/m -3,3 C -8,7 C 9,6 kts (3 Bft) 100,00 %
02.12.2023 12:44 -1,9 C 90 % 1003,0 hPa 0,0 l/m 7,5 kts (3 Bft) NW 309 0 min 0,0 UV-I 23 W/m -3,3 C -8,5 C 7,8 kts (3 Bft) 100,00 %
02.12.2023 12:43 -1,9 C 90 % 1003,0 hPa 0,0 l/m 6,6 kts (3 Bft) W-NW 282 0 min 0,0 UV-I 23 W/m -3,3 C -7,4 C 7,8 kts (3 Bft) 100,00 %
02.12.2023 12:42 -1,9 C 90 % 1003,0 hPa 0,0 l/m 7,7 kts (3 Bft) NW 309 0 min 0,0 UV-I 23 W/m -3,3 C -8,8 C 10,4 kts (3 Bft) 100,00 %
02.12.2023 12:40 -1,8 C 90 % 1003,0 hPa 0,0 l/m 6,6 kts (2 Bft) W-NW 302 0 min 0,0 UV-I 25 W/m -3,2 C -7,2 C 8,7 kts (3 Bft) 100,00 %
02.12.2023 12:39 -1,8 C 90 % 1003,0 hPa 0,0 l/m 7,6 kts (3 Bft) NW 304 0 min 0,0 UV-I 25 W/m -3,2 C -8,6 C 9,6 kts (3 Bft) 100,00 %
02.12.2023 12:38 -1,9 C 90 % 1002,9 hPa 0,0 l/m 8,5 kts (3 Bft) W-NW 297 0 min 0,0 UV-I 26 W/m -3,3 C -9,8 C 10,4 kts (3 Bft) 96,55 %
02.12.2023 12:37 -1,9 C 90 % 1002,8 hPa 0,0 l/m 10,2 kts (3 Bft) NW 315 0 min 0,0 UV-I 26 W/m -3,3 C -11,5 C 13,0 kts (4 Bft) 100,00 %
02.12.2023 12:36 -1,8 C 90 % 1002,8 hPa 0,0 l/m 8,7 kts (3 Bft) W-NW 286 0 min 0,0 UV-I 28 W/m -3,2 C -9,9 C 10,4 kts (3 Bft) 98,00 %
02.12.2023 12:35 -1,8 C 90 % 1002,6 hPa 0,0 l/m 9,2 kts (3 Bft) NW 310 0 min 0,0 UV-I 28 W/m -3,2 C -10,4 C 10,4 kts (3 Bft) 98,82 %
02.12.2023 12:34 -1,8 C 90 % 1002,6 hPa 0,0 l/m 8,7 kts (3 Bft) W-NW 294 0 min 0,0 UV-I 28 W/m -3,2 C -9,9 C 9,6 kts (3 Bft) 95,65 %
02.12.2023 12:33 -1,8 C 90 % 1002,6 hPa 0,0 l/m 9,5 kts (3 Bft) W-NW 298 0 min 0,0 UV-I 28 W/m -3,2 C -10,7 C 11,3 kts (4 Bft) 100,00 %
02.12.2023 12:32 -1,8 C 90 % 1002,6 hPa 0,0 l/m 8,1 kts (3 Bft) W-NW 287 0 min 0,0 UV-I 28 W/m -3,2 C -9,2 C 10,4 kts (3 Bft) 100,00 %
02.12.2023 12:31 -1,8 C 90 % 1002,6 hPa 0,0 l/m 8,4 kts (3 Bft) W-NW 298 0 min 0,0 UV-I 28 W/m -3,2 C -9,5 C 11,3 kts (4 Bft) 100,00 %
02.12.2023 12:30 -1,8 C 90 % 1002,6 hPa 0,0 l/m 10,0 kts (3 Bft) NW 319 0 min 0,0 UV-I 26 W/m -3,2 C -11,2 C 11,3 kts (4 Bft) 100,00 %
02.12.2023 12:29 -1,8 C 90 % 1002,6 hPa 0,0 l/m 7,9 kts (3 Bft) W-NW 290 0 min 0,0 UV-I 26 W/m -3,2 C -9,0 C 10,4 kts (3 Bft) 100,00 %
02.12.2023 12:28 -1,8 C 90 % 1002,7 hPa 0,0 l/m 7,9 kts (3 Bft) NW 309 0 min 0,0 UV-I 25 W/m -3,2 C -8,9 C 11,3 kts (4 Bft) 100,00 %
02.12.2023 12:27 -1,8 C 90 % 1002,7 hPa 0,0 l/m 7,4 kts (3 Bft) W-NW 298 0 min 0,0 UV-I 25 W/m -3,2 C -8,3 C 8,7 kts (3 Bft) 97,73 %
02.12.2023 12:26 -1,8 C 90 % 1002,6 hPa 0,0 l/m 8,5 kts (3 Bft) W-NW 294 0 min 0,0 UV-I 25 W/m -3,2 C -9,7 C 9,6 kts (3 Bft) 98,82 %
02.12.2023 12:25 -1,8 C 90 % 1002,6 hPa 0,0 l/m 7,8 kts (3 Bft) W 280 0 min 0,0 UV-I 25 W/m -3,2 C -8,8 C 10,4 kts (3 Bft) 100,00 %
02.12.2023 12:24 -1,8 C 90 % 1002,6 hPa 0,0 l/m 6,2 kts (2 Bft) NW 319 0 min 0,0 UV-I 25 W/m -3,2 C -6,6 C 9,6 kts (3 Bft) 100,00 %
02.12.2023 12:23 -1,8 C 90 % 1002,7 hPa 0,0 l/m 8,6 kts (3 Bft) W-NW 288 0 min 0,0 UV-I 25 W/m -3,2 C -9,8 C 11,3 kts (4 Bft) 100,00 %
02.12.2023 12:22 -1,8 C 90 % 1002,7 hPa 0,0 l/m 10,6 kts (3 Bft) NW 310 0 min 0,0 UV-I 25 W/m -3,2 C -11,8 C 12,1 kts (4 Bft) 100,00 %
02.12.2023 12:21 -1,7 C 90 % 1002,6 hPa 0,0 l/m 10,2 kts (3 Bft) W-NW 302 0 min 0,0 UV-I 25 W/m -3,1 C -11,3 C 13,0 kts (4 Bft) 100,00 %
02.12.2023 12:20 -1,8 C 90 % 1002,7 hPa 0,0 l/m 6,6 kts (3 Bft) W-NW 297 0 min 0,0 UV-I 25 W/m -3,2 C -7,3 C 8,7 kts (3 Bft) 100,00 %
02.12.2023 12:19 -1,8 C 90 % 1002,7 hPa 0,0 l/m 7,8 kts (3 Bft) W-NW 286 0 min 0,0 UV-I 25 W/m -3,2 C -8,8 C 9,6 kts (3 Bft) 98,80 %
02.12.2023 12:18 -1,8 C 90 % 1002,8 hPa 0,0 l/m 6,1 kts (2 Bft) NW 313 0 min 0,0 UV-I 26 W/m -3,2 C -6,5 C 7,0 kts (3 Bft) 100,00 %
02.12.2023 12:17 -1,8 C 90 % 1002,8 hPa 0,0 l/m 6,5 kts (2 Bft) W-NW 294 0 min 0,0 UV-I 26 W/m -3,2 C -7,1 C 7,8 kts (3 Bft) 100,00 %
02.12.2023 12:16 -1,8 C 90 % 1002,8 hPa 0,0 l/m 8,2 kts (3 Bft) W-NW 303 0 min 0,0 UV-I 26 W/m -3,2 C -9,2 C 9,6 kts (3 Bft) 100,00 %
02.12.2023 12:15 -1,8 C 90 % 1002,8 hPa 0,0 l/m 7,6 kts (3 Bft) W 279 0 min 0,0 UV-I 28 W/m -3,2 C -8,6 C 9,6 kts (3 Bft) 100,00 %
02.12.2023 12:14 -1,8 C 90 % 1002,8 hPa 0,0 l/m 8,0 kts (3 Bft) W-NW 299 0 min 0,0 UV-I 28 W/m -3,2 C -9,0 C 9,6 kts (3 Bft) 96,88 %
02.12.2023 12:13 -1,7 C 90 % 1002,9 hPa 0,0 l/m 7,0 kts (3 Bft) NW 304 0 min 0,0 UV-I 30 W/m -3,1 C -7,7 C 8,7 kts (3 Bft) 98,79 %
02.12.2023 12:12 -1,7 C 90 % 1002,9 hPa 0,0 l/m 8,2 kts (3 Bft) NW 319 0 min 0,0 UV-I 30 W/m -3,1 C -9,2 C 9,6 kts (3 Bft) 100,00 %
02.12.2023 12:11 -1,8 C 90 % 1002,8 hPa 0,0 l/m 7,3 kts (3 Bft) W-NW 294 0 min 0,0 UV-I 30 W/m -3,2 C -8,2 C 10,4 kts (3 Bft) 100,00 %
02.12.2023 12:10 -1,8 C 90 % 1002,9 hPa 0,0 l/m 8,2 kts (3 Bft) W-NW 288 0 min 0,0 UV-I 28 W/m -3,2 C -9,2 C 8,7 kts (3 Bft) 100,00 %
02.12.2023 12:09 -1,8 C 90 % 1002,9 hPa 0,0 l/m 8,4 kts (3 Bft) W-NW 302 0 min 0,0 UV-I 28 W/m -3,2 C -9,5 C 9,6 kts (3 Bft) 100,00 %
02.12.2023 12:08 -1,7 C 90 % 1002,8 hPa 0,0 l/m 7,5 kts (3 Bft) NW 307 0 min 0,0 UV-I 26 W/m -3,1 C -8,3 C 9,6 kts (3 Bft) 97,22 %
02.12.2023 12:07 -1,8 C 90 % 1002,8 hPa 0,0 l/m 9,8 kts (3 Bft) NW 309 0 min 0,0 UV-I 26 W/m -3,2 C -11,0 C 11,3 kts (4 Bft) 100,00 %
02.12.2023 12:06 -1,7 C 90 % 1002,8 hPa 0,0 l/m 7,7 kts (3 Bft) NW 311 0 min 0,0 UV-I 26 W/m -3,1 C -8,6 C 10,4 kts (3 Bft) 95,83 %
02.12.2023 12:05 -1,7 C 90 % 1002,8 hPa 0,0 l/m 9,5 kts (3 Bft) W-NW 294 0 min 0,0 UV-I 26 W/m -3,1 C -10,6 C 13,0 kts (4 Bft) 100,00 %
02.12.2023 12:04 -1,7 C 90 % 1002,9 hPa 0,0 l/m 9,2 kts (3 Bft) W-NW 296 0 min 0,0 UV-I 26 W/m -3,1 C -10,2 C 12,1 kts (4 Bft) 94,44 %
02.12.2023 12:03 -1,7 C 90 % 1002,9 hPa 0,0 l/m 11,1 kts (4 Bft) NW 316 0 min 0,0 UV-I 28 W/m -3,1 C -12,1 C 14,8 kts (4 Bft) 100,00 %
02.12.2023 12:02 -1,7 C 90 % 1002,8 hPa 0,0 l/m 9,9 kts (3 Bft) W-NW 300 0 min 0,0 UV-I 28 W/m -3,1 C -11,0 C 13,9 kts (4 Bft) 100,00 %
02.12.2023 12:01 -1,7 C 90 % 1002,8 hPa 0,0 l/m 10,1 kts (3 Bft) W-NW 296 0 min 0,0 UV-I 28 W/m -3,1 C -11,2 C 12,1 kts (4 Bft) 96,15 %
02.12.2023 12:00 -1,7 C 90 % 1002,8 hPa 0,0 l/m 9,9 kts (3 Bft) NW 313 0 min 0,0 UV-I 28 W/m -3,1 C -11,0 C 11,3 kts (4 Bft) 96,30 %
02.12.2023 11:59 -1,7 C 90 % 1002,7 hPa 0,0 l/m 8,3 kts (3 Bft) W-NW 302 0 min 0,0 UV-I 26 W/m -3,1 C -9,2 C 10,4 kts (3 Bft) 100,00 %
02.12.2023 11:58 -1,7 C 90 % 1002,7 hPa 0,0 l/m 10,4 kts (3 Bft) W-NW 292 0 min 0,0 UV-I 26 W/m -3,1 C -11,5 C 11,3 kts (4 Bft) 97,37 %
02.12.2023 11:57 -1,7 C 90 % 1002,7 hPa 0,0 l/m 9,0 kts (3 Bft) W-NW 303 0 min 0,0 UV-I 25 W/m -3,1 C -10,1 C 10,4 kts (3 Bft) 98,81 %
02.12.2023 11:56 -1,7 C 90 % 1002,8 hPa 0,0 l/m 10,7 kts (3 Bft) NW 307 0 min 0,0 UV-I 25 W/m -3,1 C -11,7 C 13,9 kts (4 Bft) 95,83 %
02.12.2023 11:55 -1,7 C 90 % 1002,8 hPa 0,0 l/m 8,9 kts (3 Bft) W-NW 300 0 min 0,0 UV-I 25 W/m -3,1 C -9,9 C 11,3 kts (4 Bft) 96,88 %
02.12.2023 11:54 -1,7 C 90 % 1002,8 hPa 0,0 l/m 10,0 kts (3 Bft) N-NW 333 0 min 0,0 UV-I 23 W/m -3,1 C -11,1 C 12,1 kts (4 Bft) 100,00 %
02.12.2023 11:53 -1,7 C 90 % 1002,8 hPa 0,0 l/m 9,9 kts (3 Bft) W-NW 302 0 min 0,0 UV-I 23 W/m -3,1 C -11,0 C 11,3 kts (4 Bft) 96,15 %
02.12.2023 11:52 -1,7 C 90 % 1002,8 hPa 0,0 l/m 10,0 kts (3 Bft) NW 319 0 min 0,0 UV-I 23 W/m -3,1 C -11,1 C 12,1 kts (4 Bft) 96,67 %
02.12.2023 11:51 -1,7 C 90 % 1002,8 hPa 0,0 l/m 9,4 kts (3 Bft) NW 325 0 min 0,0 UV-I 23 W/m -3,1 C -10,5 C 11,3 kts (4 Bft) 100,00 %
02.12.2023 11:50 -1,7 C 90 % 1002,8 hPa 0,0 l/m 8,1 kts (3 Bft) NW 324 0 min 0,0 UV-I 25 W/m -3,1 C -9,0 C 9,6 kts (3 Bft) 100,00 %
02.12.2023 11:49 -1,7 C 90 % 1002,8 hPa 0,0 l/m 9,3 kts (3 Bft) N 350 0 min 0,0 UV-I 25 W/m -3,1 C -10,4 C 11,3 kts (4 Bft) 96,15 %
02.12.2023 11:48 -1,7 C 90 % 1002,9 hPa 0,0 l/m 7,2 kts (3 Bft) NW 306 0 min 0,0 UV-I 25 W/m -3,1 C -7,9 C 9,6 kts (3 Bft) 100,00 %
02.12.2023 11:47 -1,7 C 90 % 1002,9 hPa 0,0 l/m 8,0 kts (3 Bft) NW 313 0 min 0,0 UV-I 25 W/m -3,1 C -9,0 C 9,6 kts (3 Bft) 95,65 %
02.12.2023 11:46 -1,7 C 90 % 1002,9 hPa 0,0 l/m 8,5 kts (3 Bft) NW 318 0 min 0,0 UV-I 25 W/m -3,1 C -9,5 C 9,6 kts (3 Bft) 100,00 %
02.12.2023 11:45 -1,7 C 90 % 1003,0 hPa 0,0 l/m 9,1 kts (3 Bft) W-NW 299 0 min 0,0 UV-I 25 W/m -3,1 C -10,2 C 11,3 kts (4 Bft) 96,15 %
02.12.2023 11:44 -1,7 C 90 % 1003,0 hPa 0,0 l/m 10,6 kts (3 Bft) W-NW 290 0 min 0,0 UV-I 25 W/m -3,1 C -11,6 C 13,0 kts (4 Bft) 95,65 %
02.12.2023 11:43 -1,6 C 90 % 1002,9 hPa 0,0 l/m 8,8 kts (3 Bft) NW 307 0 min 0,0 UV-I 25 W/m -3,0 C -9,7 C 10,4 kts (3 Bft) 93,33 %
02.12.2023 11:42 -1,6 C 90 % 1003,0 hPa 0,0 l/m 8,7 kts (3 Bft) NW 304 0 min 0,0 UV-I 25 W/m -3,0 C -9,6 C 9,6 kts (3 Bft) 100,00 %
02.12.2023 11:41 -1,6 C 90 % 1003,0 hPa 0,0 l/m 8,3 kts (3 Bft) NW 304 0 min 0,0 UV-I 26 W/m -3,0 C -9,1 C 9,6 kts (3 Bft) 91,67 %
02.12.2023 11:40 -1,6 C 90 % 1003,0 hPa 0,0 l/m 9,9 kts (3 Bft) NW 309 0 min 0,0 UV-I 26 W/m -3,0 C -10,8 C 11,3 kts (4 Bft) 100,00 %
02.12.2023 11:39 -1,6 C 90 % 1003,0 hPa 0,0 l/m 10,0 kts (3 Bft) W-NW 297 0 min 0,0 UV-I 28 W/m -3,0 C -10,9 C 11,3 kts (4 Bft) 95,83 %
02.12.2023 11:38 -1,6 C 90 % 1003,0 hPa 0,0 l/m 10,3 kts (3 Bft) NW 323 0 min 0,0 UV-I 28 W/m -3,0 C -11,2 C 13,0 kts (4 Bft) 100,00 %
02.12.2023 11:37 -1,6 C 90 % 1003,0 hPa 0,0 l/m 9,6 kts (3 Bft) W-NW 298 0 min 0,0 UV-I 28 W/m -3,0 C -10,5 C 11,3 kts (4 Bft) 96,30 %
02.12.2023 11:36 -1,6 C 90 % 1002,9 hPa 0,0 l/m 9,9 kts (3 Bft) NW 322 0 min 0,0 UV-I 28 W/m -3,0 C -10,8 C 12,1 kts (4 Bft) 96,15 %
02.12.2023 11:35 -1,6 C 90 % 1002,9 hPa 0,0 l/m 7,6 kts (3 Bft) NW 313 0 min 0,0 UV-I 28 W/m -3,0 C -8,3 C 8,7 kts (3 Bft) 91,67 %
02.12.2023 11:34 -1,6 C 90 % 1002,9 hPa 0,0 l/m 7,3 kts (3 Bft) NW 306 0 min 0,0 UV-I 30 W/m -3,0 C -7,9 C 8,7 kts (3 Bft) 100,00 %
02.12.2023 11:33 -1,6 C 90 % 1002,8 hPa 0,0 l/m 8,0 kts (3 Bft) NW 325 0 min 0,0 UV-I 30 W/m -3,0 C -8,8 C 9,6 kts (3 Bft) 96,30 %
02.12.2023 11:32 -1,6 C 90 % 1002,8 hPa 0,0 l/m 7,9 kts (3 Bft) NW 315 0 min 0,0 UV-I 30 W/m -3,0 C -8,7 C 9,6 kts (3 Bft) 100,00 %
02.12.2023 11:31 -1,6 C 90 % 1002,8 hPa 0,0 l/m 7,0 kts (3 Bft) NW 325 0 min 0,0 UV-I 30 W/m -3,0 C -7,6 C 8,7 kts (3 Bft) 95,83 %
02.12.2023 11:30 -1,6 C 90 % 1002,9 hPa 0,0 l/m 7,8 kts (3 Bft) N-NW 329 0 min 0,0 UV-I 30 W/m -3,0 C -8,6 C 10,4 kts (3 Bft) 100,00 %
02.12.2023 11:29 -1,6 C 90 % 1002,9 hPa 0,0 l/m 9,2 kts (3 Bft) N-NW 332 0 min 0,0 UV-I 32 W/m -3,0 C -10,1 C 10,4 kts (3 Bft) 96,97 %
02.12.2023 11:28 -1,6 C 90 % 1002,9 hPa 0,0 l/m 10,3 kts (3 Bft) NW 306 0 min 0,0 UV-I 32 W/m -3,0 C -11,2 C 11,3 kts (4 Bft) 100,00 %
02.12.2023 11:27 -1,6 C 90 % 1002,9 hPa 0,0 l/m 9,6 kts (3 Bft) NW 311 0 min 0,0 UV-I 32 W/m -3,0 C -10,6 C 12,1 kts (4 Bft) 96,67 %
02.12.2023 11:26 -1,6 C 90 % 1002,9 hPa 0,0 l/m 6,8 kts (3 Bft) N-NW 340 0 min 0,0 UV-I 32 W/m -3,0 C -7,3 C 8,7 kts (3 Bft) 90,91 %
02.12.2023 11:25 -1,6 C 90 % 1002,8 hPa 0,0 l/m 8,0 kts (3 Bft) NW 315 0 min 0,0 UV-I 32 W/m -3,0 C -8,9 C 9,6 kts (3 Bft) 95,83 %
02.12.2023 11:24 -1,6 C 90 % 1002,9 hPa 0,0 l/m 8,7 kts (3 Bft) N-NW 339 0 min 0,0 UV-I 33 W/m -3,0 C -9,7 C 11,3 kts (4 Bft) 91,30 %
02.12.2023 11:23 -1,6 C 91 % 1002,9 hPa 0,0 l/m 7,5 kts (3 Bft) N-NW 327 0 min 0,0 UV-I 33 W/m -2,9 C -8,1 C 8,7 kts (3 Bft) 96,97 %
02.12.2023 11:22 -1,6 C 91 % 1002,8 hPa 0,0 l/m 8,3 kts (3 Bft) NW 312 0 min 0,0 UV-I 33 W/m -2,9 C -9,1 C 11,3 kts (4 Bft) 100,00 %
02.12.2023 11:21 -1,6 C 91 % 1002,8 hPa 0,0 l/m 9,7 kts (3 Bft) NW 307 0 min 0,0 UV-I 35 W/m -2,9 C -10,7 C 12,1 kts (4 Bft) 93,94 %
02.12.2023 11:20 -1,6 C 91 % 1002,8 hPa 0,0 l/m 9,2 kts (3 Bft) N-NW 338 0 min 0,0 UV-I 35 W/m -2,9 C -10,1 C 10,4 kts (3 Bft) 100,00 %
02.12.2023 11:19 -1,6 C 91 % 1002,7 hPa 0,0 l/m 10,6 kts (3 Bft) NW 319 0 min 0,0 UV-I 37 W/m -2,9 C -11,5 C 12,1 kts (4 Bft) 100,00 %
02.12.2023 11:18 -1,6 C 91 % 1002,7 hPa 0,0 l/m 10,0 kts (3 Bft) NW 313 0 min 0,0 UV-I 37 W/m -2,9 C -10,9 C 12,1 kts (4 Bft) 96,15 %
02.12.2023 11:17 -1,6 C 91 % 1002,9 hPa 0,0 l/m 10,2 kts (3 Bft) N-NW 340 0 min 0,0 UV-I 37 W/m -2,9 C -11,1 C 11,3 kts (4 Bft) 100,00 %
02.12.2023 11:16 -1,6 C 91 % 1002,9 hPa 0,0 l/m 8,9 kts (3 Bft) N 349 0 min 0,0 UV-I 37 W/m -2,9 C -9,8 C 10,4 kts (3 Bft) 96,15 %
02.12.2023 11:15 -1,6 C 91 % 1002,9 hPa 0,0 l/m 10,0 kts (3 Bft) NW 309 0 min 0,0 UV-I 37 W/m -2,9 C -10,9 C 11,3 kts (4 Bft) 95,83 %
02.12.2023 11:14 -1,6 C 90 % 1002,9 hPa 0,0 l/m 10,3 kts (3 Bft) NW 323 0 min 0,0 UV-I 37 W/m -3,0 C -11,2 C 11,3 kts (4 Bft) 100,00 %
02.12.2023 11:13 -1,6 C 91 % 1003,0 hPa 0,0 l/m 9,0 kts (3 Bft) NW 306 0 min 0,0 UV-I 37 W/m -2,9 C -9,9 C 11,3 kts (4 Bft) 94,44 %
02.12.2023 11:12 -1,6 C 91 % 1003,0 hPa 0,0 l/m 8,3 kts (3 Bft) NW 317 0 min 0,0 UV-I 37 W/m -2,9 C -9,2 C 10,4 kts (3 Bft) 100,00 %
02.12.2023 11:11 -1,6 C 91 % 1003,0 hPa 0,0 l/m 9,0 kts (3 Bft) N-NW 337 0 min 0,0 UV-I 35 W/m -2,9 C -9,9 C 10,4 kts (3 Bft) 95,83 %
02.12.2023 11:10 -1,6 C 91 % 1003,1 hPa 0,0 l/m 10,2 kts (3 Bft) NW 325 0 min 0,0 UV-I 35 W/m -2,9 C -11,1 C 12,1 kts (4 Bft) 100,00 %
02.12.2023 11:09 -1,6 C 91 % 1003,1 hPa 0,0 l/m 6,2 kts (2 Bft) NW 321 0 min 0,0 UV-I 33 W/m -2,9 C -6,5 C 8,7 kts (3 Bft) 100,00 %
02.12.2023 11:08 -1,6 C 91 % 1003,1 hPa 0,0 l/m 8,2 kts (3 Bft) N-NW 338 0 min 0,0 UV-I 33 W/m -2,9 C -9,0 C 10,4 kts (3 Bft) 96,67 %
02.12.2023 11:07 -1,6 C 90 % 1003,2 hPa 0,0 l/m 7,3 kts (3 Bft) NW 305 0 min 0,0 UV-I 33 W/m -3,0 C -8,0 C 9,6 kts (3 Bft) 100,00 %
02.12.2023 11:06 -1,6 C 90 % 1003,2 hPa 0,0 l/m 8,0 kts (3 Bft) NW 317 0 min 0,0 UV-I 33 W/m -3,0 C -8,8 C 9,6 kts (3 Bft) 92,31 %
02.12.2023 11:05 -1,6 C 90 % 1003,2 hPa 0,0 l/m 8,5 kts (3 Bft) NW 313 0 min 0,0 UV-I 33 W/m -3,0 C -9,4 C 9,6 kts (3 Bft) 100,00 %
02.12.2023 11:04 -1,6 C 91 % 1003,1 hPa 0,0 l/m 9,1 kts (3 Bft) N-NW 327 0 min 0,0 UV-I 32 W/m -2,9 C -10,0 C 9,6 kts (3 Bft) 95,00 %
02.12.2023 11:03 -1,6 C 90 % 1003,2 hPa 0,0 l/m 9,6 kts (3 Bft) W-NW 296 0 min 0,0 UV-I 32 W/m -3,0 C -10,6 C 12,1 kts (4 Bft) 100,00 %
02.12.2023 11:02 -1,6 C 90 % 1003,2 hPa 0,0 l/m 8,6 kts (3 Bft) W-NW 286 0 min 0,0 UV-I 32 W/m -3,0 C -9,5 C 10,4 kts (3 Bft) 93,10 %
02.12.2023 11:01 -1,6 C 90 % 1003,3 hPa 0,0 l/m 8,0 kts (3 Bft) NW 320 0 min 0,0 UV-I 30 W/m -3,0 C -8,9 C 8,7 kts (3 Bft) 100,00 %
02.12.2023 11:00 -1,6 C 90 % 1003,3 hPa 0,0 l/m 8,3 kts (3 Bft) W-NW 301 0 min 0,0 UV-I 28 W/m -3,0 C -9,1 C 9,6 kts (3 Bft) 100,00 %
02.12.2023 10:59 -1,6 C 90 % 1003,3 hPa 0,0 l/m 9,0 kts (3 Bft) W-NW 298 0 min 0,0 UV-I 28 W/m -3,0 C -9,9 C 11,3 kts (4 Bft) 100,00 %
02.12.2023 10:58 -1,7 C 90 % 1003,3 hPa 0,0 l/m 10,4 kts (3 Bft) NW 308 0 min 0,0 UV-I 26 W/m -3,1 C -11,4 C 11,3 kts (4 Bft) 90,91 %
02.12.2023 10:57 -1,6 C 90 % 1003,3 hPa 0,0 l/m 10,8 kts (4 Bft) NW 311 0 min 0,0 UV-I 28 W/m -3,0 C -11,7 C 11,3 kts (4 Bft) 100,00 %
02.12.2023 10:56 -1,7 C 91 % 1003,1 hPa 0,0 l/m 7,7 kts (3 Bft) W-NW 298 0 min 0,0 UV-I 28 W/m -3,0 C -8,5 C 10,4 kts (3 Bft) 100,00 %
02.12.2023 10:55 -1,7 C 91 % 1003,1 hPa 0,0 l/m 9,9 kts (3 Bft) N-NW 331 0 min 0,0 UV-I 28 W/m -3,0 C -11,0 C 11,3 kts (4 Bft) 100,00 %
02.12.2023 10:54 -1,7 C 91 % 1003,0 hPa 0,0 l/m 9,1 kts (3 Bft) NW 321 0 min 0,0 UV-I 30 W/m -3,0 C -10,1 C 11,3 kts (4 Bft) 91,30 %
02.12.2023 10:53 -1,7 C 90 % 1003,0 hPa 0,0 l/m 9,3 kts (3 Bft) NW 317 0 min 0,0 UV-I 30 W/m -3,1 C -10,4 C 11,3 kts (4 Bft) 95,83 %
02.12.2023 10:52 -1,7 C 90 % 1002,9 hPa 0,0 l/m 8,1 kts (3 Bft) NW 321 0 min 0,0 UV-I 30 W/m -3,1 C -9,0 C 9,6 kts (3 Bft) 95,65 %
02.12.2023 10:51 -1,7 C 91 % 1002,9 hPa 0,0 l/m 8,4 kts (3 Bft) NW 317 0 min 0,0 UV-I 30 W/m -3,0 C -9,4 C 9,6 kts (3 Bft) 100,00 %
02.12.2023 10:50 -1,7 C 91 % 1003,0 hPa 0,0 l/m 10,0 kts (3 Bft) NW 325 0 min 0,0 UV-I 30 W/m -3,0 C -11,1 C 11,3 kts (4 Bft) 92,86 %
02.12.2023 10:49 -1,7 C 91 % 1003,0 hPa 0,0 l/m 10,5 kts (3 Bft) N-NW 328 0 min 0,0 UV-I 30 W/m -3,0 C -11,5 C 12,1 kts (4 Bft) 100,00 %
02.12.2023 10:48 -1,7 C 91 % 1003,1 hPa 0,0 l/m 9,8 kts (3 Bft) NW 323 0 min 0,0 UV-I 30 W/m -3,0 C -10,9 C 13,0 kts (4 Bft) 96,15 %
02.12.2023 10:47 -1,7 C 91 % 1003,1 hPa 0,0 l/m 7,9 kts (3 Bft) N-NW 335 0 min 0,0 UV-I 30 W/m -3,0 C -8,8 C 10,4 kts (3 Bft) 100,00 %
02.12.2023 10:46 -1,7 C 91 % 1003,1 hPa 0,0 l/m 9,3 kts (3 Bft) N-NW 329 0 min 0,0 UV-I 28 W/m -3,0 C -10,4 C 11,3 kts (4 Bft) 96,77 %
02.12.2023 10:45 -1,7 C 91 % 1003,1 hPa 0,0 l/m 9,1 kts (3 Bft) NW 325 0 min 0,0 UV-I 28 W/m -3,0 C -10,2 C 11,3 kts (4 Bft) 100,00 %
02.12.2023 10:44 -1,7 C 91 % 1003,1 hPa 0,0 l/m 11,3 kts (4 Bft) NW 317 0 min 0,0 UV-I 28 W/m -3,0 C -12,3 C 13,9 kts (4 Bft) 95,65 %
02.12.2023 10:43 -1,7 C 91 % 1003,1 hPa 0,0 l/m 9,4 kts (3 Bft) NW 314 0 min 0,0 UV-I 28 W/m -3,0 C -10,5 C 10,4 kts (3 Bft) 100,00 %
02.12.2023 10:42 -1,7 C 91 % 1003,0 hPa 0,0 l/m 10,4 kts (3 Bft) NW 316 0 min 0,0 UV-I 28 W/m -3,0 C -11,4 C 12,1 kts (4 Bft) 97,22 %
02.12.2023 10:41 -1,7 C 91 % 1003,0 hPa 0,0 l/m 8,9 kts (3 Bft) NW 311 0 min 0,0 UV-I 28 W/m -3,0 C -10,0 C 10,4 kts (3 Bft) 100,00 %
02.12.2023 10:40 -1,7 C 91 % 1003,1 hPa 0,0 l/m 8,9 kts (3 Bft) NW 321 0 min 0,0 UV-I 28 W/m -3,0 C -9,9 C 11,3 kts (4 Bft) 100,00 %
02.12.2023 10:39 -1,7 C 91 % 1003,0 hPa 0,0 l/m 8,4 kts (3 Bft) NW 304 0 min 0,0 UV-I 28 W/m -3,0 C -9,4 C 10,4 kts (3 Bft) 100,00 %
02.12.2023 10:38 -1,7 C 91 % 1003,0 hPa 0,0 l/m 7,7 kts (3 Bft) NW 316 0 min 0,0 UV-I 28 W/m -3,0 C -8,5 C 9,6 kts (3 Bft) 100,00 %
02.12.2023 10:37 -1,7 C 91 % 1003,0 hPa 0,0 l/m 6,4 kts (2 Bft) N-NW 329 0 min 0,0 UV-I 32 W/m -3,0 C -6,8 C 8,7 kts (3 Bft) 100,00 %
02.12.2023 10:36 -1,7 C 91 % 1003,0 hPa 0,0 l/m 8,3 kts (3 Bft) NW 309 0 min 0,0 UV-I 32 W/m -3,0 C -9,2 C 9,6 kts (3 Bft) 100,00 %
02.12.2023 10:35 -1,7 C 91 % 1003,0 hPa 0,0 l/m 8,5 kts (3 Bft) N-NW 329 0 min 0,0 UV-I 32 W/m -3,0 C -9,5 C 9,6 kts (3 Bft) 97,87 %
02.12.2023 10:34 -1,7 C 91 % 1002,9 hPa 0,0 l/m 7,1 kts (3 Bft) N-NW 328 0 min 0,0 UV-I 32 W/m -3,0 C -7,8 C 8,7 kts (3 Bft) 99,12 %
02.12.2023 10:33 -1,7 C 91 % 1002,9 hPa 0,0 l/m 10,3 kts (3 Bft) N-NW 335 0 min 0,0 UV-I 32 W/m -3,0 C -11,3 C 11,3 kts (4 Bft) 100,00 %
02.12.2023 10:32 -1,7 C 91 % 1002,8 hPa 0,0 l/m 9,7 kts (3 Bft) N-NW 334 0 min 0,0 UV-I 33 W/m -3,0 C -10,8 C 12,1 kts (4 Bft) 100,00 %
02.12.2023 10:31 -1,7 C 91 % 1002,9 hPa 0,0 l/m 11,0 kts (4 Bft) NW 319 0 min 0,0 UV-I 33 W/m -3,0 C -12,0 C 13,0 kts (4 Bft) 100,00 %
02.12.2023 10:30 -1,7 C 91 % 1002,9 hPa 0,0 l/m 10,2 kts (3 Bft) NW 325 0 min 0,0 UV-I 33 W/m -3,0 C -11,3 C 12,1 kts (4 Bft) 99,11 %
02.12.2023 10:29 -1,7 C 91 % 1002,9 hPa 0,0 l/m 9,4 kts (3 Bft) N-NW 336 0 min 0,0 UV-I 32 W/m -3,0 C -10,5 C 10,4 kts (3 Bft) 93,75 %
02.12.2023 10:28 -1,7 C 91 % 1002,9 hPa 0,0 l/m 9,6 kts (3 Bft) NW 319 0 min 0,0 UV-I 32 W/m -3,0 C -10,6 C 11,3 kts (4 Bft) 100,00 %
02.12.2023 10:27 -1,7 C 91 % 1002,9 hPa 0,0 l/m 11,0 kts (4 Bft) NW 324 0 min 0,0 UV-I 32 W/m -3,0 C -12,0 C 13,0 kts (4 Bft) 100,00 %
02.12.2023 10:26 -1,7 C 91 % 1003,1 hPa 0,0 l/m 9,1 kts (3 Bft) N-NW 336 0 min 0,0 UV-I 30 W/m -3,0 C -10,1 C 12,1 kts (4 Bft) 96,30 %
02.12.2023 10:25 -1,7 C 91 % 1003,0 hPa 0,0 l/m 9,7 kts (3 Bft) N-NW 335 0 min 0,0 UV-I 28 W/m -3,0 C -10,7 C 11,3 kts (4 Bft) 100,00 %
02.12.2023 10:24 -1,7 C 91 % 1003,2 hPa 0,0 l/m 10,3 kts (3 Bft) NW 326 0 min 0,0 UV-I 26 W/m -3,0 C -11,4 C 12,1 kts (4 Bft) 100,00 %
02.12.2023 10:23 -1,7 C 91 % 1003,2 hPa 0,0 l/m 9,3 kts (3 Bft) NW 321 0 min 0,0 UV-I 26 W/m -3,0 C -10,4 C 10,4 kts (3 Bft) 100,00 %
02.12.2023 10:22 -1,7 C 91 % 1003,2 hPa 0,0 l/m 9,4 kts (3 Bft) NW 304 0 min 0,0 UV-I 26 W/m -3,0 C -10,5 C 11,3 kts (4 Bft) 100,00 %
02.12.2023 10:21 -1,7 C 91 % 1003,3 hPa 0,0 l/m 9,2 kts (3 Bft) NW 324 0 min 0,0 UV-I 26 W/m -3,0 C -10,3 C 10,4 kts (3 Bft) 100,00 %
02.12.2023 10:20 -1,7 C 91 % 1003,2 hPa 0,0 l/m 7,9 kts (3 Bft) N-NW 327 0 min 0,0 UV-I 26 W/m -3,0 C -8,8 C 10,4 kts (3 Bft) 100,00 %
02.12.2023 10:19 -1,7 C 91 % 1003,2 hPa 0,0 l/m 7,9 kts (3 Bft) N-NW 336 0 min 0,0 UV-I 26 W/m -3,0 C -8,8 C 9,6 kts (3 Bft) 100,00 %
02.12.2023 10:18 -1,7 C 91 % 1003,3 hPa 0,0 l/m 9,6 kts (3 Bft) NW 324 0 min 0,0 UV-I 26 W/m -3,0 C -10,7 C 10,4 kts (3 Bft) 96,55 %
02.12.2023 10:17 -1,7 C 91 % 1003,3 hPa 0,0 l/m 9,1 kts (3 Bft) NW 318 0 min 0,0 UV-I 26 W/m -3,0 C -10,2 C 11,3 kts (4 Bft) 100,00 %
02.12.2023 10:16 -1,7 C 91 % 1003,4 hPa 0,0 l/m 8,6 kts (3 Bft) N-NW 335 0 min 0,0 UV-I 25 W/m -3,0 C -9,7 C 10,4 kts (3 Bft) 100,00 %
02.12.2023 10:15 -1,7 C 91 % 1003,3 hPa 0,0 l/m 8,4 kts (3 Bft) NW 315 0 min 0,0 UV-I 25 W/m -3,0 C -9,4 C 10,4 kts (3 Bft) 100,00 %
02.12.2023 10:14 -1,7 C 91 % 1003,3 hPa 0,0 l/m 7,0 kts (3 Bft) NW 317 0 min 0,0 UV-I 23 W/m -3,0 C -7,6 C 8,7 kts (3 Bft) 100,00 %
02.12.2023 10:13 -1,7 C 91 % 1003,3 hPa 0,0 l/m 6,9 kts (3 Bft) N-NW 335 0 min 0,0 UV-I 21 W/m -3,0 C -7,5 C 8,7 kts (3 Bft) 100,00 %
02.12.2023 10:12 -1,7 C 91 % 1003,4 hPa 0,0 l/m 6,7 kts (3 Bft) NW 317 0 min 0,0 UV-I 21 W/m -3,0 C -7,3 C 8,7 kts (3 Bft) 100,00 %
02.12.2023 10:11 -1,7 C 91 % 1003,3 hPa 0,0 l/m 8,4 kts (3 Bft) N-NW 333 0 min 0,0 UV-I 23 W/m -3,0 C -9,4 C 10,4 kts (3 Bft) 100,00 %
02.12.2023 10:10 -1,7 C 91 % 1003,3 hPa 0,0 l/m 7,6 kts (3 Bft) NW 315 0 min 0,0 UV-I 23 W/m -3,0 C -8,4 C 8,7 kts (3 Bft) 95,83 %
02.12.2023 10:09 -1,7 C 91 % 1003,2 hPa 0,0 l/m 7,5 kts (3 Bft) W-NW 299 0 min 0,0 UV-I 25 W/m -3,0 C -8,3 C 10,4 kts (3 Bft) 100,00 %
02.12.2023 10:08 -1,7 C 91 % 1003,1 hPa 0,0 l/m 7,1 kts (3 Bft) NW 317 0 min 0,0 UV-I 25 W/m -3,0 C -7,8 C 7,8 kts (3 Bft) 100,00 %
02.12.2023 10:07 -1,7 C 91 % 1003,1 hPa 0,0 l/m 7,2 kts (3 Bft) NW 309 0 min 0,0 UV-I 26 W/m -3,0 C -7,9 C 9,6 kts (3 Bft) 100,00 %
02.12.2023 10:06 -1,7 C 91 % 1003,1 hPa 0,0 l/m 7,3 kts (3 Bft) NW 323 0 min 0,0 UV-I 26 W/m -3,0 C -8,0 C 10,4 kts (3 Bft) 95,65 %
02.12.2023 10:05 -1,7 C 91 % 1003,0 hPa 0,0 l/m 7,7 kts (3 Bft) NW 323 0 min 0,0 UV-I 26 W/m -3,0 C -8,6 C 9,6 kts (3 Bft) 100,00 %
02.12.2023 10:04 -1,7 C 91 % 1003,1 hPa 0,0 l/m 8,8 kts (3 Bft) N-NW 339 0 min 0,0 UV-I 26 W/m -3,0 C -9,8 C 11,3 kts (4 Bft) 96,15 %
02.12.2023 10:03 -1,7 C 91 % 1003,1 hPa 0,0 l/m 8,3 kts (3 Bft) NW 318 0 min 0,0 UV-I 26 W/m -3,0 C -9,2 C 10,4 kts (3 Bft) 100,00 %
02.12.2023 10:02 -1,7 C 91 % 1003,1 hPa 0,0 l/m 8,3 kts (3 Bft) N-NW 334 0 min 0,0 UV-I 26 W/m -3,0 C -9,2 C 12,1 kts (4 Bft) 100,00 %
02.12.2023 10:01 -1,7 C 91 % 1003,2 hPa 0,0 l/m 7,6 kts (3 Bft) NW 311 0 min 0,0 UV-I 26 W/m -3,0 C -8,5 C 9,6 kts (3 Bft) 100,00 %
02.12.2023 10:00 -1,7 C 91 % 1003,2 hPa 0,0 l/m 7,2 kts (3 Bft) NW 305 0 min 0,0 UV-I 26 W/m -3,0 C -7,9 C 10,4 kts (3 Bft) 100,00 %
02.12.2023 09:59 -1,7 C 91 % 1003,3 hPa 0,0 l/m 5,2 kts (2 Bft) NW 313 0 min 0,0 UV-I 28 W/m -3,0 C -5,0 C 7,8 kts (3 Bft) 100,00 %
02.12.2023 09:58 -1,7 C 91 % 1003,3 hPa 0,0 l/m 6,7 kts (3 Bft) NW 318 0 min 0,0 UV-I 28 W/m -3,0 C -7,3 C 7,8 kts (3 Bft) 100,00 %
02.12.2023 09:57 -1,7 C 91 % 1003,4 hPa 0,0 l/m 5,2 kts (2 Bft) W-NW 290 0 min 0,0 UV-I 30 W/m -3,0 C -5,1 C 7,0 kts (3 Bft) 100,00 %
02.12.2023 09:56 -1,8 C 91 % 1003,3 hPa 0,0 l/m 5,5 kts (2 Bft) NW 323 0 min 0,0 UV-I 32 W/m -3,1 C -5,5 C 8,7 kts (3 Bft) 100,00 %
02.12.2023 09:55 -1,7 C 91 % 1003,3 hPa 0,0 l/m 8,4 kts (3 Bft) NW 323 0 min 0,0 UV-I 32 W/m -3,0 C -9,4 C 11,3 kts (4 Bft) 97,73 %
02.12.2023 09:54 -1,7 C 91 % 1003,3 hPa 0,0 l/m 6,6 kts (3 Bft) N-NW 340 0 min 0,0 UV-I 30 W/m -3,0 C -7,2 C 8,7 kts (3 Bft) 100,00 %
02.12.2023 09:53 -1,8 C 91 % 1003,3 hPa 0,0 l/m 6,0 kts (2 Bft) NW 308 0 min 0,0 UV-I 30 W/m -3,1 C -6,4 C 7,8 kts (3 Bft) 100,00 %
02.12.2023 09:52 -1,8 C 91 % 1003,3 hPa 0,0 l/m 9,0 kts (3 Bft) W-NW 302 0 min 0,0 UV-I 26 W/m -3,1 C -10,1 C 11,3 kts (4 Bft) 100,00 %
02.12.2023 09:51 -1,8 C 91 % 1003,6 hPa 0,0 l/m 7,5 kts (3 Bft) NW 309 0 min 0,0 UV-I 25 W/m -3,1 C -8,4 C 9,6 kts (3 Bft) 100,00 %
02.12.2023 09:50 -1,8 C 91 % 1003,6 hPa 0,0 l/m 8,5 kts (3 Bft) NW 321 0 min 0,0 UV-I 21 W/m -3,1 C -9,7 C 9,6 kts (3 Bft) 100,00 %
02.12.2023 09:49 -1,8 C 91 % 1003,6 hPa 0,0 l/m 9,1 kts (3 Bft) W-NW 292 0 min 0,0 UV-I 18 W/m -3,1 C -10,3 C 10,4 kts (3 Bft) 100,00 %
02.12.2023 09:48 -1,8 C 91 % 1003,5 hPa 0,0 l/m 6,8 kts (3 Bft) W-NW 299 0 min 0,0 UV-I 18 W/m -3,1 C -7,5 C 10,4 kts (3 Bft) 100,00 %
02.12.2023 09:47 -1,8 C 91 % 1003,5 hPa 0,0 l/m 7,8 kts (3 Bft) N-NW 330 0 min 0,0 UV-I 16 W/m -3,1 C -8,8 C 9,6 kts (3 Bft) 100,00 %
02.12.2023 09:46 -1,8 C 91 % 1003,5 hPa 0,0 l/m 8,2 kts (3 Bft) NW 312 0 min 0,0 UV-I 16 W/m -3,1 C -9,2 C 9,6 kts (3 Bft) 100,00 %
02.12.2023 09:45 -1,8 C 91 % 1003,1 hPa 0,0 l/m 7,4 kts (3 Bft) W-NW 301 0 min 0,0 UV-I 18 W/m -3,1 C -8,3 C 8,7 kts (3 Bft) 100,00 %
02.12.2023 09:44 -1,8 C 91 % 1003,1 hPa 0,0 l/m 7,7 kts (3 Bft) N-NW 329 0 min 0,0 UV-I 21 W/m -3,1 C -8,7 C 8,7 kts (3 Bft) 100,00 %
02.12.2023 09:43 -1,8 C 91 % 1003,0 hPa 0,0 l/m 8,9 kts (3 Bft) N-NW 327 0 min 0,0 UV-I 23 W/m -3,1 C -10,1 C 10,4 kts (3 Bft) 100,00 %
02.12.2023 09:42 -1,8 C 91 % 1002,8 hPa 0,0 l/m 9,5 kts (3 Bft) N-NW 332 0 min 0,0 UV-I 23 W/m -3,1 C -10,7 C 10,4 kts (3 Bft) 100,00 %
02.12.2023 09:41 -1,8 C 91 % 1002,8 hPa 0,0 l/m 9,1 kts (3 Bft) N-NW 330 0 min 0,0 UV-I 23 W/m -3,1 C -10,3 C 10,4 kts (3 Bft) 100,00 %
02.12.2023 09:40 -1,8 C 91 % 1002,7 hPa 0,0 l/m 9,1 kts (3 Bft) N-NW 345 0 min 0,0 UV-I 23 W/m -3,1 C -10,3 C 11,3 kts (4 Bft) 100,00 %
02.12.2023 09:39 -1,8 C 91 % 1002,8 hPa 0,0 l/m 8,5 kts (3 Bft) N-NW 341 0 min 0,0 UV-I 23 W/m -3,1 C -9,6 C 9,6 kts (3 Bft) 95,65 %
02.12.2023 09:38 -1,8 C 91 % 1002,8 hPa 0,0 l/m 10,0 kts (3 Bft) NW 319 0 min 0,0 UV-I 28 W/m -3,1 C -11,2 C 11,3 kts (4 Bft) 100,00 %
02.12.2023 09:37 -1,8 C 91 % 1002,8 hPa 0,0 l/m 9,2 kts (3 Bft) NW 318 0 min 0,0 UV-I 30 W/m -3,1 C -10,4 C 11,3 kts (4 Bft) 100,00 %
02.12.2023 09:36 -1,8 C 91 % 1002,8 hPa 0,0 l/m 9,9 kts (3 Bft) NW 323 0 min 0,0 UV-I 33 W/m -3,1 C -11,1 C 11,3 kts (4 Bft) 100,00 %
02.12.2023 09:35 -1,8 C 91 % 1002,7 hPa 0,0 l/m 8,9 kts (3 Bft) NW 317 0 min 0,0 UV-I 39 W/m -3,1 C -10,0 C 10,4 kts (3 Bft) 100,00 %
02.12.2023 09:34 -1,8 C 91 % 1002,8 hPa 0,0 l/m 9,2 kts (3 Bft) N-NW 328 0 min 0,0 UV-I 42 W/m -3,1 C -10,4 C 10,4 kts (3 Bft) 100,00 %
02.12.2023 09:33 -1,8 C 91 % 1002,6 hPa 0,0 l/m 8,1 kts (3 Bft) NW 315 0 min 0,0 UV-I 42 W/m -3,1 C -9,2 C 10,4 kts (3 Bft) 100,00 %
02.12.2023 09:32 -1,8 C 91 % 1002,6 hPa 0,0 l/m 8,7 kts (3 Bft) NW 321 0 min 0,0 UV-I 39 W/m -3,1 C -9,8 C 10,4 kts (3 Bft) 100,00 %
02.12.2023 09:31 -1,8 C 91 % 1002,7 hPa 0,0 l/m 7,7 kts (3 Bft) NW 315 0 min 0,0 UV-I 37 W/m -3,1 C -8,7 C 9,6 kts (3 Bft) 100,00 %
02.12.2023 09:30 -1,8 C 91 % 1002,7 hPa 0,0 l/m 7,5 kts (3 Bft) NW 316 0 min 0,0 UV-I 35 W/m -3,1 C -8,4 C 9,6 kts (3 Bft) 100,00 %
02.12.2023 09:29 -1,8 C 91 % 1002,7 hPa 0,0 l/m 8,4 kts (3 Bft) N-NW 334 0 min 0,0 UV-I 33 W/m -3,1 C -9,5 C 11,3 kts (4 Bft) 100,00 %
02.12.2023 09:28 -1,8 C 91 % 1002,7 hPa 0,0 l/m 7,4 kts (3 Bft) NW 325 0 min 0,0 UV-I 33 W/m -3,1 C -8,3 C 9,6 kts (3 Bft) 100,00 %
02.12.2023 09:27 -1,8 C 91 % 1002,7 hPa 0,0 l/m 8,8 kts (3 Bft) NW 323 0 min 0,0 UV-I 33 W/m -3,1 C -10,0 C 10,4 kts (3 Bft) 100,00 %
02.12.2023 09:26 -1,9 C 91 % 1002,8 hPa 0,0 l/m 8,9 kts (3 Bft) N-NW 327 0 min 0,0 UV-I 35 W/m -3,2 C -10,2 C 10,4 kts (3 Bft) 100,00 %
02.12.2023 09:25 -1,8 C 91 % 1002,8 hPa 0,0 l/m 9,0 kts (3 Bft) NW 313 0 min 0,0 UV-I 33 W/m -3,1 C -10,2 C 10,4 kts (3 Bft) 100,00 %
02.12.2023 09:24 -1,9 C 91 % 1002,8 hPa 0,0 l/m 9,7 kts (3 Bft) NW 308 0 min 0,0 UV-I 30 W/m -3,2 C -11,0 C 12,1 kts (4 Bft) 100,00 %
02.12.2023 09:23 -1,9 C 91 % 1002,7 hPa 0,0 l/m 9,8 kts (3 Bft) N-NW 331 0 min 0,0 UV-I 30 W/m -3,2 C -11,2 C 12,1 kts (4 Bft) 100,00 %
02.12.2023 09:22 -1,9 C 91 % 1002,6 hPa 0,0 l/m 9,2 kts (3 Bft) NW 307 0 min 0,0 UV-I 30 W/m -3,2 C -10,5 C 11,3 kts (4 Bft) 100,00 %
02.12.2023 09:21 -1,9 C 91 % 1002,4 hPa 0,0 l/m 10,8 kts (4 Bft) NW 304 0 min 0,0 UV-I 32 W/m -3,2 C -12,1 C 13,0 kts (4 Bft) 96,15 %
02.12.2023 09:20 -1,9 C 91 % 1002,4 hPa 0,0 l/m 10,2 kts (3 Bft) NW 323 0 min 0,0 UV-I 30 W/m -3,2 C -11,5 C 11,3 kts (4 Bft) 100,00 %
02.12.2023 09:19 -1,9 C 91 % 1002,4 hPa 0,0 l/m 11,5 kts (4 Bft) N-NW 336 0 min 0,0 UV-I 30 W/m -3,2 C -12,7 C 13,0 kts (4 Bft) 100,00 %
02.12.2023 09:18 -1,9 C 91 % 1002,4 hPa 0,0 l/m 11,7 kts (4 Bft) N-NW 327 0 min 0,0 UV-I 30 W/m -3,2 C -12,8 C 13,0 kts (4 Bft) 96,15 %
02.12.2023 09:17 -1,9 C 91 % 1002,7 hPa 0,0 l/m 10,9 kts (4 Bft) NW 326 0 min 0,0 UV-I 32 W/m -3,2 C -12,1 C 12,1 kts (4 Bft) 95,65 %
02.12.2023 09:16 -1,9 C 91 % 1002,8 hPa 0,0 l/m 8,5 kts (3 Bft) NW 308 0 min 0,0 UV-I 32 W/m -3,2 C -9,8 C 11,3 kts (4 Bft) 100,00 %
02.12.2023 09:15 -1,9 C 91 % 1002,8 hPa 0,0 l/m 8,9 kts (3 Bft) NW 317 0 min 0,0 UV-I 33 W/m -3,2 C -10,1 C 10,4 kts (3 Bft) 100,00 %
02.12.2023 09:14 -1,9 C 91 % 1002,8 hPa 0,0 l/m 8,6 kts (3 Bft) N-NW 331 0 min 0,0 UV-I 35 W/m -3,2 C -9,9 C 10,4 kts (3 Bft) 100,00 %
02.12.2023 09:13 -2,0 C 91 % 1002,7 hPa 0,0 l/m 8,9 kts (3 Bft) NW 324 0 min 0,0 UV-I 35 W/m -3,3 C -10,3 C 10,4 kts (3 Bft) 100,00 %
02.12.2023 09:12 -2,0 C 91 % 1002,6 hPa 0,0 l/m 10,4 kts (3 Bft) NW 319 0 min 0,0 UV-I 35 W/m -3,3 C -11,8 C 13,0 kts (4 Bft) 100,00 %
02.12.2023 09:10 -2,0 C 91 % 1002,6 hPa 0,0 l/m 9,0 kts (3 Bft) N-NW 341 0 min 0,0 UV-I 32 W/m -3,3 C -10,4 C 10,4 kts (3 Bft) 100,00 %
02.12.2023 09:09 -2,0 C 91 % 1002,7 hPa 0,0 l/m 7,4 kts (3 Bft) N-NW 330 0 min 0,0 UV-I 33 W/m -3,3 C -8,5 C 9,6 kts (3 Bft) 100,00 %
02.12.2023 09:08 -2,0 C 91 % 1002,7 hPa 0,0 l/m 8,9 kts (3 Bft) N-NW 333 0 min 0,0 UV-I 35 W/m -3,3 C -10,3 C 10,4 kts (3 Bft) 100,00 %
02.12.2023 09:07 -2,0 C 91 % 1002,8 hPa 0,0 l/m 9,1 kts (3 Bft) NW 326 0 min 0,0 UV-I 35 W/m -3,3 C -10,6 C 12,1 kts (4 Bft) 95,83 %
02.12.2023 09:05 -2,1 C 91 % 1003,0 hPa 0,0 l/m 9,1 kts (3 Bft) N-NW 340 0 min 0,0 UV-I 35 W/m -3,4 C -10,6 C 11,3 kts (4 Bft) 100,00 %
02.12.2023 09:04 -2,1 C 91 % 1003,0 hPa 0,0 l/m 9,3 kts (3 Bft) N-NW 329 0 min 0,0 UV-I 32 W/m -3,4 C -10,9 C 10,4 kts (3 Bft) 100,00 %
02.12.2023 09:03 -2,1 C 91 % 1003,2 hPa 0,0 l/m 8,8 kts (3 Bft) N-NW 327 0 min 0,0 UV-I 26 W/m -3,4 C -10,3 C 10,4 kts (3 Bft) 100,00 %
02.12.2023 09:02 -2,1 C 91 % 1003,2 hPa 0,0 l/m 5,7 kts (2 Bft) NW 313 0 min 0,0 UV-I 23 W/m -3,4 C -6,3 C 7,0 kts (3 Bft) 100,00 %
02.12.2023 09:01 -2,1 C 91 % 1003,0 hPa 0,0 l/m 9,3 kts (3 Bft) W-NW 300 0 min 0,0 UV-I 23 W/m -3,4 C -10,9 C 11,3 kts (4 Bft) 100,00 %
02.12.2023 09:00 -2,1 C 91 % 1003,0 hPa 0,0 l/m 8,5 kts (3 Bft) N-NW 335 0 min 0,0 UV-I 21 W/m -3,4 C -10,0 C 9,6 kts (3 Bft) 100,00 %
02.12.2023 08:59 -2,1 C 91 % 1002,9 hPa 0,0 l/m 8,6 kts (3 Bft) NW 326 0 min 0,0 UV-I 19 W/m -3,4 C -10,1 C 10,4 kts (3 Bft) 100,00 %
02.12.2023 08:58 -2,1 C 91 % 1002,8 hPa 0,0 l/m 8,8 kts (3 Bft) N-NW 329 0 min 0,0 UV-I 18 W/m -3,4 C -10,3 C 10,4 kts (3 Bft) 100,00 %
02.12.2023 08:57 -2,1 C 91 % 1002,7 hPa 0,0 l/m 9,1 kts (3 Bft) N-NW 327 0 min 0,0 UV-I 14 W/m -3,4 C -10,7 C 12,1 kts (4 Bft) 94,44 %
02.12.2023 08:56 -2,1 C 91 % 1002,6 hPa 0,0 l/m 9,9 kts (3 Bft) N 355 0 min 0,0 UV-I 14 W/m -3,4 C -11,5 C 11,3 kts (4 Bft) 100,00 %
02.12.2023 08:55 -2,1 C 91 % 1002,6 hPa 0,0 l/m 10,5 kts (3 Bft) N-NW 335 0 min 0,0 UV-I 12 W/m -3,4 C -12,0 C 12,1 kts (4 Bft) 100,00 %
02.12.2023 08:54 -2,1 C 91 % 1002,5 hPa 0,0 l/m 8,5 kts (3 Bft) N-NW 344 0 min 0,0 UV-I 11 W/m -3,4 C -10,0 C 10,4 kts (3 Bft) 100,00 %
02.12.2023 08:53 -2,1 C 91 % 1002,6 hPa 0,0 l/m 10,9 kts (4 Bft) N-NW 340 0 min 0,0 UV-I 9 W/m -3,4 C -12,4 C 12,1 kts (4 Bft) 100,00 %
02.12.2023 08:52 -2,1 C 91 % 1002,6 hPa 0,0 l/m 10,6 kts (3 Bft) N-NW 332 0 min 0,0 UV-I 7 W/m -3,4 C -12,1 C 13,0 kts (4 Bft) 100,00 %
02.12.2023 08:51 -2,1 C 91 % 1002,6 hPa 0,0 l/m 10,0 kts (3 Bft) N-NW 342 0 min 0,0 UV-I 7 W/m -3,4 C -11,6 C 10,4 kts (3 Bft) 98,98 %
02.12.2023 08:50 -2,1 C 91 % 1002,7 hPa 0,0 l/m 8,5 kts (3 Bft) NW 324 0 min 0,0 UV-I 7 W/m -3,4 C -10,0 C 10,4 kts (3 Bft) 100,00 %
02.12.2023 08:49 -2,1 C 91 % 1002,7 hPa 0,0 l/m 8,6 kts (3 Bft) N-NW 331 0 min 0,0 UV-I 7 W/m -3,4 C -10,1 C 10,4 kts (3 Bft) 100,00 %
02.12.2023 08:48 -2,1 C 91 % 1002,7 hPa 0,0 l/m 8,8 kts (3 Bft) N-NW 344 0 min 0,0 UV-I 7 W/m -3,4 C -10,3 C 10,4 kts (3 Bft) 100,00 %
02.12.2023 08:47 -2,1 C 91 % 1002,8 hPa 0,0 l/m 9,4 kts (3 Bft) N-NW 338 0 min 0,0 UV-I 7 W/m -3,4 C -11,0 C 11,3 kts (4 Bft) 100,00 %
02.12.2023 08:46 -2,1 C 91 % 1002,7 hPa 0,0 l/m 9,3 kts (3 Bft) NW 326 0 min 0,0 UV-I 7 W/m -3,4 C -10,9 C 10,4 kts (3 Bft) 100,00 %
02.12.2023 08:45 -2,1 C 91 % 1002,9 hPa 0,0 l/m 9,2 kts (3 Bft) N-NW 329 0 min 0,0 UV-I 7 W/m -3,4 C -10,7 C 10,4 kts (3 Bft) 100,00 %
02.12.2023 08:44 -2,1 C 91 % 1002,9 hPa 0,0 l/m 8,7 kts (3 Bft) NW 322 0 min 0,0 UV-I 7 W/m -3,4 C -10,2 C 9,6 kts (3 Bft) 100,00 %
02.12.2023 08:43 -2,1 C 91 % 1003,0 hPa 0,0 l/m 7,0 kts (3 Bft) N-NW 334 0 min 0,0 UV-I 5 W/m -3,4 C -8,1 C 9,6 kts (3 Bft) 100,00 %
02.12.2023 08:42 -2,1 C 91 % 1002,9 hPa 0,0 l/m 7,3 kts (3 Bft) N-NW 338 0 min 0,0 UV-I 5 W/m -3,4 C -8,5 C 9,6 kts (3 Bft) 100,00 %
02.12.2023 08:41 -2,1 C 91 % 1002,9 hPa 0,0 l/m 7,7 kts (3 Bft) N-NW 341 0 min 0,0 UV-I 5 W/m -3,4 C -9,1 C 8,7 kts (3 Bft) 100,00 %
02.12.2023 08:40 -2,1 C 91 % 1002,9 hPa 0,0 l/m 7,0 kts (3 Bft) N-NW 337 0 min 0,0 UV-I 5 W/m -3,4 C -8,2 C 9,6 kts (3 Bft) 100,00 %
02.12.2023 08:39 -2,1 C 91 % 1002,9 hPa 0,0 l/m 8,6 kts (3 Bft) NW 326 0 min 0,0 UV-I 7 W/m -3,4 C -10,1 C 9,6 kts (3 Bft) 100,00 %
02.12.2023 08:38 -2,2 C 91 % 1002,8 hPa 0,0 l/m 7,8 kts (3 Bft) N-NW 329 0 min 0,0 UV-I 7 W/m -3,5 C -9,3 C 9,6 kts (3 Bft) 100,00 %
02.12.2023 08:37 -2,1 C 91 % 1002,9 hPa 0,0 l/m 9,0 kts (3 Bft) N-NW 338 0 min 0,0 UV-I 7 W/m -3,4 C -10,6 C 10,4 kts (3 Bft) 100,00 %
02.12.2023 08:36 -2,1 C 91 % 1002,9 hPa 0,0 l/m 9,0 kts (3 Bft) NW 326 0 min 0,0 UV-I 5 W/m -3,4 C -10,6 C 10,4 kts (3 Bft) 100,00 %
02.12.2023 08:35 -2,1 C 91 % 1002,8 hPa 0,0 l/m 8,9 kts (3 Bft) N-NW 333 0 min 0,0 UV-I 5 W/m -3,4 C -10,4 C 9,6 kts (3 Bft) 100,00 %
02.12.2023 08:34 -2,1 C 91 % 1002,8 hPa 0,0 l/m 9,7 kts (3 Bft) N-NW 331 0 min 0,0 UV-I 0 W/m -3,4 C -11,2 C 11,3 kts (4 Bft) 90,91 %
02.12.2023 08:33 -2,1 C 91 % 1002,8 hPa 0,0 l/m 8,8 kts (3 Bft) N-NW 340 0 min 0,0 UV-I 0 W/m -3,4 C -10,3 C 10,4 kts (3 Bft) 100,00 %
02.12.2023 08:32 -2,1 C 91 % 1002,7 hPa 0,0 l/m 9,0 kts (3 Bft) N-NW 338 0 min 0,0 UV-I 0 W/m -3,4 C -10,6 C 11,3 kts (4 Bft) 100,00 %
02.12.2023 08:31 -2,1 C 91 % 1002,7 hPa 0,0 l/m 7,1 kts (3 Bft) N 349 0 min 0,0 UV-I 0 W/m -3,4 C -8,3 C 8,7 kts (3 Bft) 100,00 %
02.12.2023 08:30 -2,1 C 91 % 1002,8 hPa 0,0 l/m 8,1 kts (3 Bft) N-NW 328 0 min 0,0 UV-I 0 W/m -3,4 C -9,5 C 9,6 kts (3 Bft) 100,00 %
02.12.2023 08:29 -2,1 C 91 % 1002,8 hPa 0,0 l/m 7,8 kts (3 Bft) N-NW 331 0 min 0,0 UV-I 0 W/m -3,4 C -9,1 C 9,6 kts (3 Bft) 100,00 %
02.12.2023 08:28 -2,1 C 91 % 1002,7 hPa 0,0 l/m 8,3 kts (3 Bft) N-NW 336 0 min 0,0 UV-I 0 W/m -3,4 C -9,8 C 9,6 kts (3 Bft) 100,00 %
02.12.2023 08:27 -2,1 C 91 % 1002,7 hPa 0,0 l/m 8,9 kts (3 Bft) N-NW 332 0 min 0,0 UV-I 0 W/m -3,4 C -10,4 C 11,3 kts (4 Bft) 100,00 %
02.12.2023 08:26 -2,1 C 91 % 1002,7 hPa 0,0 l/m 8,3 kts (3 Bft) N-NW 329 0 min 0,0 UV-I 0 W/m -3,4 C -9,8 C 9,6 kts (3 Bft) 100,00 %
02.12.2023 08:25 -2,1 C 91 % 1002,6 hPa 0,0 l/m 6,2 kts (2 Bft) N-NW 346 0 min 0,0 UV-I 0 W/m -3,4 C -7,0 C 8,7 kts (3 Bft) 94,44 %
02.12.2023 08:24 -2,1 C 91 % 1002,6 hPa 0,0 l/m 6,4 kts (2 Bft) NW 322 0 min 0,0 UV-I 0 W/m -3,4 C -7,3 C 7,8 kts (3 Bft) 100,00 %
02.12.2023 08:23 -2,1 C 91 % 1002,6 hPa 0,0 l/m 8,4 kts (3 Bft) N-NW 333 0 min 0,0 UV-I 0 W/m -3,4 C -9,8 C 10,4 kts (3 Bft) 96,55 %
02.12.2023 08:22 -2,1 C 91 % 1002,6 hPa 0,0 l/m 8,0 kts (3 Bft) NW 322 0 min 0,0 UV-I 0 W/m -3,4 C -9,4 C 9,6 kts (3 Bft) 100,00 %
02.12.2023 08:21 -2,1 C 91 % 1002,6 hPa 0,0 l/m 7,6 kts (3 Bft) NW 326 0 min 0,0 UV-I 0 W/m -3,4 C -8,9 C 8,7 kts (3 Bft) 100,00 %
02.12.2023 08:20 -2,1 C 91 % 1002,4 hPa 0,0 l/m 7,7 kts (3 Bft) NW 324 0 min 0,0 UV-I 0 W/m -3,4 C -9,1 C 8,7 kts (3 Bft) 98,88 %
02.12.2023 08:19 -2,1 C 91 % 1002,3 hPa 0,0 l/m 8,6 kts (3 Bft) NW 319 0 min 0,0 UV-I 0 W/m -3,4 C -10,1 C 11,3 kts (4 Bft) 100,00 %
02.12.2023 08:18 -2,1 C 91 % 1002,4 hPa 0,0 l/m 6,6 kts (3 Bft) NW 314 0 min 0,0 UV-I 0 W/m -3,4 C -7,6 C 8,7 kts (3 Bft) 100,00 %
02.12.2023 08:17 -2,1 C 91 % 1002,3 hPa 0,0 l/m 8,7 kts (3 Bft) N 355 0 min 0,0 UV-I 0 W/m -3,4 C -10,2 C 8,7 kts (3 Bft) 98,87 %
02.12.2023 08:16 -2,1 C 91 % 1002,3 hPa 0,0 l/m 6,1 kts (2 Bft) N-NW 341 0 min 0,0 UV-I 0 W/m -3,4 C -6,9 C 9,6 kts (3 Bft) 100,00 %
02.12.2023 08:15 -2,1 C 91 % 1002,3 hPa 0,0 l/m 6,7 kts (3 Bft) N-NW 332 0 min 0,0 UV-I 0 W/m -3,4 C -7,8 C 8,7 kts (3 Bft) 100,00 %
02.12.2023 08:14 -2,1 C 91 % 1002,3 hPa 0,0 l/m 7,9 kts (3 Bft) W-NW 296 0 min 0,0 UV-I 0 W/m -3,4 C -9,3 C 9,6 kts (3 Bft) 100,00 %
02.12.2023 08:13 -2,1 C 91 % 1002,3 hPa 0,0 l/m 8,6 kts (3 Bft) NW 323 0 min 0,0 UV-I 0 W/m -3,4 C -10,1 C 10,4 kts (3 Bft) 100,00 %
02.12.2023 08:12 -2,1 C 91 % 1002,2 hPa 0,0 l/m 7,6 kts (3 Bft) NW 319 0 min 0,0 UV-I 0 W/m -3,4 C -8,9 C 8,7 kts (3 Bft) 100,00 %
02.12.2023 08:11 -2,1 C 91 % 1002,2 hPa 0,0 l/m 6,1 kts (2 Bft) NW 313 0 min 0,0 UV-I 0 W/m -3,4 C -6,9 C 8,7 kts (3 Bft) 100,00 %
02.12.2023 08:10 -2,1 C 91 % 1002,1 hPa 0,0 l/m 5,5 kts (2 Bft) N-NW 342 0 min 0,0 UV-I 5 W/m -3,4 C -5,9 C 7,8 kts (3 Bft) 100,00 %
02.12.2023 08:09 -2,1 C 91 % 1002,0 hPa 0,0 l/m 8,4 kts (3 Bft) NW 316 0 min 0,0 UV-I 5 W/m -3,4 C -9,8 C 9,6 kts (3 Bft) 100,00 %
02.12.2023 08:08 -2,1 C 91 % 1002,1 hPa 0,0 l/m 7,9 kts (3 Bft) N-NW 333 0 min 0,0 UV-I 5 W/m -3,4 C -9,3 C 8,7 kts (3 Bft) 100,00 %
02.12.2023 08:07 -2,1 C 91 % 1002,1 hPa 0,0 l/m 7,9 kts (3 Bft) NW 310 0 min 0,0 UV-I 5 W/m -3,4 C -9,3 C 9,6 kts (3 Bft) 100,00 %
02.12.2023 08:06 -2,1 C 91 % 1001,9 hPa 0,0 l/m 8,3 kts (3 Bft) N-NW 346 0 min 0,0 UV-I 5 W/m -3,4 C -9,7 C 9,6 kts (3 Bft) 100,00 %
02.12.2023 08:05 -2,1 C 91 % 1001,9 hPa 0,0 l/m 8,2 kts (3 Bft) N-NW 343 0 min 0,0 UV-I 7 W/m -3,4 C -9,6 C 9,6 kts (3 Bft) 100,00 %
02.12.2023 08:04 -2,1 C 91 % 1001,9 hPa 0,0 l/m 9,1 kts (3 Bft) N-NW 327 0 min 0,0 UV-I 5 W/m -3,4 C -10,6 C 11,3 kts (4 Bft) 100,00 %
02.12.2023 08:03 -2,1 C 91 % 1001,9 hPa 0,0 l/m 8,6 kts (3 Bft) N-NW 348 0 min 0,0 UV-I 5 W/m -3,4 C -10,1 C 9,6 kts (3 Bft) 100,00 %
02.12.2023 08:02 -2,1 C 91 % 1001,9 hPa 0,0 l/m 9,1 kts (3 Bft) N-NW 346 0 min 0,0 UV-I 5 W/m -3,4 C -10,6 C 10,4 kts (3 Bft) 100,00 %
02.12.2023 08:01 -2,1 C 91 % 1001,9 hPa 0,0 l/m 8,2 kts (3 Bft) N-NW 330 0 min 0,0 UV-I 5 W/m -3,4 C -9,6 C 9,6 kts (3 Bft) 100,00 %
02.12.2023 08:00 -2,1 C 91 % 1001,9 hPa 0,0 l/m 8,4 kts (3 Bft) N 360 0 min 0,0 UV-I 5 W/m -3,4 C -9,8 C 9,6 kts (3 Bft) 100,00 %
02.12.2023 07:59 -2,1 C 91 % 1002,1 hPa 0,0 l/m 8,4 kts (3 Bft) N-NW 331 0 min 0,0 UV-I 0 W/m -3,4 C -9,8 C 10,4 kts (3 Bft) 100,00 %
02.12.2023 07:58 -2,1 C 91 % 1002,1 hPa 0,0 l/m 8,7 kts (3 Bft) N-NW 336 0 min 0,0 UV-I 0 W/m -3,4 C -10,2 C 9,6 kts (3 Bft) 100,00 %
02.12.2023 07:57 -2,1 C 91 % 1002,0 hPa 0,0 l/m 9,2 kts (3 Bft) N-NW 337 0 min 0,0 UV-I 0 W/m -3,4 C -10,7 C 11,3 kts (4 Bft) 100,00 %
02.12.2023 07:56 -2,1 C 91 % 1002,0 hPa 0,0 l/m 9,2 kts (3 Bft) N-NW 348 0 min 0,0 UV-I 0 W/m -3,4 C -10,8 C 10,4 kts (3 Bft) 100,00 %
02.12.2023 07:55 -2,1 C 91 % 1002,0 hPa 0,0 l/m 8,9 kts (3 Bft) N 355 0 min 0,0 UV-I 0 W/m -3,4 C -10,4 C 10,4 kts (3 Bft) 100,00 %
02.12.2023 07:54 -2,1 C 91 % 1002,1 hPa 0,0 l/m 7,8 kts (3 Bft) N-NW 346 0 min 0,0 UV-I 0 W/m -3,4 C -9,2 C 10,4 kts (3 Bft) 95,65 %
02.12.2023 07:53 -2,1 C 91 % 1002,1 hPa 0,0 l/m 9,6 kts (3 Bft) N 349 0 min 0,0 UV-I 0 W/m -3,4 C -11,1 C 12,1 kts (4 Bft) 100,00 %
02.12.2023 07:52 -2,1 C 91 % 1002,1 hPa 0,0 l/m 9,6 kts (3 Bft) N-NW 333 0 min 0,0 UV-I 0 W/m -3,4 C -11,2 C 11,3 kts (4 Bft) 100,00 %
02.12.2023 07:51 -2,1 C 91 % 1002,1 hPa 0,0 l/m 9,5 kts (3 Bft) N-NW 333 0 min 0,0 UV-I 0 W/m -3,4 C -11,1 C 11,3 kts (4 Bft) 100,00 %
02.12.2023 07:50 -2,1 C 91 % 1002,1 hPa 0,0 l/m 8,7 kts (3 Bft) N-NW 331 0 min 0,0 UV-I 0 W/m -3,4 C -10,2 C 11,3 kts (4 Bft) 100,00 %
02.12.2023 07:49 -2,1 C 91 % 1002,1 hPa 0,0 l/m 9,4 kts (3 Bft) N 355 0 min 0,0 UV-I 0 W/m -3,4 C -11,0 C 11,3 kts (4 Bft) 100,00 %
02.12.2023 07:48 -2,1 C 91 % 1002,0 hPa 0,0 l/m 9,8 kts (3 Bft) N 355 0 min 0,0 UV-I 0 W/m -3,4 C -11,4 C 12,1 kts (4 Bft) 100,00 %
02.12.2023 07:47 -2,1 C 91 % 1001,8 hPa 0,0 l/m 10,9 kts (4 Bft) N 355 0 min 0,0 UV-I 0 W/m -3,4 C -12,4 C 12,1 kts (4 Bft) 100,00 %
02.12.2023 07:46 -2,1 C 91 % 1001,8 hPa 0,0 l/m 10,2 kts (3 Bft) N-NW 347 0 min 0,0 UV-I 0 W/m -3,4 C -11,8 C 10,4 kts (3 Bft) 100,00 %
02.12.2023 07:45 -2,1 C 91 % 1001,8 hPa 0,0 l/m 9,6 kts (3 Bft) N-NW 340 0 min 0,0 UV-I 0 W/m -3,4 C -11,2 C 11,3 kts (4 Bft) 100,00 %
02.12.2023 07:44 -2,1 C 91 % 1001,9 hPa 0,0 l/m 8,8 kts (3 Bft) N-NW 335 0 min 0,0 UV-I 0 W/m -3,4 C -10,3 C 11,3 kts (4 Bft) 100,00 %
02.12.2023 07:43 -2,1 C 91 % 1002,1 hPa 0,0 l/m 8,9 kts (3 Bft) NW 324 0 min 0,0 UV-I 0 W/m -3,4 C -10,4 C 10,4 kts (3 Bft) 100,00 %
02.12.2023 07:42 -2,1 C 91 % 1002,1 hPa 0,0 l/m 9,4 kts (3 Bft) N-NW 330 0 min 0,0 UV-I 0 W/m -3,4 C -11,0 C 10,4 kts (3 Bft) 98,00 %
02.12.2023 07:41 -2,1 C 91 % 1002,0 hPa 0,0 l/m 9,4 kts (3 Bft) NW 307 0 min 0,0 UV-I 0 W/m -3,4 C -11,0 C 11,3 kts (4 Bft) 98,66 %
02.12.2023 07:40 -2,1 C 91 % 1001,8 hPa 0,0 l/m 9,9 kts (3 Bft) N-NW 338 0 min 0,0 UV-I 0 W/m -3,4 C -11,5 C 11,3 kts (4 Bft) 100,00 %
02.12.2023 07:39 -2,1 C 91 % 1001,8 hPa 0,0 l/m 9,7 kts (3 Bft) N-NW 344 0 min 0,0 UV-I 0 W/m -3,4 C -11,3 C 10,4 kts (3 Bft) 100,00 %
02.12.2023 07:38 -2,1 C 91 % 1001,8 hPa 0,0 l/m 10,5 kts (3 Bft) N-NW 343 0 min 0,0 UV-I 0 W/m -3,4 C -12,1 C 11,3 kts (4 Bft) 100,00 %
02.12.2023 07:37 -2,1 C 91 % 1002,2 hPa 0,0 l/m 9,9 kts (3 Bft) N-NW 336 0 min 0,0 UV-I 0 W/m -3,4 C -11,5 C 12,1 kts (4 Bft) 95,83 %
02.12.2023 07:36 -2,1 C 91 % 1002,2 hPa 0,0 l/m 9,9 kts (3 Bft) N-NW 337 0 min 0,0 UV-I 0 W/m -3,4 C -11,5 C 11,3 kts (4 Bft) 100,00 %
02.12.2023 07:35 -2,1 C 91 % 1002,2 hPa 0,0 l/m 8,8 kts (3 Bft) N 355 0 min 0,0 UV-I 0 W/m -3,4 C -10,3 C 9,6 kts (3 Bft) 100,00 %
02.12.2023 07:34 -2,1 C 91 % 1002,2 hPa 0,0 l/m 8,1 kts (3 Bft) N-NW 338 0 min 0,0 UV-I 0 W/m -3,4 C -9,5 C 9,6 kts (3 Bft) 100,00 %
02.12.2023 07:33 -2,1 C 91 % 1002,2 hPa 0,0 l/m 8,4 kts (3 Bft) N-NW 336 0 min 0,0 UV-I 0 W/m -3,4 C -9,8 C 9,6 kts (3 Bft) 96,15 %
02.12.2023 07:32 -2,1 C 91 % 1002,2 hPa 0,0 l/m 7,5 kts (3 Bft) N-NW 331 0 min 0,0 UV-I 0 W/m -3,4 C -8,8 C 9,6 kts (3 Bft) 100,00 %
02.12.2023 07:31 -2,1 C 91 % 1002,2 hPa 0,0 l/m 9,5 kts (3 Bft) N-NW 340 0 min 0,0 UV-I 0 W/m -3,4 C -11,1 C 10,4 kts (3 Bft) 90,91 %
02.12.2023 07:30 -2,1 C 91 % 1002,2 hPa 0,0 l/m 7,6 kts (3 Bft) NW 319 0 min 0,0 UV-I 0 W/m -3,4 C -8,9 C 9,6 kts (3 Bft) 100,00 %
02.12.2023 07:29 -2,1 C 91 % 1002,2 hPa 0,0 l/m 7,0 kts (3 Bft) N-NW 333 0 min 0,0 UV-I 0 W/m -3,4 C -8,1 C 9,6 kts (3 Bft) 96,55 %
02.12.2023 07:28 -2,1 C 91 % 1002,0 hPa 0,0 l/m 7,0 kts (3 Bft) N-NW 338 0 min 0,0 UV-I 0 W/m -3,4 C -8,1 C 7,8 kts (3 Bft) 100,00 %
02.12.2023 07:27 -2,1 C 91 % 1001,9 hPa 0,0 l/m 9,7 kts (3 Bft) N-NW 330 0 min 0,0 UV-I 0 W/m -3,4 C -11,2 C 10,4 kts (3 Bft) 96,55 %
02.12.2023 07:26 -2,1 C 91 % 1001,8 hPa 0,0 l/m 9,8 kts (3 Bft) N-NW 329 0 min 0,0 UV-I 0 W/m -3,4 C -11,4 C 11,3 kts (4 Bft) 100,00 %
02.12.2023 07:25 -2,1 C 91 % 1001,8 hPa 0,0 l/m 10,0 kts (3 Bft) N-NW 344 0 min 0,0 UV-I 0 W/m -3,4 C -11,6 C 11,3 kts (4 Bft) 94,29 %
02.12.2023 07:24 -2,1 C 91 % 1001,8 hPa 0,0 l/m 10,2 kts (3 Bft) N-NW 347 0 min 0,0 UV-I 0 W/m -3,4 C -11,8 C 11,3 kts (4 Bft) 100,00 %
02.12.2023 07:23 -2,1 C 91 % 1002,1 hPa 0,0 l/m 10,5 kts (3 Bft) N-NW 340 0 min 0,0 UV-I 0 W/m -3,4 C -12,0 C 11,3 kts (4 Bft) 100,00 %
02.12.2023 07:22 -2,1 C 91 % 1002,1 hPa 0,0 l/m 9,6 kts (3 Bft) N-NW 328 0 min 0,0 UV-I 0 W/m -3,4 C -11,1 C 11,3 kts (4 Bft) 97,62 %
02.12.2023 07:21 -2,1 C 91 % 1002,3 hPa 0,0 l/m 8,9 kts (3 Bft) N 351 0 min 0,0 UV-I 0 W/m -3,4 C -10,4 C 9,6 kts (3 Bft) 90,91 %
02.12.2023 07:20 -2,1 C 91 % 1002,3 hPa 0,0 l/m 9,1 kts (3 Bft) N-NW 337 0 min 0,0 UV-I 0 W/m -3,4 C -10,6 C 10,4 kts (3 Bft) 100,00 %
02.12.2023 07:19 -2,1 C 91 % 1002,3 hPa 0,0 l/m 8,2 kts (3 Bft) NW 317 0 min 0,0 UV-I 0 W/m -3,4 C -9,6 C 9,6 kts (3 Bft) 100,00 %
02.12.2023 07:18 -2,1 C 91 % 1002,2 hPa 0,0 l/m 8,2 kts (3 Bft) N-NW 338 0 min 0,0 UV-I 0 W/m -3,4 C -9,7 C 10,4 kts (3 Bft) 97,56 %
02.12.2023 07:17 -2,1 C 91 % 1002,2 hPa 0,0 l/m 8,9 kts (3 Bft) N-NW 328 0 min 0,0 UV-I 0 W/m -3,4 C -10,4 C 9,6 kts (3 Bft) 93,33 %
02.12.2023 07:16 -2,1 C 91 % 1002,1 hPa 0,0 l/m 7,9 kts (3 Bft) N-NW 346 0 min 0,0 UV-I 0 W/m -3,4 C -9,3 C 8,7 kts (3 Bft) 100,00 %
02.12.2023 07:15 -2,1 C 91 % 1002,0 hPa 0,0 l/m 8,2 kts (3 Bft) N-NW 332 0 min 0,0 UV-I 0 W/m -3,4 C -9,6 C 8,7 kts (3 Bft) 100,00 %
02.12.2023 07:14 -2,1 C 91 % 1002,2 hPa 0,0 l/m 9,1 kts (3 Bft) NW 320 0 min 0,0 UV-I 0 W/m -3,4 C -10,6 C 9,6 kts (3 Bft) 95,83 %
02.12.2023 07:13 -2,1 C 91 % 1002,2 hPa 0,0 l/m 9,1 kts (3 Bft) NW 314 0 min 0,0 UV-I 0 W/m -3,4 C -10,6 C 11,3 kts (4 Bft) 98,08 %
02.12.2023 07:12 -2,1 C 91 % 1002,0 hPa 0,0 l/m 9,1 kts (3 Bft) N-NW 340 0 min 0,0 UV-I 0 W/m -3,4 C -10,6 C 10,4 kts (3 Bft) 98,79 %
02.12.2023 07:11 -2,1 C 91 % 1001,9 hPa 0,0 l/m 8,5 kts (3 Bft) N-NW 337 0 min 0,0 UV-I 0 W/m -3,4 C -10,0 C 10,4 kts (3 Bft) 100,00 %
02.12.2023 07:10 -2,1 C 91 % 1001,9 hPa 0,0 l/m 7,9 kts (3 Bft) N-NW 339 0 min 0,0 UV-I 0 W/m -3,4 C -9,3 C 8,7 kts (3 Bft) 96,30 %
02.12.2023 07:09 -2,1 C 91 % 1001,9 hPa 0,0 l/m 8,1 kts (3 Bft) N-NW 336 0 min 0,0 UV-I 0 W/m -3,4 C -9,5 C 9,6 kts (3 Bft) 100,00 %
02.12.2023 07:08 -2,1 C 91 % 1001,8 hPa 0,0 l/m 8,3 kts (3 Bft) N-NW 338 0 min 0,0 UV-I 0 W/m -3,4 C -9,7 C 9,6 kts (3 Bft) 95,12 %
02.12.2023 07:07 -2,1 C 91 % 1001,8 hPa 0,0 l/m 9,2 kts (3 Bft) N-NW 332 0 min 0,0 UV-I 0 W/m -3,4 C -10,7 C 10,4 kts (3 Bft) 98,85 %
02.12.2023 07:06 -2,1 C 91 % 1001,8 hPa 0,0 l/m 8,7 kts (3 Bft) N-NW 327 0 min 0,0 UV-I 0 W/m -3,4 C -10,3 C 10,4 kts (3 Bft) 95,83 %
02.12.2023 07:05 -2,1 C 91 % 1001,8 hPa 0,0 l/m 8,0 kts (3 Bft) N-NW 328 0 min 0,0 UV-I 0 W/m -3,4 C -9,5 C 11,3 kts (4 Bft) 100,00 %
02.12.2023 07:04 -2,1 C 91 % 1001,8 hPa 0,0 l/m 8,7 kts (3 Bft) N 355 0 min 0,0 UV-I 0 W/m -3,4 C -10,2 C 9,6 kts (3 Bft) 95,83 %
02.12.2023 07:03 -2,1 C 91 % 1001,8 hPa 0,0 l/m 9,2 kts (3 Bft) N-NW 332 0 min 0,0 UV-I 0 W/m -3,4 C -10,8 C 10,4 kts (3 Bft) 97,73 %
02.12.2023 07:02 -2,1 C 91 % 1001,7 hPa 0,0 l/m 7,8 kts (3 Bft) NW 325 0 min 0,0 UV-I 0 W/m -3,4 C -9,2 C 8,7 kts (3 Bft) 98,91 %
02.12.2023 07:01 -2,1 C 91 % 1001,8 hPa 0,0 l/m 8,5 kts (3 Bft) N-NW 333 0 min 0,0 UV-I 0 W/m -3,4 C -10,0 C 9,6 kts (3 Bft) 95,65 %
02.12.2023 07:00 -2,1 C 91 % 1001,8 hPa 0,0 l/m 9,2 kts (3 Bft) NW 326 0 min 0,0 UV-I 0 W/m -3,4 C -10,7 C 10,4 kts (3 Bft) 96,15 %
02.12.2023 06:59 -2,1 C 91 % 1001,8 hPa 0,0 l/m 8,2 kts (3 Bft) N-NW 330 0 min 0,0 UV-I 0 W/m -3,4 C -9,7 C 10,4 kts (3 Bft) 100,00 %
02.12.2023 06:58 -2,0 C 91 % 1001,8 hPa 0,0 l/m 8,8 kts (3 Bft) NW 325 0 min 0,0 UV-I 0 W/m -3,3 C -10,2 C 9,6 kts (3 Bft) 93,33 %
02.12.2023 06:57 -2,1 C 91 % 1001,9 hPa 0,0 l/m 9,1 kts (3 Bft) NW 323 0 min 0,0 UV-I 0 W/m -3,4 C -10,6 C 9,6 kts (3 Bft) 100,00 %
02.12.2023 06:56 -2,0 C 91 % 1001,8 hPa 0,0 l/m 8,6 kts (3 Bft) N-NW 333 0 min 0,0 UV-I 0 W/m -3,3 C -10,0 C 9,6 kts (3 Bft) 95,65 %
02.12.2023 06:55 -2,1 C 91 % 1001,8 hPa 0,0 l/m 8,4 kts (3 Bft) N-NW 333 0 min 0,0 UV-I 0 W/m -3,4 C -9,8 C 8,7 kts (3 Bft) 100,00 %
02.12.2023 06:54 -2,1 C 91 % 1001,8 hPa 0,0 l/m 8,7 kts (3 Bft) N-NW 327 0 min 0,0 UV-I 0 W/m -3,4 C -10,3 C 10,4 kts (3 Bft) 92,31 %
02.12.2023 06:53 -2,1 C 91 % 1001,9 hPa 0,0 l/m 8,3 kts (3 Bft) N-NW 333 0 min 0,0 UV-I 0 W/m -3,4 C -9,8 C 8,7 kts (3 Bft) 100,00 %
02.12.2023 06:52 -2,1 C 91 % 1001,9 hPa 0,0 l/m 7,6 kts (3 Bft) NW 319 0 min 0,0 UV-I 0 W/m -3,4 C -8,9 C 9,6 kts (3 Bft) 95,65 %
02.12.2023 06:51 -2,1 C 91 % 1001,9 hPa 0,0 l/m 7,8 kts (3 Bft) N-NW 327 0 min 0,0 UV-I 0 W/m -3,4 C -9,1 C 9,6 kts (3 Bft) 97,56 %
02.12.2023 06:50 -2,1 C 91 % 1001,9 hPa 0,0 l/m 8,5 kts (3 Bft) N-NW 335 0 min 0,0 UV-I 0 W/m -3,4 C -10,0 C 9,6 kts (3 Bft) 99,11 %
02.12.2023 06:49 -2,1 C 91 % 1001,9 hPa 0,0 l/m 8,5 kts (3 Bft) N-NW 327 0 min 0,0 UV-I 0 W/m -3,4 C -10,0 C 9,6 kts (3 Bft) 100,00 %
02.12.2023 06:48 -2,1 C 91 % 1001,8 hPa 0,0 l/m 8,3 kts (3 Bft) N-NW 331 0 min 0,0 UV-I 0 W/m -3,4 C -9,8 C 9,6 kts (3 Bft) 95,65 %
02.12.2023 06:47 -2,1 C 91 % 1001,9 hPa 0,0 l/m 7,2 kts (3 Bft) N-NW 337 0 min 0,0 UV-I 0 W/m -3,4 C -8,5 C 8,7 kts (3 Bft) 100,00 %
02.12.2023 06:46 -2,1 C 91 % 1001,9 hPa 0,0 l/m 5,8 kts (2 Bft) NW 317 0 min 0,0 UV-I 0 W/m -3,4 C -6,5 C 7,8 kts (3 Bft) 96,15 %
02.12.2023 06:45 -2,1 C 91 % 1001,9 hPa 0,0 l/m 7,3 kts (3 Bft) N-NW 344 0 min 0,0 UV-I 0 W/m -3,4 C -8,5 C 8,7 kts (3 Bft) 95,83 %
02.12.2023 06:44 -2,1 C 91 % 1001,9 hPa 0,0 l/m 6,6 kts (3 Bft) N-NW 327 0 min 0,0 UV-I 0 W/m -3,4 C -7,6 C 7,8 kts (3 Bft) 96,88 %
02.12.2023 06:43 -2,1 C 91 % 1001,9 hPa 0,0 l/m 6,7 kts (3 Bft) NW 326 0 min 0,0 UV-I 0 W/m -3,4 C -7,7 C 8,7 kts (3 Bft) 100,00 %
02.12.2023 06:42 -2,1 C 91 % 1001,9 hPa 0,0 l/m 7,2 kts (3 Bft) NW 321 0 min 0,0 UV-I 0 W/m -3,4 C -8,4 C 9,6 kts (3 Bft) 96,15 %
02.12.2023 06:41 -2,1 C 91 % 1001,8 hPa 0,0 l/m 6,6 kts (3 Bft) NW 325 0 min 0,0 UV-I 0 W/m -3,4 C -7,6 C 7,8 kts (3 Bft) 100,00 %
02.12.2023 06:40 -2,1 C 91 % 1001,8 hPa 0,0 l/m 7,3 kts (3 Bft) N-NW 339 0 min 0,0 UV-I 0 W/m -3,4 C -8,6 C 8,7 kts (3 Bft) 96,97 %
02.12.2023 06:39 -2,1 C 91 % 1001,7 hPa 0,0 l/m 7,8 kts (3 Bft) N-NW 329 0 min 0,0 UV-I 0 W/m -3,4 C -9,1 C 8,7 kts (3 Bft) 100,00 %
02.12.2023 06:38 -2,1 C 91 % 1001,7 hPa 0,0 l/m 6,6 kts (3 Bft) N-NW 331 0 min 0,0 UV-I 0 W/m -3,4 C -7,6 C 9,6 kts (3 Bft) 96,15 %
02.12.2023 06:37 -2,1 C 91 % 1001,8 hPa 0,0 l/m 8,7 kts (3 Bft) NW 325 0 min 0,0 UV-I 0 W/m -3,4 C -10,3 C 10,4 kts (3 Bft) 100,00 %
02.12.2023 06:36 -2,1 C 91 % 1001,8 hPa 0,0 l/m 8,9 kts (3 Bft) N-NW 346 0 min 0,0 UV-I 0 W/m -3,4 C -10,4 C 9,6 kts (3 Bft) 100,00 %
02.12.2023 06:35 -2,1 C 91 % 1001,7 hPa 0,0 l/m 8,3 kts (3 Bft) N-NW 344 0 min 0,0 UV-I 0 W/m -3,4 C -9,7 C 8,7 kts (3 Bft) 92,31 %
02.12.2023 06:34 -2,1 C 91 % 1001,7 hPa 0,0 l/m 8,1 kts (3 Bft) N-NW 344 0 min 0,0 UV-I 0 W/m -3,4 C -9,5 C 9,6 kts (3 Bft) 100,00 %
02.12.2023 06:33 -2,1 C 91 % 1001,7 hPa 0,0 l/m 8,5 kts (3 Bft) N-NW 334 0 min 0,0 UV-I 0 W/m -3,4 C -10,0 C 10,4 kts (3 Bft) 96,88 %
02.12.2023 06:32 -2,0 C 91 % 1001,6 hPa 0,0 l/m 8,2 kts (3 Bft) N 355 0 min 0,0 UV-I 0 W/m -3,3 C -9,5 C 9,6 kts (3 Bft) 100,00 %
02.12.2023 06:31 -2,1 C 91 % 1001,6 hPa 0,0 l/m 8,1 kts (3 Bft) N-NW 333 0 min 0,0 UV-I 0 W/m -3,4 C -9,5 C 9,6 kts (3 Bft) 95,65 %
02.12.2023 06:30 -2,1 C 91 % 1001,7 hPa 0,0 l/m 8,2 kts (3 Bft) N-NW 342 0 min 0,0 UV-I 0 W/m -3,4 C -9,7 C 9,6 kts (3 Bft) 100,00 %
02.12.2023 06:29 -2,1 C 91 % 1001,7 hPa 0,0 l/m 8,5 kts (3 Bft) N 351 0 min 0,0 UV-I 0 W/m -3,4 C -10,0 C 9,6 kts (3 Bft) 96,55 %
02.12.2023 06:28 -2,0 C 91 % 1001,8 hPa 0,0 l/m 7,6 kts (3 Bft) N-NW 332 0 min 0,0 UV-I 0 W/m -3,3 C -8,8 C 9,6 kts (3 Bft) 95,83 %
02.12.2023 06:27 -2,0 C 91 % 1001,8 hPa 0,0 l/m 7,9 kts (3 Bft) NW 323 0 min 0,0 UV-I 0 W/m -3,3 C -9,1 C 9,6 kts (3 Bft) 96,88 %
02.12.2023 06:26 -2,0 C 91 % 1001,8 hPa 0,0 l/m 6,3 kts (2 Bft) NW 326 0 min 0,0 UV-I 0 W/m -3,3 C -7,0 C 7,8 kts (3 Bft) 100,00 %
02.12.2023 06:25 -2,0 C 91 % 1001,8 hPa 0,0 l/m 7,9 kts (3 Bft) N-NW 335 0 min 0,0 UV-I 0 W/m -3,3 C -9,1 C 8,7 kts (3 Bft) 100,00 %
02.12.2023 06:24 -2,0 C 91 % 1001,7 hPa 0,0 l/m 7,9 kts (3 Bft) N-NW 330 0 min 0,0 UV-I 0 W/m -3,3 C -9,1 C 9,6 kts (3 Bft) 100,00 %
02.12.2023 06:23 -2,0 C 91 % 1001,6 hPa 0,0 l/m 7,1 kts (3 Bft) N-NW 327 0 min 0,0 UV-I 0 W/m -3,3 C -8,1 C 9,6 kts (3 Bft) 100,00 %
02.12.2023 06:22 -2,0 C 91 % 1001,7 hPa 0,0 l/m 7,6 kts (3 Bft) N-NW 335 0 min 0,0 UV-I 0 W/m -3,3 C -8,7 C 8,7 kts (3 Bft) 100,00 %
02.12.2023 06:21 -2,0 C 91 % 1001,8 hPa 0,0 l/m 8,2 kts (3 Bft) NW 319 0 min 0,0 UV-I 0 W/m -3,3 C -9,5 C 9,6 kts (3 Bft) 100,00 %
02.12.2023 06:20 -2,0 C 91 % 1001,8 hPa 0,0 l/m 5,6 kts (2 Bft) NW 323 0 min 0,0 UV-I 0 W/m -3,3 C -5,9 C 8,7 kts (3 Bft) 100,00 %
02.12.2023 06:19 -2,0 C 91 % 1001,7 hPa 0,0 l/m 6,4 kts (2 Bft) NW 324 0 min 0,0 UV-I 0 W/m -3,3 C -7,1 C 7,8 kts (3 Bft) 100,00 %
02.12.2023 06:18 -2,0 C 91 % 1001,7 hPa 0,0 l/m 7,7 kts (3 Bft) N-NW 335 0 min 0,0 UV-I 0 W/m -3,3 C -8,9 C 9,6 kts (3 Bft) 100,00 %
02.12.2023 06:17 -2,0 C 91 % 1001,5 hPa 0,0 l/m 8,4 kts (3 Bft) N-NW 341 0 min 0,0 UV-I 0 W/m -3,3 C -9,8 C 9,6 kts (3 Bft) 100,00 %
02.12.2023 06:16 -2,0 C 91 % 1001,5 hPa 0,0 l/m 9,6 kts (3 Bft) N-NW 342 0 min 0,0 UV-I 0 W/m -3,3 C -11,0 C 10,4 kts (3 Bft) 100,00 %
02.12.2023 06:15 -2,0 C 91 % 1001,5 hPa 0,0 l/m 8,6 kts (3 Bft) N-NW 336 0 min 0,0 UV-I 0 W/m -3,3 C -10,0 C 9,6 kts (3 Bft) 100,00 %
02.12.2023 06:14 -2,0 C 91 % 1001,5 hPa 0,0 l/m 7,7 kts (3 Bft) N-NW 338 0 min 0,0 UV-I 0 W/m -3,3 C -8,9 C 9,6 kts (3 Bft) 100,00 %
02.12.2023 06:13 -1,9 C 91 % 1001,8 hPa 0,0 l/m 7,2 kts (3 Bft) N-NW 331 0 min 0,0 UV-I 0 W/m -3,2 C -8,2 C 8,7 kts (3 Bft) 100,00 %
02.12.2023 06:12 -2,0 C 91 % 1001,7 hPa 0,0 l/m 5,8 kts (2 Bft) NW 317 0 min 0,0 UV-I 0 W/m -3,3 C -6,3 C 7,8 kts (3 Bft) 100,00 %
02.12.2023 06:11 -1,9 C 91 % 1001,7 hPa 0,0 l/m 6,8 kts (3 Bft) NW 318 0 min 0,0 UV-I 0 W/m -3,2 C -7,6 C 7,8 kts (3 Bft) 95,83 %
02.12.2023 06:10 -2,0 C 91 % 1001,7 hPa 0,0 l/m 7,3 kts (3 Bft) N-NW 333 0 min 0,0 UV-I 0 W/m -3,3 C -8,4 C 8,7 kts (3 Bft) 100,00 %
02.12.2023 06:09 -1,9 C 91 % 1001,6 hPa 0,0 l/m 8,7 kts (3 Bft) N-NW 346 0 min 0,0 UV-I 0 W/m -3,2 C -10,0 C 9,6 kts (3 Bft) 100,00 %
02.12.2023 06:08 -1,9 C 91 % 1001,5 hPa 0,0 l/m 9,3 kts (3 Bft) N-NW 340 0 min 0,0 UV-I 0 W/m -3,2 C -10,6 C 10,4 kts (3 Bft) 95,65 %
02.12.2023 06:07 -1,9 C 91 % 1001,5 hPa 0,0 l/m 9,3 kts (3 Bft) N-NW 346 0 min 0,0 UV-I 0 W/m -3,2 C -10,7 C 11,3 kts (4 Bft) 100,00 %
02.12.2023 06:06 -1,9 C 91 % 1001,6 hPa 0,0 l/m 7,8 kts (3 Bft) N-NW 344 0 min 0,0 UV-I 0 W/m -3,2 C -9,0 C 8,7 kts (3 Bft) 100,00 %
02.12.2023 06:05 -1,9 C 91 % 1001,6 hPa 0,0 l/m 7,1 kts (3 Bft) NW 326 0 min 0,0 UV-I 0 W/m -3,2 C -8,0 C 7,8 kts (3 Bft) 100,00 %
02.12.2023 06:04 -1,9 C 91 % 1001,6 hPa 0,0 l/m 7,2 kts (3 Bft) N-NW 337 0 min 0,0 UV-I 0 W/m -3,2 C -8,2 C 8,7 kts (3 Bft) 100,00 %
02.12.2023 06:03 -1,9 C 91 % 1001,6 hPa 0,0 l/m 8,0 kts (3 Bft) N-NW 336 0 min 0,0 UV-I 0 W/m -3,2 C -9,2 C 9,6 kts (3 Bft) 100,00 %
02.12.2023 06:02 -1,9 C 91 % 1001,6 hPa 0,0 l/m 7,9 kts (3 Bft) N-NW 343 0 min 0,0 UV-I 0 W/m -3,2 C -9,0 C 8,7 kts (3 Bft) 100,00 %
02.12.2023 06:01 -1,9 C 91 % 1001,6 hPa 0,0 l/m 7,9 kts (3 Bft) N-NW 333 0 min 0,0 UV-I 0 W/m -3,2 C -9,0 C 8,7 kts (3 Bft) 100,00 %
02.12.2023 06:00 -1,9 C 91 % 1001,7 hPa 0,0 l/m 7,7 kts (3 Bft) N-NW 333 0 min 0,0 UV-I 0 W/m -3,2 C -8,8 C 8,7 kts (3 Bft) 100,00 %
02.12.2023 05:59 -1,9 C 91 % 1001,8 hPa 0,0 l/m 6,5 kts (2 Bft) N-NW 337 0 min 0,0 UV-I 0 W/m -3,2 C -7,3 C 8,7 kts (3 Bft) 100,00 %
02.12.2023 05:58 -1,9 C 91 % 1001,7 hPa 0,0 l/m 7,6 kts (3 Bft) N 355 0 min 0,0 UV-I 0 W/m -3,2 C -8,6 C 8,7 kts (3 Bft) 100,00 %
02.12.2023 05:57 -1,9 C 91 % 1001,7 hPa 0,0 l/m 7,7 kts (3 Bft) N-NW 329 0 min 0,0 UV-I 0 W/m -3,2 C -8,8 C 8,7 kts (3 Bft) 100,00 %
02.12.2023 05:56 -1,9 C 91 % 1001,5 hPa 0,0 l/m 8,3 kts (3 Bft) N 360 0 min 0,0 UV-I 0 W/m -3,2 C -9,5 C 8,7 kts (3 Bft) 100,00 %
02.12.2023 05:55 -1,9 C 91 % 1001,5 hPa 0,0 l/m 8,7 kts (3 Bft) N-NW 336 0 min 0,0 UV-I 0 W/m -3,2 C -10,0 C 9,6 kts (3 Bft) 100,00 %
02.12.2023 05:54 -1,9 C 91 % 1001,5 hPa 0,0 l/m 8,5 kts (3 Bft) N 10 0 min 0,0 UV-I 0 W/m -3,2 C -9,7 C 9,6 kts (3 Bft) 100,00 %
02.12.2023 05:53 -1,9 C 91 % 1001,5 hPa 0,0 l/m 8,0 kts (3 Bft) N-NW 342 0 min 0,0 UV-I 0 W/m -3,2 C -9,2 C 9,6 kts (3 Bft) 100,00 %
02.12.2023 05:52 -1,9 C 91 % 1001,5 hPa 0,0 l/m 8,6 kts (3 Bft) N-NW 332 0 min 0,0 UV-I 0 W/m -3,2 C -9,9 C 9,6 kts (3 Bft) 100,00 %
02.12.2023 05:51 -1,9 C 91 % 1001,6 hPa 0,0 l/m 8,4 kts (3 Bft) N-NW 335 0 min 0,0 UV-I 0 W/m -3,2 C -9,7 C 9,6 kts (3 Bft) 100,00 %
02.12.2023 05:50 -1,9 C 91 % 1001,5 hPa 0,0 l/m 8,5 kts (3 Bft) N-NW 337 0 min 0,0 UV-I 0 W/m -3,2 C -9,8 C 9,6 kts (3 Bft) 100,00 %
02.12.2023 05:49 -1,9 C 91 % 1001,5 hPa 0,0 l/m 7,4 kts (3 Bft) N-NW 345 0 min 0,0 UV-I 0 W/m -3,2 C -8,4 C 8,7 kts (3 Bft) 100,00 %
02.12.2023 05:48 -1,9 C 91 % 1001,6 hPa 0,0 l/m 8,1 kts (3 Bft) N-NW 338 0 min 0,0 UV-I 0 W/m -3,2 C -9,3 C 8,7 kts (3 Bft) 100,00 %
02.12.2023 05:47 -1,9 C 91 % 1001,6 hPa 0,0 l/m 8,2 kts (3 Bft) N-NW 344 0 min 0,0 UV-I 0 W/m -3,2 C -9,3 C 8,7 kts (3 Bft) 100,00 %
02.12.2023 05:46 -1,9 C 91 % 1001,6 hPa 0,0 l/m 7,8 kts (3 Bft) N-NW 334 0 min 0,0 UV-I 0 W/m -3,2 C -8,9 C 8,7 kts (3 Bft) 100,00 %
02.12.2023 05:45 -1,9 C 91 % 1001,6 hPa 0,0 l/m 7,9 kts (3 Bft) N-NW 331 0 min 0,0 UV-I 0 W/m -3,2 C -9,0 C 8,7 kts (3 Bft) 100,00 %
02.12.2023 05:44 -1,9 C 91 % 1001,6 hPa 0,0 l/m 7,9 kts (3 Bft) N 355 0 min 0,0 UV-I 0 W/m -3,2 C -9,1 C 8,7 kts (3 Bft) 100,00 %
02.12.2023 05:43 -1,9 C 91 % 1001,6 hPa 0,0 l/m 7,7 kts (3 Bft) N-NW 348 0 min 0,0 UV-I 0 W/m -3,2 C -8,8 C 8,7 kts (3 Bft) 100,00 %
02.12.2023 05:42 -1,9 C 91 % 1001,6 hPa 0,0 l/m 7,7 kts (3 Bft) N-NW 348 0 min 0,0 UV-I 0 W/m -3,2 C -8,8 C 8,7 kts (3 Bft) 100,00 %
02.12.2023 05:41 -1,9 C 91 % 1001,5 hPa 0,0 l/m 7,2 kts (3 Bft) N 351 0 min 0,0 UV-I 0 W/m -3,2 C -8,2 C 8,7 kts (3 Bft) 100,00 %
02.12.2023 05:40 -1,9 C 91 % 1001,6 hPa 0,0 l/m 7,7 kts (3 Bft) N 349 0 min 0,0 UV-I 0 W/m -3,2 C -8,8 C 8,7 kts (3 Bft) 100,00 %
02.12.2023 05:39 -1,8 C 91 % 1001,6 hPa 0,0 l/m 7,6 kts (3 Bft) N-NW 346 0 min 0,0 UV-I 0 W/m -3,1 C -8,6 C 8,7 kts (3 Bft) 100,00 %
02.12.2023 05:38 -1,8 C 91 % 1001,6 hPa 0,0 l/m 8,5 kts (3 Bft) N-NW 340 0 min 0,0 UV-I 0 W/m -3,1 C -9,6 C 9,6 kts (3 Bft) 100,00 %
02.12.2023 05:37 -1,8 C 91 % 1001,6 hPa 0,0 l/m 7,2 kts (3 Bft) N-NW 331 0 min 0,0 UV-I 0 W/m -3,1 C -8,1 C 8,7 kts (3 Bft) 96,15 %
02.12.2023 05:36 -1,8 C 91 % 1001,6 hPa 0,0 l/m 7,5 kts (3 Bft) N-NW 340 0 min 0,0 UV-I 0 W/m -3,1 C -8,4 C 7,8 kts (3 Bft) 100,00 %
02.12.2023 05:35 -1,8 C 91 % 1001,6 hPa 0,0 l/m 7,5 kts (3 Bft) N-NW 339 0 min 0,0 UV-I 0 W/m -3,1 C -8,4 C 8,7 kts (3 Bft) 100,00 %
02.12.2023 05:34 -1,8 C 91 % 1001,7 hPa 0,0 l/m 6,6 kts (3 Bft) N-NW 327 0 min 0,0 UV-I 0 W/m -3,1 C -7,3 C 8,7 kts (3 Bft) 100,00 %
02.12.2023 05:33 -1,8 C 91 % 1001,7 hPa 0,0 l/m 6,3 kts (2 Bft) N-NW 342 0 min 0,0 UV-I 0 W/m -3,1 C -6,8 C 7,8 kts (3 Bft) 100,00 %
02.12.2023 05:32 -1,8 C 91 % 1001,6 hPa 0,0 l/m 6,5 kts (2 Bft) N-NW 335 0 min 0,0 UV-I 0 W/m -3,1 C -7,2 C 7,0 kts (3 Bft) 100,00 %
02.12.2023 05:31 -1,8 C 91 % 1001,6 hPa 0,0 l/m 7,0 kts (3 Bft) N-NW 338 0 min 0,0 UV-I 0 W/m -3,1 C -7,8 C 7,8 kts (3 Bft) 100,00 %
02.12.2023 05:30 -1,8 C 91 % 1001,5 hPa 0,0 l/m 5,7 kts (2 Bft) N-NW 344 0 min 0,0 UV-I 0 W/m -3,1 C -5,9 C 7,0 kts (3 Bft) 100,00 %
02.12.2023 05:29 -1,8 C 91 % 1001,5 hPa 0,0 l/m 5,0 kts (2 Bft) N-NW 331 0 min 0,0 UV-I 0 W/m -3,1 C -4,7 C 7,0 kts (3 Bft) 100,00 %
02.12.2023 05:28 -1,8 C 91 % 1001,5 hPa 0,0 l/m 4,8 kts (2 Bft) N-NW 333 0 min 0,0 UV-I 0 W/m -3,1 C -4,4 C 5,2 kts (2 Bft) 99,10 %
02.12.2023 05:27 -1,8 C 91 % 1001,6 hPa 0,0 l/m 5,7 kts (2 Bft) N 5 0 min 0,0 UV-I 0 W/m -3,1 C -5,9 C 7,0 kts (3 Bft) 100,00 %
02.12.2023 05:26 -1,8 C 91 % 1001,6 hPa 0,0 l/m 6,0 kts (2 Bft) N-NW 333 0 min 0,0 UV-I 0 W/m -3,1 C -6,4 C 7,8 kts (3 Bft) 100,00 %
02.12.2023 05:25 -1,8 C 91 % 1001,4 hPa 0,0 l/m 5,9 kts (2 Bft) N-NW 328 0 min 0,0 UV-I 0 W/m -3,1 C -6,2 C 7,8 kts (3 Bft) 100,00 %
02.12.2023 05:24 -1,8 C 91 % 1001,4 hPa 0,0 l/m 6,9 kts (3 Bft) N-NW 342 0 min 0,0 UV-I 0 W/m -3,1 C -7,6 C 7,8 kts (3 Bft) 100,00 %
02.12.2023 05:23 -1,8 C 91 % 1001,4 hPa 0,0 l/m 7,9 kts (3 Bft) N 351 0 min 0,0 UV-I 0 W/m -3,1 C -8,9 C 8,7 kts (3 Bft) 100,00 %
02.12.2023 05:22 -1,8 C 91 % 1001,4 hPa 0,0 l/m 7,0 kts (3 Bft) N 5 0 min 0,0 UV-I 0 W/m -3,1 C -7,8 C 7,8 kts (3 Bft) 95,65 %
02.12.2023 05:21 -1,8 C 91 % 1001,4 hPa 0,0 l/m 6,3 kts (2 Bft) N 360 0 min 0,0 UV-I 0 W/m -3,1 C -6,8 C 7,8 kts (3 Bft) 100,00 %
02.12.2023 05:20 -1,8 C 91 % 1001,5 hPa 0,0 l/m 4,9 kts (2 Bft) N-NW 336 0 min 0,0 UV-I 0 W/m -3,1 C -4,6 C 7,0 kts (3 Bft) 95,65 %
02.12.2023 05:19 -1,8 C 91 % 1001,5 hPa 0,0 l/m 6,2 kts (2 Bft) N-NW 345 0 min 0,0 UV-I 0 W/m -3,1 C -6,7 C 7,8 kts (3 Bft) 100,00 %
02.12.2023 05:18 -1,8 C 91 % 1001,4 hPa 0,0 l/m 6,5 kts (2 Bft) N-NW 345 0 min 0,0 UV-I 0 W/m -3,1 C -7,2 C 7,8 kts (3 Bft) 96,55 %
02.12.2023 05:17 -1,8 C 91 % 1001,3 hPa 0,0 l/m 7,2 kts (3 Bft) N-NW 346 0 min 0,0 UV-I 0 W/m -3,1 C -8,1 C 8,7 kts (3 Bft) 100,00 %
02.12.2023 05:16 -1,8 C 91 % 1001,4 hPa 0,0 l/m 7,0 kts (3 Bft) N 360 0 min 0,0 UV-I 0 W/m -3,1 C -7,8 C 7,8 kts (3 Bft) 100,00 %
02.12.2023 05:15 -1,8 C 91 % 1001,4 hPa 0,0 l/m 6,7 kts (3 Bft) N 360 0 min 0,0 UV-I 0 W/m -3,1 C -7,4 C 7,8 kts (3 Bft) 100,00 %
02.12.2023 05:14 -1,8 C 91 % 1001,3 hPa 0,0 l/m 6,7 kts (3 Bft) N-NW 342 0 min 0,0 UV-I 0 W/m -3,1 C -7,4 C 8,7 kts (3 Bft) 95,83 %
02.12.2023 05:13 -1,8 C 91 % 1001,3 hPa 0,0 l/m 7,0 kts (3 Bft) N-NW 333 0 min 0,0 UV-I 0 W/m -3,1 C -7,8 C 9,6 kts (3 Bft) 100,00 %
02.12.2023 05:12 -1,8 C 91 % 1001,3 hPa 0,0 l/m 8,3 kts (3 Bft) N 5 0 min 0,0 UV-I 0 W/m -3,1 C -9,4 C 9,6 kts (3 Bft) 100,00 %
02.12.2023 05:11 -1,8 C 91 % 1001,2 hPa 0,0 l/m 6,5 kts (2 Bft) N 355 0 min 0,0 UV-I 0 W/m -3,1 C -7,2 C 8,7 kts (3 Bft) 100,00 %
02.12.2023 05:10 -1,8 C 91 % 1001,3 hPa 0,0 l/m 7,4 kts (3 Bft) N 355 0 min 0,0 UV-I 0 W/m -3,1 C -8,3 C 8,7 kts (3 Bft) 100,00 %
02.12.2023 05:09 -1,7 C 91 % 1001,2 hPa 0,0 l/m 6,3 kts (2 Bft) N 355 0 min 0,0 UV-I 0 W/m -3,0 C -6,7 C 7,0 kts (3 Bft) 100,00 %
02.12.2023 05:08 -1,8 C 91 % 1001,2 hPa 0,0 l/m 7,7 kts (3 Bft) N 355 0 min 0,0 UV-I 0 W/m -3,1 C -8,6 C 9,6 kts (3 Bft) 93,33 %
02.12.2023 05:07 -1,7 C 91 % 1001,1 hPa 0,0 l/m 6,3 kts (2 Bft) N 355 0 min 0,0 UV-I 0 W/m -3,0 C -6,7 C 7,8 kts (3 Bft) 100,00 %
02.12.2023 05:06 -1,7 C 91 % 1001,1 hPa 0,0 l/m 8,1 kts (3 Bft) N 355 0 min 0,0 UV-I 0 W/m -3,0 C -9,0 C 9,6 kts (3 Bft) 100,00 %
02.12.2023 05:05 -1,7 C 91 % 1001,1 hPa 0,0 l/m 6,6 kts (3 Bft) N 355 0 min 0,0 UV-I 0 W/m -3,0 C -7,2 C 9,6 kts (3 Bft) 100,00 %
02.12.2023 05:02 -1,7 C 91 % 1001,2 hPa 0,0 l/m 7,0 kts (3 Bft) N-NW 337 0 min 0,0 UV-I 0 W/m -3,0 C -7,6 C 0,0 kts (0 Bft) 86,96 %
02.12.2023 05:01 -1,7 C 91 % 1001,1 hPa 0,0 l/m 6,1 kts (2 Bft) N 360 0 min 0,0 UV-I 0 W/m -3,0 C -6,4 C 0,0 kts (0 Bft) 86,96 %
02.12.2023 05:00 -1,7 C 91 % 1001,1 hPa 0,0 l/m 6,1 kts (2 Bft) N 360 0 min 0,0 UV-I 0 W/m -3,0 C -6,4 C 0,0 kts (0 Bft) 86,96 %
02.12.2023 04:59 -1,7 C 91 % 1001,2 hPa 0,0 l/m 7,8 kts (3 Bft) N 360 0 min 0,0 UV-I 0 W/m -3,0 C -8,7 C 0,0 kts (0 Bft) 86,96 %
02.12.2023 04:58 -1,7 C 91 % 1001,1 hPa 0,0 l/m 7,0 kts (3 Bft) N 360 0 min 0,0 UV-I 0 W/m -3,0 C -7,6 C 0,0 kts (0 Bft) 86,96 %
02.12.2023 04:57 -1,7 C 91 % 1001,1 hPa 0,0 l/m 7,0 kts (3 Bft) N 360 0 min 0,0 UV-I 0 W/m -3,0 C -7,6 C 0,0 kts (0 Bft) 86,96 %
02.12.2023 04:56 -1,7 C 91 % 1001,1 hPa 0,0 l/m 7,8 kts (3 Bft) N 360 0 min 0,0 UV-I 0 W/m -3,0 C -8,7 C 0,0 kts (0 Bft) 86,96 %
02.12.2023 04:55 -1,7 C 91 % 1001,0 hPa 0,0 l/m 7,8 kts (3 Bft) N 360 0 min 0,0 UV-I 0 W/m -3,0 C -8,7 C 0,0 kts (0 Bft) 86,96 %
02.12.2023 04:54 -1,7 C 91 % 1001,0 hPa 0,0 l/m 7,8 kts (3 Bft) N 360 0 min 0,0 UV-I 0 W/m -3,0 C -8,7 C 0,0 kts (0 Bft) 86,96 %
02.12.2023 04:53 -1,7 C 91 % 1001,0 hPa 0,0 l/m 8,7 kts (3 Bft) N 360 0 min 0,0 UV-I 0 W/m -3,0 C -9,7 C 0,0 kts (0 Bft) 86,96 %
02.12.2023 04:52 -1,7 C 91 % 1000,9 hPa 0,0 l/m 7,8 kts (3 Bft) N 360 0 min 0,0 UV-I 0 W/m -3,0 C -8,7 C 0,0 kts (0 Bft) 86,96 %
02.12.2023 04:51 -1,7 C 91 % 1001,0 hPa 0,0 l/m 9,6 kts (3 Bft) N 360 0 min 0,0 UV-I 0 W/m -3,0 C -10,6 C 0,0 kts (0 Bft) 86,96 %
02.12.2023 04:50 -1,7 C 91 % 1001,0 hPa 0,0 l/m 7,8 kts (3 Bft) N 360 0 min 0,0 UV-I 0 W/m -3,0 C -8,7 C 0,0 kts (0 Bft) 86,96 %
02.12.2023 04:49 -1,7 C 91 % 1001,0 hPa 0,0 l/m 7,0 kts (3 Bft) N 360 0 min 0,0 UV-I 0 W/m -3,0 C -7,6 C 0,0 kts (0 Bft) 86,96 %
02.12.2023 04:48 -1,7 C 91 % 1001,0 hPa 0,0 l/m 6,1 kts (2 Bft) N 360 0 min 0,0 UV-I 0 W/m -3,0 C -6,4 C 0,0 kts (0 Bft) 86,96 %
02.12.2023 04:47 -1,7 C 91 % 1000,9 hPa 0,0 l/m 8,7 kts (3 Bft) N 360 0 min 0,0 UV-I 0 W/m -3,0 C -9,7 C 0,0 kts (0 Bft) 86,96 %
02.12.2023 04:46 -1,7 C 91 % 1001,0 hPa 0,0 l/m 8,7 kts (3 Bft) N 360 0 min 0,0 UV-I 0 W/m -3,0 C -9,7 C 0,0 kts (0 Bft) 86,96 %
02.12.2023 04:45 -1,7 C 91 % 1001,0 hPa 0,0 l/m 7,8 kts (3 Bft) N 360 0 min 0,0 UV-I 0 W/m -3,0 C -8,7 C 0,0 kts (0 Bft) 86,96 %
02.12.2023 04:44 -1,7 C 91 % 1001,0 hPa 0,0 l/m 7,8 kts (3 Bft) N 360 0 min 0,0 UV-I 0 W/m -3,0 C -8,7 C 0,0 kts (0 Bft) 86,96 %
02.12.2023 04:43 -1,7 C 91 % 1001,0 hPa 0,0 l/m 7,8 kts (3 Bft) N 360 0 min 0,0 UV-I 0 W/m -3,0 C -8,7 C 0,0 kts (0 Bft) 86,96 %
02.12.2023 04:42 -1,7 C 91 % 1001,0 hPa 0,0 l/m 6,1 kts (2 Bft) N 360 0 min 0,0 UV-I 0 W/m -3,0 C -6,4 C 0,0 kts (0 Bft) 86,96 %
02.12.2023 04:41 -1,7 C 91 % 1001,0 hPa 0,0 l/m 8,7 kts (3 Bft) N 360 0 min 0,0 UV-I 0 W/m -3,0 C -9,7 C 0,0 kts (0 Bft) 86,96 %
02.12.2023 04:40 -1,7 C 91 % 1001,0 hPa 0,0 l/m 8,7 kts (3 Bft) N 360 0 min 0,0 UV-I 0 W/m -3,0 C -9,7 C 0,0 kts (0 Bft) 86,96 %
02.12.2023 04:39 -1,7 C 91 % 1001,0 hPa 0,0 l/m 7,8 kts (3 Bft) N 360 0 min 0,0 UV-I 0 W/m -3,0 C -8,7 C 0,0 kts (0 Bft) 86,96 %
02.12.2023 04:38 -1,7 C 91 % 1001,0 hPa 0,0 l/m 7,0 kts (3 Bft) N 360 0 min 0,0 UV-I 0 W/m -3,0 C -7,6 C 0,0 kts (0 Bft) 86,96 %
02.12.2023 04:37 -1,7 C 91 % 1000,9 hPa 0,0 l/m 7,8 kts (3 Bft) N 360 0 min 0,0 UV-I 0 W/m -3,0 C -8,7 C 0,0 kts (0 Bft) 86,96 %
02.12.2023 04:36 -1,7 C 91 % 1001,0 hPa 0,0 l/m 8,7 kts (3 Bft) N 360 0 min 0,0 UV-I 0 W/m -3,0 C -9,7 C 0,0 kts (0 Bft) 86,96 %
02.12.2023 04:35 -1,6 C 91 % 1001,0 hPa 0,0 l/m 7,8 kts (3 Bft) N 360 0 min 0,0 UV-I 0 W/m -2,9 C -8,6 C 0,0 kts (0 Bft) 86,96 %
02.12.2023 04:34 -1,6 C 91 % 1001,0 hPa 0,0 l/m 7,8 kts (3 Bft) N 360 0 min 0,0 UV-I 0 W/m -2,9 C -8,6 C 0,0 kts (0 Bft) 86,96 %
02.12.2023 04:33 -1,7 C 91 % 1001,0 hPa 0,0 l/m 7,0 kts (3 Bft) N 360 0 min 0,0 UV-I 0 W/m -3,0 C -7,6 C 0,0 kts (0 Bft) 86,96 %
02.12.2023 04:32 -1,6 C 91 % 1001,1 hPa 0,0 l/m 7,0 kts (3 Bft) N 360 0 min 0,0 UV-I 0 W/m -2,9 C -7,5 C 0,0 kts (0 Bft) 86,96 %
02.12.2023 04:31 -1,6 C 91 % 1001,1 hPa 0,0 l/m 7,0 kts (3 Bft) N 360 0 min 0,0 UV-I 0 W/m -2,9 C -7,5 C 0,0 kts (0 Bft) 86,96 %
02.12.2023 04:30 -1,6 C 91 % 1001,0 hPa 0,0 l/m 7,8 kts (3 Bft) N 360 0 min 0,0 UV-I 0 W/m -2,9 C -8,6 C 0,0 kts (0 Bft) 86,96 %
02.12.2023 04:29 -1,6 C 91 % 1001,1 hPa 0,0 l/m 7,0 kts (3 Bft) N 360 0 min 0,0 UV-I 0 W/m -2,9 C -7,5 C 0,0 kts (0 Bft) 86,96 %
02.12.2023 04:28 -1,6 C 91 % 1001,0 hPa 0,0 l/m 8,7 kts (3 Bft) N 360 0 min 0,0 UV-I 0 W/m -2,9 C -9,6 C 0,0 kts (0 Bft) 82,61 %
02.12.2023 04:27 -1,6 C 91 % 1001,0 hPa 0,0 l/m 8,7 kts (3 Bft) N 360 0 min 0,0 UV-I 0 W/m -2,9 C -9,6 C 0,0 kts (0 Bft) 82,61 %
02.12.2023 04:26 -1,6 C 91 % 1001,0 hPa 0,0 l/m 7,8 kts (3 Bft) N 360 0 min 0,0 UV-I 0 W/m -2,9 C -8,6 C 0,0 kts (0 Bft) 86,96 %
02.12.2023 04:25 -1,7 C 91 % 1000,9 hPa 0,0 l/m 8,7 kts (3 Bft) N 360 0 min 0,0 UV-I 0 W/m -3,0 C -9,7 C 0,0 kts (0 Bft) 86,96 %
02.12.2023 04:24 -1,6 C 91 % 1001,0 hPa 0,0 l/m 9,6 kts (3 Bft) N 360 0 min 0,0 UV-I 0 W/m -2,9 C -10,5 C 0,0 kts (0 Bft) 86,96 %
02.12.2023 04:23 -1,6 C 91 % 1000,9 hPa 0,0 l/m 8,7 kts (3 Bft) N 360 0 min 0,0 UV-I 0 W/m -2,9 C -9,6 C 0,0 kts (0 Bft) 86,96 %
02.12.2023 04:22 -1,6 C 91 % 1000,9 hPa 0,0 l/m 8,7 kts (3 Bft) N 360 0 min 0,0 UV-I 0 W/m -2,9 C -9,6 C 0,0 kts (0 Bft) 86,96 %
02.12.2023 04:21 -1,6 C 91 % 1000,9 hPa 0,0 l/m 7,8 kts (3 Bft) N 360 0 min 0,0 UV-I 0 W/m -2,9 C -8,6 C 0,0 kts (0 Bft) 86,96 %
02.12.2023 04:20 -1,6 C 91 % 1001,0 hPa 0,0 l/m 7,8 kts (3 Bft) N 360 0 min 0,0 UV-I 0 W/m -2,9 C -8,6 C 0,0 kts (0 Bft) 86,96 %
02.12.2023 04:19 -1,6 C 91 % 1001,3 hPa 0,0 l/m 7,8 kts (3 Bft) N 360 0 min 0,0 UV-I 0 W/m -2,9 C -8,6 C 0,0 kts (0 Bft) 86,96 %
02.12.2023 04:18 -1,6 C 91 % 1001,2 hPa 0,0 l/m 7,8 kts (3 Bft) N 360 0 min 0,0 UV-I 0 W/m -2,9 C -8,6 C 0,0 kts (0 Bft) 86,96 %
02.12.2023 04:17 -1,6 C 91 % 1001,2 hPa 0,0 l/m 7,8 kts (3 Bft) N 360 0 min 0,0 UV-I 0 W/m -2,9 C -8,6 C 0,0 kts (0 Bft) 86,96 %
02.12.2023 04:16 -1,6 C 91 % 1001,2 hPa 0,0 l/m 7,0 kts (3 Bft) N 360 0 min 0,0 UV-I 0 W/m -2,9 C -7,5 C 0,0 kts (0 Bft) 86,96 %
02.12.2023 04:15 -1,6 C 91 % 1001,2 hPa 0,0 l/m 7,8 kts (3 Bft) N 360 0 min 0,0 UV-I 0 W/m -2,9 C -8,6 C 0,0 kts (0 Bft) 86,96 %
02.12.2023 04:14 -1,6 C 91 % 1001,2 hPa 0,0 l/m 7,8 kts (3 Bft) N 360 0 min 0,0 UV-I 0 W/m -2,9 C -8,6 C 0,0 kts (0 Bft) 86,96 %
02.12.2023 04:13 -1,6 C 91 % 1001,2 hPa 0,0 l/m 7,8 kts (3 Bft) N 360 0 min 0,0 UV-I 0 W/m -2,9 C -8,6 C 0,0 kts (0 Bft) 86,96 %
02.12.2023 04:12 -1,6 C 91 % 1001,2 hPa 0,0 l/m 7,8 kts (3 Bft) N 360 0 min 0,0 UV-I 0 W/m -2,9 C -8,6 C 0,0 kts (0 Bft) 86,96 %
02.12.2023 04:11 -1,6 C 91 % 1001,1 hPa 0,0 l/m 7,0 kts (3 Bft) N 360 0 min 0,0 UV-I 0 W/m -2,9 C -7,5 C 0,0 kts (0 Bft) 86,96 %
02.12.2023 04:10 -1,6 C 91 % 1001,3 hPa 0,0 l/m 7,8 kts (3 Bft) N 360 0 min 0,0 UV-I 0 W/m -2,9 C -8,6 C 0,0 kts (0 Bft) 86,96 %
02.12.2023 04:09 -1,6 C 91 % 1001,3 hPa 0,0 l/m 8,7 kts (3 Bft) N-NO 22 0 min 0,0 UV-I 0 W/m -2,9 C -9,6 C 0,0 kts (0 Bft) 86,96 %
02.12.2023 04:08 -1,6 C 91 % 1001,3 hPa 0,0 l/m 7,8 kts (3 Bft) N 360 0 min 0,0 UV-I 0 W/m -2,9 C -8,6 C 0,0 kts (0 Bft) 86,96 %
02.12.2023 04:07 -1,6 C 91 % 1001,3 hPa 0,0 l/m 6,1 kts (2 Bft) N 360 0 min 0,0 UV-I 0 W/m -2,9 C -6,3 C 0,0 kts (0 Bft) 86,96 %
02.12.2023 04:06 -1,6 C 91 % 1001,2 hPa 0,0 l/m 7,0 kts (3 Bft) N 360 0 min 0,0 UV-I 0 W/m -2,9 C -7,5 C 0,0 kts (0 Bft) 86,96 %
02.12.2023 04:05 -1,6 C 91 % 1001,3 hPa 0,0 l/m 7,8 kts (3 Bft) N 360 0 min 0,0 UV-I 0 W/m -2,9 C -8,6 C 0,0 kts (0 Bft) 86,96 %
02.12.2023 04:04 -1,6 C 91 % 1001,3 hPa 0,0 l/m 7,0 kts (3 Bft) N-NO 22 0 min 0,0 UV-I 0 W/m -2,9 C -7,5 C 0,0 kts (0 Bft) 82,61 %
02.12.2023 04:03 -1,6 C 91 % 1001,3 hPa 0,0 l/m 7,0 kts (3 Bft) N-NO 22 0 min 0,0 UV-I 0 W/m -2,9 C -7,5 C 0,0 kts (0 Bft) 86,96 %
02.12.2023 04:02 -1,6 C 91 % 1001,3 hPa 0,0 l/m 7,8 kts (3 Bft) N-NO 22 0 min 0,0 UV-I 0 W/m -2,9 C -8,6 C 0,0 kts (0 Bft) 86,96 %
02.12.2023 04:01 -1,6 C 91 % 1001,3 hPa 0,0 l/m 8,7 kts (3 Bft) N-NO 22 0 min 0,0 UV-I 0 W/m -2,9 C -9,6 C 0,0 kts (0 Bft) 86,96 %
02.12.2023 04:00 -1,6 C 91 % 1001,4 hPa 0,0 l/m 7,8 kts (3 Bft) N 360 0 min 0,0 UV-I 0 W/m -2,9 C -8,6 C 0,0 kts (0 Bft) 86,96 %
02.12.2023 03:59 -1,6 C 91 % 1001,3 hPa 0,0 l/m 7,8 kts (3 Bft) N-NO 22 0 min 0,0 UV-I 0 W/m -2,9 C -8,6 C 0,0 kts (0 Bft) 86,96 %
02.12.2023 03:58 -1,6 C 91 % 1001,3 hPa 0,0 l/m 7,0 kts (3 Bft) N-NO 22 0 min 0,0 UV-I 0 W/m -2,9 C -7,5 C 0,0 kts (0 Bft) 86,96 %
02.12.2023 03:57 -1,5 C 91 % 1001,4 hPa 0,0 l/m 7,8 kts (3 Bft) N-NO 22 0 min 0,0 UV-I 0 W/m -2,8 C -8,5 C 0,0 kts (0 Bft) 86,96 %
02.12.2023 03:56 -1,6 C 91 % 1001,4 hPa 0,0 l/m 6,1 kts (2 Bft) N 360 0 min 0,0 UV-I 0 W/m -2,9 C -6,3 C 0,0 kts (0 Bft) 86,96 %
02.12.2023 03:55 -1,5 C 91 % 1001,4 hPa 0,0 l/m 7,8 kts (3 Bft) N-NO 22 0 min 0,0 UV-I 0 W/m -2,8 C -8,5 C 0,0 kts (0 Bft) 86,96 %
02.12.2023 03:54 -1,6 C 91 % 1001,4 hPa 0,0 l/m 7,8 kts (3 Bft) N 360 0 min 0,0 UV-I 0 W/m -2,9 C -8,6 C 0,0 kts (0 Bft) 86,96 %
02.12.2023 03:53 -1,5 C 91 % 1001,3 hPa 0,0 l/m 7,0 kts (3 Bft) N 360 0 min 0,0 UV-I 0 W/m -2,8 C -7,4 C 0,0 kts (0 Bft) 86,96 %
02.12.2023 03:52 -1,5 C 91 % 1001,4 hPa 0,0 l/m 7,8 kts (3 Bft) N 360 0 min 0,0 UV-I 0 W/m -2,8 C -8,5 C 0,0 kts (0 Bft) 86,96 %
02.12.2023 03:51 -1,6 C 91 % 1001,3 hPa 0,0 l/m 6,1 kts (2 Bft) N 360 0 min 0,0 UV-I 0 W/m -2,9 C -6,3 C 0,0 kts (0 Bft) 82,61 %
02.12.2023 03:50 -1,5 C 91 % 1001,3 hPa 0,0 l/m 7,0 kts (3 Bft) N 360 0 min 0,0 UV-I 0 W/m -2,8 C -7,4 C 0,0 kts (0 Bft) 82,61 %
02.12.2023 03:49 -1,5 C 91 % 1001,4 hPa 0,0 l/m 5,2 kts (2 Bft) N 360 0 min 0,0 UV-I 0 W/m -2,8 C -4,8 C 0,0 kts (0 Bft) 86,96 %
02.12.2023 03:48 -1,5 C 91 % 1001,3 hPa 0,0 l/m 6,1 kts (2 Bft) N 360 0 min 0,0 UV-I 0 W/m -2,8 C -6,2 C 0,0 kts (0 Bft) 78,26 %
02.12.2023 03:47 -1,5 C 91 % 1001,3 hPa 0,0 l/m 7,0 kts (3 Bft) N 360 0 min 0,0 UV-I 0 W/m -2,8 C -7,4 C 0,0 kts (0 Bft) 86,96 %
02.12.2023 03:46 -1,4 C 91 % 1001,2 hPa 0,0 l/m 7,0 kts (3 Bft) N 360 0 min 0,0 UV-I 0 W/m -2,7 C -7,3 C 0,0 kts (0 Bft) 86,96 %
02.12.2023 03:45 -1,5 C 91 % 1001,3 hPa 0,0 l/m 8,7 kts (3 Bft) N 360 0 min 0,0 UV-I 0 W/m -2,8 C -9,5 C 0,0 kts (0 Bft) 86,96 %
02.12.2023 03:44 -1,5 C 91 % 1001,3 hPa 0,0 l/m 7,8 kts (3 Bft) N 360 0 min 0,0 UV-I 0 W/m -2,8 C -8,5 C 0,0 kts (0 Bft) 86,96 %
02.12.2023 03:43 -1,5 C 91 % 1001,3 hPa 0,0 l/m 7,0 kts (3 Bft) N 360 0 min 0,0 UV-I 0 W/m -2,8 C -7,4 C 0,0 kts (0 Bft) 86,96 %
02.12.2023 03:42 -1,5 C 91 % 1001,4 hPa 0,0 l/m 6,1 kts (2 Bft) N-NO 22 0 min 0,0 UV-I 0 W/m -2,8 C -6,2 C 0,0 kts (0 Bft) 86,96 %
02.12.2023 03:41 -1,5 C 91 % 1001,4 hPa 0,0 l/m 7,0 kts (3 Bft) N 360 0 min 0,0 UV-I 0 W/m -2,8 C -7,4 C 0,0 kts (0 Bft) 86,96 %
02.12.2023 03:40 -1,4 C 91 % 1001,4 hPa 0,0 l/m 6,1 kts (2 Bft) N 360 0 min 0,0 UV-I 0 W/m -2,7 C -6,1 C 0,0 kts (0 Bft) 86,96 %
02.12.2023 03:39 -1,5 C 91 % 1001,5 hPa 0,0 l/m 7,0 kts (3 Bft) N 360 0 min 0,0 UV-I 0 W/m -2,8 C -7,4 C 0,0 kts (0 Bft) 86,96 %
02.12.2023 03:38 -1,5 C 91 % 1001,4 hPa 0,0 l/m 7,8 kts (3 Bft) N 360 0 min 0,0 UV-I 0 W/m -2,8 C -8,5 C 0,0 kts (0 Bft) 86,96 %
02.12.2023 03:37 -1,5 C 91 % 1001,4 hPa 0,0 l/m 7,8 kts (3 Bft) N 360 0 min 0,0 UV-I 0 W/m -2,8 C -8,5 C 0,0 kts (0 Bft) 86,96 %
02.12.2023 03:36 -1,4 C 91 % 1001,5 hPa 0,0 l/m 7,8 kts (3 Bft) N 360 0 min 0,0 UV-I 0 W/m -2,7 C -8,4 C 0,0 kts (0 Bft) 86,96 %
02.12.2023 03:35 -1,4 C 91 % 1001,6 hPa 0,0 l/m 7,0 kts (3 Bft) N 360 0 min 0,0 UV-I 0 W/m -2,7 C -7,3 C 0,0 kts (0 Bft) 86,96 %
02.12.2023 03:34 -1,4 C 91 % 1001,6 hPa 0,0 l/m 7,0 kts (3 Bft) N 360 0 min 0,0 UV-I 0 W/m -2,7 C -7,3 C 0,0 kts (0 Bft) 86,96 %
02.12.2023 03:33 -1,4 C 91 % 1001,6 hPa 0,0 l/m 7,0 kts (3 Bft) N-NO 22 0 min 0,0 UV-I 0 W/m -2,7 C -7,3 C 0,0 kts (0 Bft) 86,96 %
02.12.2023 03:32 -1,4 C 91 % 1001,5 hPa 0,0 l/m 7,0 kts (3 Bft) N-NO 22 0 min 0,0 UV-I 0 W/m -2,7 C -7,3 C 0,0 kts (0 Bft) 86,96 %
02.12.2023 03:31 -1,4 C 91 % 1001,6 hPa 0,0 l/m 7,0 kts (3 Bft) N-NO 22 0 min 0,0 UV-I 0 W/m -2,7 C -7,3 C 0,0 kts (0 Bft) 82,61 %
02.12.2023 03:30 -1,4 C 91 % 1001,6 hPa 0,0 l/m 7,8 kts (3 Bft) N-NO 22 0 min 0,0 UV-I 0 W/m -2,7 C -8,4 C 0,0 kts (0 Bft) 86,96 %
02.12.2023 03:29 -1,4 C 91 % 1001,7 hPa 0,0 l/m 8,7 kts (3 Bft) N-NO 22 0 min 0,0 UV-I 0 W/m -2,7 C -9,3 C 0,0 kts (0 Bft) 86,96 %
02.12.2023 03:28 -1,4 C 91 % 1002,2 hPa 0,0 l/m 7,8 kts (3 Bft) N 360 0 min 0,0 UV-I 0 W/m -2,7 C -8,4 C 0,0 kts (0 Bft) 86,96 %
02.12.2023 03:27 -1,4 C 91 % 1001,8 hPa 0,0 l/m 6,1 kts (2 Bft) N 360 0 min 0,0 UV-I 0 W/m -2,7 C -6,1 C 0,0 kts (0 Bft) 86,96 %
02.12.2023 03:26 -1,4 C 91 % 1001,9 hPa 0,0 l/m 6,1 kts (2 Bft) N 360 0 min 0,0 UV-I 0 W/m -2,7 C -6,1 C 0,0 kts (0 Bft) 86,96 %
02.12.2023 03:25 -1,4 C 91 % 1001,9 hPa 0,0 l/m 6,1 kts (2 Bft) N 360 0 min 0,0 UV-I 0 W/m -2,7 C -6,1 C 0,0 kts (0 Bft) 86,96 %
02.12.2023 03:24 -1,4 C 91 % 1001,8 hPa 0,0 l/m 7,8 kts (3 Bft) N-NO 22 0 min 0,0 UV-I 0 W/m -2,7 C -8,4 C 0,0 kts (0 Bft) 86,96 %
02.12.2023 03:23 -1,4 C 91 % 1001,8 hPa 0,0 l/m 7,8 kts (3 Bft) N 360 0 min 0,0 UV-I 0 W/m -2,7 C -8,4 C 0,0 kts (0 Bft) 86,96 %
02.12.2023 03:22 -1,4 C 91 % 1001,9 hPa 0,0 l/m 7,0 kts (3 Bft) N-NO 22 0 min 0,0 UV-I 0 W/m -2,7 C -7,3 C 0,0 kts (0 Bft) 86,96 %
02.12.2023 03:21 -1,4 C 91 % 1001,9 hPa 0,0 l/m 5,2 kts (2 Bft) N 360 0 min 0,0 UV-I 0 W/m -2,7 C -4,7 C 0,0 kts (0 Bft) 86,96 %
02.12.2023 03:20 -1,4 C 91 % 1001,9 hPa 0,0 l/m 5,2 kts (2 Bft) N-NO 22 0 min 0,0 UV-I 0 W/m -2,7 C -4,7 C 0,0 kts (0 Bft) 86,96 %
02.12.2023 03:19 -1,4 C 91 % 1001,9 hPa 0,0 l/m 6,1 kts (2 Bft) N 360 0 min 0,0 UV-I 0 W/m -2,7 C -6,1 C 0,0 kts (0 Bft) 86,96 %
02.12.2023 03:18 -1,4 C 91 % 1001,8 hPa 0,0 l/m 7,0 kts (3 Bft) N 360 0 min 0,0 UV-I 0 W/m -2,7 C -7,3 C 0,0 kts (0 Bft) 86,96 %
02.12.2023 03:17 -1,4 C 91 % 1001,8 hPa 0,0 l/m 7,8 kts (3 Bft) N 360 0 min 0,0 UV-I 0 W/m -2,7 C -8,4 C 0,0 kts (0 Bft) 86,96 %
02.12.2023 03:16 -1,4 C 91 % 1001,8 hPa 0,0 l/m 7,0 kts (3 Bft) N 360 0 min 0,0 UV-I 0 W/m -2,7 C -7,3 C 0,0 kts (0 Bft) 82,61 %
02.12.2023 03:15 -1,4 C 91 % 1001,8 hPa 0,0 l/m 7,8 kts (3 Bft) N 360 0 min 0,0 UV-I 0 W/m -2,7 C -8,4 C 0,0 kts (0 Bft) 86,96 %
02.12.2023 03:14 -1,4 C 91 % 1001,7 hPa 0,0 l/m 7,8 kts (3 Bft) N 360 0 min 0,0 UV-I 0 W/m -2,7 C -8,4 C 0,0 kts (0 Bft) 86,96 %
02.12.2023 03:13 -1,4 C 91 % 1001,8 hPa 0,0 l/m 7,0 kts (3 Bft) N 360 0 min 0,0 UV-I 0 W/m -2,7 C -7,3 C 0,0 kts (0 Bft) 86,96 %
02.12.2023 03:12 -1,4 C 91 % 1001,8 hPa 0,0 l/m 6,1 kts (2 Bft) N 360 0 min 0,0 UV-I 0 W/m -2,7 C -6,1 C 0,0 kts (0 Bft) 86,96 %
02.12.2023 03:11 -1,4 C 91 % 1001,9 hPa 0,0 l/m 6,1 kts (2 Bft) N-NO 22 0 min 0,0 UV-I 0 W/m -2,7 C -6,1 C 0,0 kts (0 Bft) 86,96 %
02.12.2023 03:10 -1,4 C 91 % 1001,9 hPa 0,0 l/m 7,0 kts (3 Bft) N-NO 22 0 min 0,0 UV-I 0 W/m -2,7 C -7,3 C 0,0 kts (0 Bft) 86,96 %
02.12.2023 03:09 -1,4 C 91 % 1001,8 hPa 0,0 l/m 6,1 kts (2 Bft) N 360 0 min 0,0 UV-I 0 W/m -2,7 C -6,1 C 0,0 kts (0 Bft) 86,96 %
02.12.2023 03:08 -1,4 C 91 % 1001,8 hPa 0,0 l/m 6,1 kts (2 Bft) N 360 0 min 0,0 UV-I 0 W/m -2,7 C -6,1 C 0,0 kts (0 Bft) 86,96 %
02.12.2023 03:07 -1,3 C 91 % 1001,7 hPa 0,0 l/m 6,1 kts (2 Bft) N 360 0 min 0,0 UV-I 0 W/m -2,6 C -6,0 C 0,0 kts (0 Bft) 86,96 %
02.12.2023 03:06 -1,3 C 91 % 1001,7 hPa 0,0 l/m 7,0 kts (3 Bft) N 360 0 min 0,0 UV-I 0 W/m -2,6 C -7,2 C 0,0 kts (0 Bft) 86,96 %
02.12.2023 03:05 -1,4 C 91 % 1001,9 hPa 0,0 l/m 6,1 kts (2 Bft) N 360 0 min 0,0 UV-I 0 W/m -2,7 C -6,1 C 0,0 kts (0 Bft) 82,61 %
02.12.2023 03:04 -1,4 C 91 % 1001,9 hPa 0,0 l/m 6,1 kts (2 Bft) N 360 0 min 0,0 UV-I 0 W/m -2,7 C -6,1 C 0,0 kts (0 Bft) 86,96 %
02.12.2023 03:03 -1,4 C 91 % 1001,8 hPa 0,0 l/m 7,0 kts (3 Bft) N 360 0 min 0,0 UV-I 0 W/m -2,7 C -7,3 C 0,0 kts (0 Bft) 86,96 %
02.12.2023 03:02 -1,4 C 91 % 1001,7 hPa 0,0 l/m 7,0 kts (3 Bft) N-NO 22 0 min 0,0 UV-I 0 W/m -2,7 C -7,3 C 0,0 kts (0 Bft) 86,96 %
02.12.2023 03:01 -1,4 C 91 % 1001,7 hPa 0,0 l/m 7,0 kts (3 Bft) N 360 0 min 0,0 UV-I 0 W/m -2,7 C -7,3 C 0,0 kts (0 Bft) 86,96 %
02.12.2023 03:00 -1,3 C 91 % 1001,7 hPa 0,0 l/m 6,1 kts (2 Bft) N 360 0 min 0,0 UV-I 0 W/m -2,6 C -6,0 C 0,0 kts (0 Bft) 86,96 %
02.12.2023 02:59 -1,4 C 91 % 1001,8 hPa 0,0 l/m 7,0 kts (3 Bft) N 360 0 min 0,0 UV-I 0 W/m -2,7 C -7,3 C 0,0 kts (0 Bft) 82,61 %
02.12.2023 02:58 -1,3 C 91 % 1001,7 hPa 0,0 l/m 7,0 kts (3 Bft) N-NO 22 0 min 0,0 UV-I 0 W/m -2,6 C -7,2 C 0,0 kts (0 Bft) 86,96 %
02.12.2023 02:57 -1,3 C 91 % 1001,9 hPa 0,0 l/m 7,0 kts (3 Bft) N-NO 22 0 min 0,0 UV-I 0 W/m -2,6 C -7,2 C 0,0 kts (0 Bft) 86,96 %
02.12.2023 02:56 -1,4 C 91 % 1001,9 hPa 0,0 l/m 6,1 kts (2 Bft) N-NO 22 0 min 0,0 UV-I 0 W/m -2,7 C -6,1 C 0,0 kts (0 Bft) 86,96 %
02.12.2023 02:55 -1,4 C 91 % 1001,9 hPa 0,0 l/m 6,1 kts (2 Bft) N-NO 22 0 min 0,0 UV-I 0 W/m -2,7 C -6,1 C 0,0 kts (0 Bft) 86,96 %
02.12.2023 02:54 -1,3 C 91 % 1001,9 hPa 0,0 l/m 6,1 kts (2 Bft) N-NO 22 0 min 0,0 UV-I 0 W/m -2,6 C -6,0 C 0,0 kts (0 Bft) 86,96 %
02.12.2023 02:53 -1,4 C 91 % 1001,9 hPa 0,0 l/m 7,0 kts (3 Bft) N-NO 22 0 min 0,0 UV-I 0 W/m -2,7 C -7,3 C 0,0 kts (0 Bft) 86,96 %
02.12.2023 02:52 -1,4 C 91 % 1001,9 hPa 0,0 l/m 7,8 kts (3 Bft) N-NO 22 0 min 0,0 UV-I 0 W/m -2,7 C -8,4 C 0,0 kts (0 Bft) 86,96 %
02.12.2023 02:51 -1,3 C 91 % 1001,9 hPa 0,0 l/m 7,0 kts (3 Bft) N-NO 22 0 min 0,0 UV-I 0 W/m -2,6 C -7,2 C 0,0 kts (0 Bft) 86,96 %
02.12.2023 02:50 -1,3 C 91 % 1001,9 hPa 0,0 l/m 5,2 kts (2 Bft) N-NO 22 0 min 0,0 UV-I 0 W/m -2,6 C -4,6 C 0,0 kts (0 Bft) 86,96 %
02.12.2023 02:49 -1,4 C 91 % 1001,9 hPa 0,0 l/m 6,1 kts (2 Bft) N-NO 22 0 min 0,0 UV-I 0 W/m -2,7 C -6,1 C 0,0 kts (0 Bft) 86,96 %
02.12.2023 02:48 -1,3 C 91 % 1002,0 hPa 0,0 l/m 7,0 kts (3 Bft) N-NO 22 0 min 0,0 UV-I 0 W/m -2,6 C -7,2 C 0,0 kts (0 Bft) 86,96 %
02.12.2023 02:47 -1,3 C 91 % 1001,9 hPa 0,0 l/m 7,0 kts (3 Bft) N 360 0 min 0,0 UV-I 0 W/m -2,6 C -7,2 C 0,0 kts (0 Bft) 86,96 %
02.12.2023 02:46 -1,3 C 91 % 1001,9 hPa 0,0 l/m 7,0 kts (3 Bft) N-NO 22 0 min 0,0 UV-I 0 W/m -2,6 C -7,2 C 0,0 kts (0 Bft) 82,61 %
02.12.2023 02:45 -1,3 C 91 % 1001,8 hPa 0,0 l/m 7,0 kts (3 Bft) N-NO 22 0 min 0,0 UV-I 0 W/m -2,6 C -7,2 C 0,0 kts (0 Bft) 86,96 %
02.12.2023 02:44 -1,3 C 91 % 1001,8 hPa 0,0 l/m 7,0 kts (3 Bft) N-NO 22 0 min 0,0 UV-I 0 W/m -2,6 C -7,2 C 0,0 kts (0 Bft) 86,96 %
02.12.2023 02:43 -1,3 C 91 % 1001,9 hPa 0,0 l/m 7,8 kts (3 Bft) N 360 0 min 0,0 UV-I 0 W/m -2,6 C -8,2 C 0,0 kts (0 Bft) 82,61 %
02.12.2023 02:42 -1,3 C 91 % 1001,9 hPa 0,0 l/m 7,8 kts (3 Bft) N 360 0 min 0,0 UV-I 0 W/m -2,6 C -8,2 C 0,0 kts (0 Bft) 86,96 %
02.12.2023 02:41 -1,3 C 91 % 1001,9 hPa 0,0 l/m 7,0 kts (3 Bft) N-NO 22 0 min 0,0 UV-I 0 W/m -2,6 C -7,2 C 0,0 kts (0 Bft) 86,96 %
02.12.2023 02:40 -1,3 C 91 % 1001,9 hPa 0,0 l/m 7,0 kts (3 Bft) N-NO 22 0 min 0,0 UV-I 0 W/m -2,6 C -7,2 C 0,0 kts (0 Bft) 86,96 %
02.12.2023 02:39 -1,3 C 91 % 1002,0 hPa 0,0 l/m 7,8 kts (3 Bft) N 360 0 min 0,0 UV-I 0 W/m -2,6 C -8,2 C 0,0 kts (0 Bft) 86,96 %
02.12.2023 02:38 -1,3 C 91 % 1002,0 hPa 0,0 l/m 7,0 kts (3 Bft) N 360 0 min 0,0 UV-I 0 W/m -2,6 C -7,2 C 0,0 kts (0 Bft) 86,96 %
02.12.2023 02:37 -1,3 C 91 % 1002,1 hPa 0,0 l/m 7,8 kts (3 Bft) N 360 0 min 0,0 UV-I 0 W/m -2,6 C -8,2 C 0,0 kts (0 Bft) 86,96 %
02.12.2023 02:36 -1,3 C 91 % 1002,0 hPa 0,0 l/m 7,8 kts (3 Bft) N 360 0 min 0,0 UV-I 0 W/m -2,6 C -8,2 C 0,0 kts (0 Bft) 86,96 %
02.12.2023 02:35 -1,3 C 91 % 1002,0 hPa 0,0 l/m 7,8 kts (3 Bft) N 360 0 min 0,0 UV-I 0 W/m -2,6 C -8,2 C 0,0 kts (0 Bft) 86,96 %
02.12.2023 02:34 -1,3 C 91 % 1002,0 hPa 0,0 l/m 7,0 kts (3 Bft) N 360 0 min 0,0 UV-I 0 W/m -2,6 C -7,2 C 0,0 kts (0 Bft) 86,96 %
02.12.2023 02:33 -1,3 C 91 % 1002,0 hPa 0,0 l/m 7,0 kts (3 Bft) N 360 0 min 0,0 UV-I 0 W/m -2,6 C -7,2 C 0,0 kts (0 Bft) 78,26 %
02.12.2023 02:32 -1,3 C 91 % 1001,9 hPa 0,0 l/m 7,0 kts (3 Bft) N 360 0 min 0,0 UV-I 0 W/m -2,6 C -7,2 C 0,0 kts (0 Bft) 86,96 %
02.12.2023 02:31 -1,3 C 91 % 1001,9 hPa 0,0 l/m 7,0 kts (3 Bft) N 360 0 min 0,0 UV-I 0 W/m -2,6 C -7,2 C 0,0 kts (0 Bft) 86,96 %
02.12.2023 02:30 -1,3 C 91 % 1001,9 hPa 0,0 l/m 7,0 kts (3 Bft) N 360 0 min 0,0 UV-I 0 W/m -2,6 C -7,2 C 0,0 kts (0 Bft) 86,96 %
02.12.2023 02:29 -1,3 C 91 % 1001,9 hPa 0,0 l/m 7,0 kts (3 Bft) N 360 0 min 0,0 UV-I 0 W/m -2,6 C -7,2 C 0,0 kts (0 Bft) 86,96 %
02.12.2023 02:28 -1,3 C 91 % 1001,9 hPa 0,0 l/m 6,1 kts (2 Bft) N 360 0 min 0,0 UV-I 0 W/m -2,6 C -6,0 C 0,0 kts (0 Bft) 86,96 %
02.12.2023 02:27 -1,3 C 91 % 1001,8 hPa 0,0 l/m 6,1 kts (2 Bft) N 360 0 min 0,0 UV-I 0 W/m -2,6 C -6,0 C 0,0 kts (0 Bft) 86,96 %
02.12.2023 02:26 -1,3 C 91 % 1001,6 hPa 0,0 l/m 6,1 kts (2 Bft) N 360 0 min 0,0 UV-I 0 W/m -2,6 C -6,0 C 0,0 kts (0 Bft) 82,61 %
02.12.2023 02:25 -1,3 C 91 % 1001,5 hPa 0,0 l/m 7,8 kts (3 Bft) N 360 0 min 0,0 UV-I 0 W/m -2,6 C -8,2 C 0,0 kts (0 Bft) 86,96 %
02.12.2023 02:24 -1,3 C 91 % 1001,5 hPa 0,0 l/m 7,0 kts (3 Bft) N-NO 22 0 min 0,0 UV-I 0 W/m -2,6 C -7,2 C 0,0 kts (0 Bft) 82,61 %
02.12.2023 02:23 -1,3 C 91 % 1001,6 hPa 0,0 l/m 7,0 kts (3 Bft) N 360 0 min 0,0 UV-I 0 W/m -2,6 C -7,2 C 0,0 kts (0 Bft) 86,96 %
02.12.2023 02:22 -1,3 C 91 % 1001,7 hPa 0,0 l/m 7,0 kts (3 Bft) N-NO 22 0 min 0,0 UV-I 0 W/m -2,6 C -7,2 C 0,0 kts (0 Bft) 82,61 %
02.12.2023 02:21 -1,3 C 91 % 1001,7 hPa 0,0 l/m 7,0 kts (3 Bft) N 360 0 min 0,0 UV-I 0 W/m -2,6 C -7,2 C 0,0 kts (0 Bft) 86,96 %
02.12.2023 02:20 -1,2 C 91 % 1001,6 hPa 0,0 l/m 7,8 kts (3 Bft) N-NO 22 0 min 0,0 UV-I 0 W/m -2,5 C -8,1 C 0,0 kts (0 Bft) 82,61 %
02.12.2023 02:19 -1,3 C 91 % 1001,7 hPa 0,0 l/m 6,1 kts (2 Bft) N-NO 22 0 min 0,0 UV-I 0 W/m -2,6 C -6,0 C 0,0 kts (0 Bft) 86,96 %
02.12.2023 02:18 -1,2 C 91 % 1001,8 hPa 0,0 l/m 7,0 kts (3 Bft) N 360 0 min 0,0 UV-I 0 W/m -2,5 C -7,0 C 0,0 kts (0 Bft) 82,61 %
02.12.2023 02:17 -1,2 C 91 % 1001,8 hPa 0,0 l/m 7,0 kts (3 Bft) N-NO 22 0 min 0,0 UV-I 0 W/m -2,5 C -7,0 C 0,0 kts (0 Bft) 86,96 %
02.12.2023 02:16 -1,3 C 91 % 1001,8 hPa 0,0 l/m 7,0 kts (3 Bft) N-NO 22 0 min 0,0 UV-I 0 W/m -2,6 C -7,2 C 0,0 kts (0 Bft) 82,61 %
02.12.2023 02:15 -1,2 C 91 % 1001,8 hPa 0,0 l/m 7,0 kts (3 Bft) N-NO 22 0 min 0,0 UV-I 0 W/m -2,5 C -7,0 C 0,0 kts (0 Bft) 86,96 %
02.12.2023 02:14 -1,2 C 91 % 1001,8 hPa 0,0 l/m 7,0 kts (3 Bft) N 360 0 min 0,0 UV-I 0 W/m -2,5 C -7,0 C 0,0 kts (0 Bft) 82,61 %
02.12.2023 02:13 -1,2 C 91 % 1001,8 hPa 0,0 l/m 5,2 kts (2 Bft) N 360 0 min 0,0 UV-I 0 W/m -2,5 C -4,5 C 0,0 kts (0 Bft) 82,61 %
02.12.2023 02:12 -1,2 C 91 % 1001,7 hPa 0,0 l/m 6,1 kts (2 Bft) N 360 0 min 0,0 UV-I 0 W/m -2,5 C -5,8 C 0,0 kts (0 Bft) 82,61 %
02.12.2023 02:11 -1,2 C 91 % 1001,7 hPa 0,0 l/m 7,0 kts (3 Bft) N 360 0 min 0,0 UV-I 0 W/m -2,5 C -7,0 C 0,0 kts (0 Bft) 86,96 %
02.12.2023 02:10 -1,2 C 91 % 1001,9 hPa 0,0 l/m 7,0 kts (3 Bft) N 360 0 min 0,0 UV-I 0 W/m -2,5 C -7,0 C 0,0 kts (0 Bft) 78,26 %
02.12.2023 02:09 -1,2 C 91 % 1002,0 hPa 0,0 l/m 6,1 kts (2 Bft) N 360 0 min 0,0 UV-I 0 W/m -2,5 C -5,8 C 0,0 kts (0 Bft) 86,96 %
02.12.2023 02:08 -1,2 C 91 % 1002,0 hPa 0,0 l/m 6,1 kts (2 Bft) N 360 0 min 0,0 UV-I 0 W/m -2,5 C -5,8 C 0,0 kts (0 Bft) 82,61 %
02.12.2023 02:07 -1,2 C 91 % 1001,9 hPa 0,0 l/m 4,3 kts (2 Bft) N 360 0 min 0,0 UV-I 0 W/m -2,5 C -2,9 C 0,0 kts (0 Bft) 86,96 %
02.12.2023 02:06 -1,2 C 91 % 1001,8 hPa 0,0 l/m 5,2 kts (2 Bft) N 360 0 min 0,0 UV-I 0 W/m -2,5 C -4,5 C 0,0 kts (0 Bft) 82,61 %
02.12.2023 02:05 -1,2 C 91 % 1001,8 hPa 0,0 l/m 4,3 kts (2 Bft) N 360 0 min 0,0 UV-I 0 W/m -2,5 C -2,9 C 0,0 kts (0 Bft) 86,96 %
02.12.2023 02:04 -1,2 C 91 % 1001,7 hPa 0,0 l/m 5,2 kts (2 Bft) N-NO 22 0 min 0,0 UV-I 0 W/m -2,5 C -4,5 C 0,0 kts (0 Bft) 82,61 %
02.12.2023 02:03 -1,2 C 91 % 1001,5 hPa 0,0 l/m 7,0 kts (3 Bft) N-NO 22 0 min 0,0 UV-I 0 W/m -2,5 C -7,0 C 0,0 kts (0 Bft) 86,96 %
02.12.2023 02:02 -1,2 C 91 % 1001,6 hPa 0,0 l/m 7,0 kts (3 Bft) N-NO 22 0 min 0,0 UV-I 0 W/m -2,5 C -7,0 C 0,0 kts (0 Bft) 82,61 %
02.12.2023 02:01 -1,2 C 91 % 1001,7 hPa 0,0 l/m 7,8 kts (3 Bft) N-NO 22 0 min 0,0 UV-I 0 W/m -2,5 C -8,1 C 0,0 kts (0 Bft) 82,61 %
02.12.2023 02:00 -1,2 C 91 % 1001,8 hPa 0,0 l/m 7,0 kts (3 Bft) N-NO 22 0 min 0,0 UV-I 0 W/m -2,5 C -7,0 C 0,0 kts (0 Bft) 82,61 %
02.12.2023 01:59 -1,2 C 91 % 1001,9 hPa 0,0 l/m 6,1 kts (2 Bft) N-NO 22 0 min 0,0 UV-I 0 W/m -2,5 C -5,8 C 0,0 kts (0 Bft) 86,96 %
02.12.2023 01:58 -1,2 C 91 % 1002,0 hPa 0,0 l/m 6,1 kts (2 Bft) N-NO 22 0 min 0,0 UV-I 0 W/m -2,5 C -5,8 C 0,0 kts (0 Bft) 82,61 %
02.12.2023 01:57 -1,2 C 91 % 1002,0 hPa 0,0 l/m 6,1 kts (2 Bft) N-NO 22 0 min 0,0 UV-I 0 W/m -2,5 C -5,8 C 0,0 kts (0 Bft) 86,96 %
02.12.2023 01:56 -1,2 C 91 % 1002,0 hPa 0,0 l/m 6,1 kts (2 Bft) N-NO 22 0 min 0,0 UV-I 0 W/m -2,5 C -5,8 C 0,0 kts (0 Bft) 82,61 %
02.12.2023 01:55 -1,2 C 91 % 1002,1 hPa 0,0 l/m 5,2 kts (2 Bft) N-NO 22 0 min 0,0 UV-I 0 W/m -2,5 C -4,5 C 0,0 kts (0 Bft) 86,96 %
02.12.2023 01:54 -1,2 C 91 % 1002,1 hPa 0,0 l/m 7,0 kts (3 Bft) N 360 0 min 0,0 UV-I 0 W/m -2,5 C -7,0 C 0,0 kts (0 Bft) 82,61 %
02.12.2023 01:53 -1,2 C 91 % 1002,0 hPa 0,0 l/m 5,2 kts (2 Bft) N 360 0 min 0,0 UV-I 0 W/m -2,5 C -4,5 C 0,0 kts (0 Bft) 86,96 %
02.12.2023 01:52 -1,2 C 91 % 1002,1 hPa 0,0 l/m 5,2 kts (2 Bft) N 360 0 min 0,0 UV-I 0 W/m -2,5 C -4,5 C 0,0 kts (0 Bft) 82,61 %
02.12.2023 01:51 -1,2 C 91 % 1002,1 hPa 0,0 l/m 5,2 kts (2 Bft) N 360 0 min 0,0 UV-I 0 W/m -2,5 C -4,5 C 0,0 kts (0 Bft) 86,96 %
02.12.2023 01:50 -1,2 C 91 % 1002,1 hPa 0,0 l/m 6,1 kts (2 Bft) N-NO 22 0 min 0,0 UV-I 0 W/m -2,5 C -5,8 C 0,0 kts (0 Bft) 82,61 %
02.12.2023 01:49 -1,2 C 91 % 1002,0 hPa 0,0 l/m 6,1 kts (2 Bft) N 360 0 min 0,0 UV-I 0 W/m -2,5 C -5,8 C 0,0 kts (0 Bft) 86,96 %
02.12.2023 01:48 -1,2 C 91 % 1002,0 hPa 0,0 l/m 7,0 kts (3 Bft) N-NO 22 0 min 0,0 UV-I 0 W/m -2,5 C -7,0 C 0,0 kts (0 Bft) 82,61 %
02.12.2023 01:47 -1,2 C 91 % 1002,1 hPa 0,0 l/m 7,0 kts (3 Bft) N-NO 22 0 min 0,0 UV-I 0 W/m -2,5 C -7,0 C 0,0 kts (0 Bft) 86,96 %
02.12.2023 01:46 -1,2 C 91 % 1002,2 hPa 0,0 l/m 7,0 kts (3 Bft) N-NO 22 0 min 0,0 UV-I 0 W/m -2,5 C -7,0 C 0,0 kts (0 Bft) 86,96 %
02.12.2023 01:45 -1,2 C 91 % 1002,2 hPa 0,0 l/m 5,2 kts (2 Bft) N 360 0 min 0,0 UV-I 0 W/m -2,5 C -4,5 C 0,0 kts (0 Bft) 82,61 %
02.12.2023 01:44 -1,2 C 91 % 1002,3 hPa 0,0 l/m 6,1 kts (2 Bft) N-NO 22 0 min 0,0 UV-I 0 W/m -2,5 C -5,8 C 0,0 kts (0 Bft) 86,96 %
02.12.2023 01:43 -1,2 C 91 % 1002,2 hPa 0,0 l/m 5,2 kts (2 Bft) N-NO 22 0 min 0,0 UV-I 0 W/m -2,5 C -4,5 C 0,0 kts (0 Bft) 82,61 %
02.12.2023 01:42 -1,2 C 91 % 1002,2 hPa 0,0 l/m 6,1 kts (2 Bft) N-NO 22 0 min 0,0 UV-I 0 W/m -2,5 C -5,8 C 0,0 kts (0 Bft) 86,96 %
02.12.2023 01:41 -1,2 C 91 % 1002,2 hPa 0,0 l/m 6,1 kts (2 Bft) N 360 0 min 0,0 UV-I 0 W/m -2,5 C -5,8 C 0,0 kts (0 Bft) 82,61 %
02.12.2023 01:40 -1,2 C 91 % 1002,2 hPa 0,0 l/m 7,0 kts (3 Bft) N-NO 22 0 min 0,0 UV-I 0 W/m -2,5 C -7,0 C 0,0 kts (0 Bft) 86,96 %
02.12.2023 01:39 -1,2 C 91 % 1002,2 hPa 0,0 l/m 7,0 kts (3 Bft) N-NO 22 0 min 0,0 UV-I 0 W/m -2,5 C -7,0 C 0,0 kts (0 Bft) 82,61 %
02.12.2023 01:38 -1,2 C 91 % 1002,3 hPa 0,0 l/m 6,1 kts (2 Bft) N-NO 22 0 min 0,0 UV-I 0 W/m -2,5 C -5,8 C 0,0 kts (0 Bft) 86,96 %
02.12.2023 01:37 -1,2 C 91 % 1002,2 hPa 0,0 l/m 7,0 kts (3 Bft) N 360 0 min 0,0 UV-I 0 W/m -2,5 C -7,0 C 0,0 kts (0 Bft) 82,61 %
02.12.2023 01:36 -1,2 C 91 % 1002,2 hPa 0,0 l/m 7,0 kts (3 Bft) N-NO 22 0 min 0,0 UV-I 0 W/m -2,5 C -7,0 C 0,0 kts (0 Bft) 86,96 %
02.12.2023 01:35 -1,2 C 91 % 1002,1 hPa 0,0 l/m 6,1 kts (2 Bft) N-NO 22 0 min 0,0 UV-I 0 W/m -2,5 C -5,8 C 0,0 kts (0 Bft) 82,61 %
02.12.2023 01:34 -1,2 C 91 % 1002,1 hPa 0,0 l/m 7,0 kts (3 Bft) N-NO 22 0 min 0,0 UV-I 0 W/m -2,5 C -7,0 C 0,0 kts (0 Bft) 86,96 %
02.12.2023 01:33 -1,1 C 91 % 1002,2 hPa 0,0 l/m 6,1 kts (2 Bft) N 360 0 min 0,0 UV-I 0 W/m -2,4 C -5,7 C 0,0 kts (0 Bft) 82,61 %
02.12.2023 01:32 -1,2 C 91 % 1002,2 hPa 0,0 l/m 7,8 kts (3 Bft) N-NO 22 0 min 0,0 UV-I 0 W/m -2,5 C -8,1 C 0,0 kts (0 Bft) 86,96 %
02.12.2023 01:31 -1,2 C 91 % 1002,2 hPa 0,0 l/m 7,0 kts (3 Bft) N-NO 22 0 min 0,0 UV-I 0 W/m -2,5 C -7,0 C 0,0 kts (0 Bft) 82,61 %
02.12.2023 01:30 -1,2 C 91 % 1002,2 hPa 0,0 l/m 7,0 kts (3 Bft) N-NO 22 0 min 0,0 UV-I 0 W/m -2,5 C -7,0 C 0,0 kts (0 Bft) 82,61 %
02.12.2023 01:29 -1,2 C 91 % 1002,2 hPa 0,0 l/m 7,0 kts (3 Bft) N 360 0 min 0,0 UV-I 0 W/m -2,5 C -7,0 C 0,0 kts (0 Bft) 82,61 %
02.12.2023 01:28 -1,1 C 91 % 1002,2 hPa 0,0 l/m 7,0 kts (3 Bft) N 360 0 min 0,0 UV-I 0 W/m -2,4 C -6,9 C 0,0 kts (0 Bft) 86,96 %
02.12.2023 01:27 -1,1 C 91 % 1002,2 hPa 0,0 l/m 6,1 kts (2 Bft) N-NO 22 0 min 0,0 UV-I 0 W/m -2,4 C -5,7 C 0,0 kts (0 Bft) 82,61 %
02.12.2023 01:26 -1,2 C 91 % 1002,2 hPa 0,0 l/m 6,1 kts (2 Bft) N 360 0 min 0,0 UV-I 0 W/m -2,5 C -5,8 C 0,0 kts (0 Bft) 86,96 %
02.12.2023 01:25 -1,2 C 91 % 1002,2 hPa 0,0 l/m 7,0 kts (3 Bft) N 360 0 min 0,0 UV-I 0 W/m -2,5 C -7,0 C 0,0 kts (0 Bft) 82,61 %
02.12.2023 01:24 -1,1 C 91 % 1002,4 hPa 0,0 l/m 7,0 kts (3 Bft) N 360 0 min 0,0 UV-I 0 W/m -2,4 C -6,9 C 0,0 kts (0 Bft) 86,96 %
02.12.2023 01:23 -1,1 C 91 % 1002,3 hPa 0,0 l/m 7,8 kts (3 Bft) N 360 0 min 0,0 UV-I 0 W/m -2,4 C -8,0 C 0,0 kts (0 Bft) 82,61 %
02.12.2023 01:22 -1,1 C 91 % 1002,4 hPa 0,0 l/m 7,8 kts (3 Bft) N 360 0 min 0,0 UV-I 0 W/m -2,4 C -8,0 C 0,0 kts (0 Bft) 86,96 %
02.12.2023 01:21 -1,2 C 91 % 1002,4 hPa 0,0 l/m 7,0 kts (3 Bft) N 360 0 min 0,0 UV-I 0 W/m -2,5 C -7,0 C 0,0 kts (0 Bft) 82,61 %
02.12.2023 01:20 -1,1 C 91 % 1002,4 hPa 0,0 l/m 6,1 kts (2 Bft) N 360 0 min 0,0 UV-I 0 W/m -2,4 C -5,7 C 0,0 kts (0 Bft) 86,96 %
02.12.2023 01:19 -1,1 C 91 % 1002,4 hPa 0,0 l/m 6,1 kts (2 Bft) N 360 0 min 0,0 UV-I 0 W/m -2,4 C -5,7 C 0,0 kts (0 Bft) 82,61 %
02.12.2023 01:18 -1,1 C 91 % 1002,4 hPa 0,0 l/m 7,0 kts (3 Bft) N 360 0 min 0,0 UV-I 0 W/m -2,4 C -6,9 C 0,0 kts (0 Bft) 86,96 %
02.12.2023 01:17 -1,1 C 91 % 1002,4 hPa 0,0 l/m 6,1 kts (2 Bft) N 360 0 min 0,0 UV-I 0 W/m -2,4 C -5,7 C 0,0 kts (0 Bft) 82,61 %
02.12.2023 01:16 -1,1 C 91 % 1002,4 hPa 0,0 l/m 5,2 kts (2 Bft) N 360 0 min 0,0 UV-I 0 W/m -2,4 C -4,4 C 0,0 kts (0 Bft) 82,61 %
02.12.2023 01:15 -1,1 C 91 % 1002,4 hPa 0,0 l/m 5,2 kts (2 Bft) N 360 0 min 0,0 UV-I 0 W/m -2,4 C -4,4 C 0,0 kts (0 Bft) 86,96 %
02.12.2023 01:14 -1,1 C 91 % 1002,3 hPa 0,0 l/m 6,1 kts (2 Bft) N-NO 22 0 min 0,0 UV-I 0 W/m -2,4 C -5,7 C 0,0 kts (0 Bft) 86,96 %
02.12.2023 01:13 -1,1 C 91 % 1002,2 hPa 0,0 l/m 6,1 kts (2 Bft) N-NO 22 0 min 0,0 UV-I 0 W/m -2,4 C -5,7 C 0,0 kts (0 Bft) 86,96 %
02.12.2023 01:12 -1,1 C 91 % 1002,3 hPa 0,0 l/m 7,0 kts (3 Bft) N 360 0 min 0,0 UV-I 0 W/m -2,4 C -6,9 C 0,0 kts (0 Bft) 86,96 %
02.12.2023 01:11 -1,1 C 91 % 1002,3 hPa 0,0 l/m 6,1 kts (2 Bft) N-NO 22 0 min 0,0 UV-I 0 W/m -2,4 C -5,7 C 0,0 kts (0 Bft) 86,96 %
02.12.2023 01:10 -1,1 C 91 % 1002,3 hPa 0,0 l/m 6,1 kts (2 Bft) N-NO 22 0 min 0,0 UV-I 0 W/m -2,4 C -5,7 C 0,0 kts (0 Bft) 86,96 %
02.12.2023 01:09 -1,1 C 91 % 1002,3 hPa 0,0 l/m 4,3 kts (2 Bft) N 360 0 min 0,0 UV-I 0 W/m -2,4 C -2,8 C 0,0 kts (0 Bft) 82,61 %
02.12.2023 01:08 -1,1 C 91 % 1002,3 hPa 0,0 l/m 4,3 kts (2 Bft) N-NO 22 0 min 0,0 UV-I 0 W/m -2,4 C -2,8 C 0,0 kts (0 Bft) 86,96 %
02.12.2023 01:07 -1,1 C 91 % 1002,3 hPa 0,0 l/m 5,2 kts (2 Bft) N-NO 22 0 min 0,0 UV-I 0 W/m -2,4 C -4,4 C 0,0 kts (0 Bft) 82,61 %
02.12.2023 01:06 -1,1 C 91 % 1002,3 hPa 0,0 l/m 5,2 kts (2 Bft) N-NO 22 0 min 0,0 UV-I 0 W/m -2,4 C -4,4 C 0,0 kts (0 Bft) 86,96 %
02.12.2023 01:05 -1,1 C 91 % 1002,3 hPa 0,0 l/m 6,1 kts (2 Bft) N-NO 22 0 min 0,0 UV-I 0 W/m -2,4 C -5,7 C 0,0 kts (0 Bft) 86,96 %
02.12.2023 01:04 -1,1 C 91 % 1002,4 hPa 0,0 l/m 5,2 kts (2 Bft) N-NO 22 0 min 0,0 UV-I 0 W/m -2,4 C -4,4 C 0,0 kts (0 Bft) 86,96 %
02.12.2023 01:03 -1,1 C 91 % 1002,2 hPa 0,0 l/m 6,1 kts (2 Bft) N-NO 22 0 min 0,0 UV-I 0 W/m -2,4 C -5,7 C 0,0 kts (0 Bft) 82,61 %
02.12.2023 01:02 -1,1 C 91 % 1002,3 hPa 0,0 l/m 5,2 kts (2 Bft) N-NO 22 0 min 0,0 UV-I 0 W/m -2,4 C -4,4 C 0,0 kts (0 Bft) 86,96 %
02.12.2023 01:01 -1,1 C 91 % 1002,2 hPa 0,0 l/m 5,2 kts (2 Bft) N-NO 22 0 min 0,0 UV-I 0 W/m -2,4 C -4,4 C 0,0 kts (0 Bft) 82,61 %
02.12.2023 01:00 -1,1 C 91 % 1002,2 hPa 0,0 l/m 7,0 kts (3 Bft) N-NO 22 0 min 0,0 UV-I 0 W/m -2,4 C -6,9 C 0,0 kts (0 Bft) 86,96 %
02.12.2023 00:59 -1,1 C 91 % 1002,3 hPa 0,0 l/m 6,1 kts (2 Bft) N-NO 22 0 min 0,0 UV-I 0 W/m -2,4 C -5,7 C 0,0 kts (0 Bft) 86,96 %
02.12.2023 00:58 -1,1 C 91 % 1002,2 hPa 0,0 l/m 7,0 kts (3 Bft) N-NO 22 0 min 0,0 UV-I 0 W/m -2,4 C -6,9 C 0,0 kts (0 Bft) 86,96 %
02.12.2023 00:57 -1,1 C 91 % 1002,3 hPa 0,0 l/m 6,1 kts (2 Bft) N-NO 22 0 min 0,0 UV-I 0 W/m -2,4 C -5,7 C 0,0 kts (0 Bft) 86,96 %
02.12.2023 00:56 -1,1 C 91 % 1002,2 hPa 0,0 l/m 5,2 kts (2 Bft) N-NO 22 0 min 0,0 UV-I 0 W/m -2,4 C -4,4 C 0,0 kts (0 Bft) 86,96 %
02.12.2023 00:55 -1,1 C 91 % 1002,1 hPa 0,0 l/m 4,3 kts (2 Bft) N-NO 22 0 min 0,0 UV-I 0 W/m -2,4 C -2,8 C 0,0 kts (0 Bft) 86,96 %
02.12.2023 00:54 -1,1 C 91 % 1002,1 hPa 0,0 l/m 6,1 kts (2 Bft) N-NO 22 0 min 0,0 UV-I 0 W/m -2,4 C -5,7 C 0,0 kts (0 Bft) 86,96 %
02.12.2023 00:53 -1,1 C 91 % 1002,0 hPa 0,0 l/m 6,1 kts (2 Bft) N-NO 22 0 min 0,0 UV-I 0 W/m -2,4 C -5,7 C 0,0 kts (0 Bft) 86,96 %
02.12.2023 00:52 -1,1 C 91 % 1002,1 hPa 0,0 l/m 6,1 kts (2 Bft) N-NO 22 0 min 0,0 UV-I 0 W/m -2,4 C -5,7 C 0,0 kts (0 Bft) 86,96 %
02.12.2023 00:51 -1,1 C 91 % 1002,2 hPa 0,0 l/m 6,1 kts (2 Bft) N-NO 22 0 min 0,0 UV-I 0 W/m -2,4 C -5,7 C 0,0 kts (0 Bft) 86,96 %
02.12.2023 00:50 -1,1 C 91 % 1002,0 hPa 0,0 l/m 6,1 kts (2 Bft) N-NO 22 0 min 0,0 UV-I 0 W/m -2,4 C -5,7 C 0,0 kts (0 Bft) 86,96 %
02.12.2023 00:49 -1,1 C 91 % 1002,0 hPa 0,0 l/m 7,8 kts (3 Bft) N-NO 22 0 min 0,0 UV-I 0 W/m -2,4 C -8,0 C 0,0 kts (0 Bft) 86,96 %
02.12.2023 00:48 -1,1 C 91 % 1002,0 hPa 0,0 l/m 6,1 kts (2 Bft) N-NO 22 0 min 0,0 UV-I 0 W/m -2,4 C -5,7 C 0,0 kts (0 Bft) 86,96 %
02.12.2023 00:47 -1,1 C 91 % 1002,1 hPa 0,0 l/m 6,1 kts (2 Bft) N-NO 22 0 min 0,0 UV-I 0 W/m -2,4 C -5,7 C 0,0 kts (0 Bft) 86,96 %
02.12.2023 00:46 -1,1 C 91 % 1002,1 hPa 0,0 l/m 7,0 kts (3 Bft) N-NO 22 0 min 0,0 UV-I 0 W/m -2,4 C -6,9 C 0,0 kts (0 Bft) 86,96 %
02.12.2023 00:45 -1,1 C 91 % 1002,0 hPa 0,0 l/m 5,2 kts (2 Bft) N-NO 22 0 min 0,0 UV-I 0 W/m -2,4 C -4,4 C 0,0 kts (0 Bft) 86,96 %
02.12.2023 00:44 -1,1 C 91 % 1002,0 hPa 0,0 l/m 6,1 kts (2 Bft) N-NO 22 0 min 0,0 UV-I 0 W/m -2,4 C -5,7 C 0,0 kts (0 Bft) 86,96 %
02.12.2023 00:43 -1,1 C 91 % 1002,0 hPa 0,0 l/m 6,1 kts (2 Bft) N-NO 22 0 min 0,0 UV-I 0 W/m -2,4 C -5,7 C 0,0 kts (0 Bft) 86,96 %
02.12.2023 00:42 -1,1 C 91 % 1002,1 hPa 0,0 l/m 6,1 kts (2 Bft) N-NO 22 0 min 0,0 UV-I 0 W/m -2,4 C -5,7 C 0,0 kts (0 Bft) 86,96 %
02.12.2023 00:41 -1,1 C 91 % 1002,1 hPa 0,0 l/m 7,0 kts (3 Bft) N-NO 22 0 min 0,0 UV-I 0 W/m -2,4 C -6,9 C 0,0 kts (0 Bft) 86,96 %
02.12.2023 00:40 -1,1 C 91 % 1002,1 hPa 0,0 l/m 7,8 kts (3 Bft) N-NO 22 0 min 0,0 UV-I 0 W/m -2,4 C -8,0 C 0,0 kts (0 Bft) 86,96 %
02.12.2023 00:39 -1,1 C 91 % 1002,2 hPa 0,0 l/m 7,8 kts (3 Bft) N-NO 22 0 min 0,0 UV-I 0 W/m -2,4 C -8,0 C 0,0 kts (0 Bft) 86,96 %
02.12.2023 00:38 -1,1 C 91 % 1002,3 hPa 0,0 l/m 7,0 kts (3 Bft) N-NO 22 0 min 0,0 UV-I 0 W/m -2,4 C -6,9 C 0,0 kts (0 Bft) 86,96 %
02.12.2023 00:37 -1,1 C 91 % 1002,3 hPa 0,0 l/m 7,0 kts (3 Bft) N-NO 22 0 min 0,0 UV-I 0 W/m -2,4 C -6,9 C 0,0 kts (0 Bft) 86,96 %
02.12.2023 00:36 -1,1 C 91 % 1002,3 hPa 0,0 l/m 5,2 kts (2 Bft) N-NO 22 0 min 0,0 UV-I 0 W/m -2,4 C -4,4 C 0,0 kts (0 Bft) 86,96 %
02.12.2023 00:35 -1,1 C 91 % 1002,3 hPa 0,0 l/m 6,1 kts (2 Bft) N-NO 22 0 min 0,0 UV-I 0 W/m -2,4 C -5,7 C 0,0 kts (0 Bft) 86,96 %
02.12.2023 00:34 -1,1 C 91 % 1002,1 hPa 0,0 l/m 5,2 kts (2 Bft) N-NO 22 0 min 0,0 UV-I 0 W/m -2,4 C -4,4 C 0,0 kts (0 Bft) 86,96 %
02.12.2023 00:33 -1,1 C 91 % 1002,2 hPa 0,0 l/m 6,1 kts (2 Bft) N-NO 22 0 min 0,0 UV-I 0 W/m -2,4 C -5,7 C 0,0 kts (0 Bft) 82,61 %
02.12.2023 00:32 -1,1 C 91 % 1002,2 hPa 0,0 l/m 6,1 kts (2 Bft) N-NO 22 0 min 0,0 UV-I 0 W/m -2,4 C -5,7 C 0,0 kts (0 Bft) 86,96 %
02.12.2023 00:31 -1,1 C 91 % 1002,2 hPa 0,0 l/m 7,0 kts (3 Bft) N-NO 22 0 min 0,0 UV-I 0 W/m -2,4 C -6,9 C 0,0 kts (0 Bft) 86,96 %
02.12.2023 00:30 -1,1 C 91 % 1002,3 hPa 0,0 l/m 7,0 kts (3 Bft) N-NO 22 0 min 0,0 UV-I 0 W/m -2,4 C -6,9 C 0,0 kts (0 Bft) 86,96 %
02.12.2023 00:29 -1,1 C 91 % 1002,3 hPa 0,0 l/m 6,1 kts (2 Bft) N-NO 22 0 min 0,0 UV-I 0 W/m -2,4 C -5,7 C 0,0 kts (0 Bft) 82,61 %
02.12.2023 00:28 -1,1 C 91 % 1002,4 hPa 0,0 l/m 5,2 kts (2 Bft) N-NO 22 0 min 0,0 UV-I 0 W/m -2,4 C -4,4 C 0,0 kts (0 Bft) 86,96 %
02.12.2023 00:27 -1,1 C 91 % 1002,4 hPa 0,0 l/m 6,6 kts (3 Bft) N 11 0 min 0,0 UV-I 0 W/m -2,4 C -6,5 C 7,0 kts (3 Bft) 99,15 %
02.12.2023 00:25 -1,1 C 91 % 1002,4 hPa 0,0 l/m 6,6 kts (3 Bft) N 5 0 min 0,0 UV-I 0 W/m -2,4 C -6,5 C 7,8 kts (3 Bft) 96,30 %
02.12.2023 00:24 -1,1 C 91 % 1002,5 hPa 0,0 l/m 7,1 kts (3 Bft) N-NO 13 0 min 0,0 UV-I 0 W/m -2,4 C -7,1 C 7,8 kts (3 Bft) 100,00 %
02.12.2023 00:23 -1,1 C 91 % 1002,5 hPa 0,0 l/m 6,2 kts (2 Bft) N-NO 15 0 min 0,0 UV-I 0 W/m -2,4 C -5,8 C 7,0 kts (3 Bft) 100,00 %
02.12.2023 00:22 -1,1 C 91 % 1002,5 hPa 0,0 l/m 6,1 kts (2 Bft) N 11 0 min 0,0 UV-I 0 W/m -2,4 C -5,7 C 7,0 kts (3 Bft) 95,12 %
02.12.2023 00:21 -1,1 C 91 % 1002,6 hPa 0,0 l/m 5,4 kts (2 Bft) N 9 0 min 0,0 UV-I 0 W/m -2,4 C -4,7 C 7,0 kts (3 Bft) 99,57 %
02.12.2023 00:20 -1,1 C 91 % 1002,6 hPa 0,0 l/m 5,6 kts (2 Bft) N-NO 16 0 min 0,0 UV-I 0 W/m -2,4 C -4,9 C 7,0 kts (3 Bft) 100,00 %
02.12.2023 00:19 -1,0 C 91 % 1002,5 hPa 0,0 l/m 5,9 kts (2 Bft) N 10 0 min 0,0 UV-I 0 W/m -2,3 C -5,3 C 7,0 kts (3 Bft) 100,00 %
02.12.2023 00:18 -1,0 C 91 % 1002,5 hPa 0,0 l/m 5,0 kts (2 Bft) N 5 0 min 0,0 UV-I 0 W/m -2,3 C -3,8 C 7,0 kts (3 Bft) 100,00 %
02.12.2023 00:17 -1,0 C 91 % 1002,5 hPa 0,0 l/m 4,5 kts (2 Bft) N-NO 16 0 min 0,0 UV-I 0 W/m -2,3 C -3,0 C 6,1 kts (2 Bft) 100,00 %
02.12.2023 00:16 -1,1 C 91 % 1002,5 hPa 0,0 l/m 5,8 kts (2 Bft) N-NO 17 0 min 0,0 UV-I 0 W/m -2,4 C -5,3 C 7,0 kts (3 Bft) 100,00 %
02.12.2023 00:15 -1,0 C 91 % 1002,6 hPa 0,0 l/m 5,1 kts (2 Bft) N 5 0 min 0,0 UV-I 0 W/m -2,3 C -4,1 C 7,0 kts (3 Bft) 100,00 %
02.12.2023 00:14 -1,0 C 91 % 1002,6 hPa 0,0 l/m 5,7 kts (2 Bft) N 11 0 min 0,0 UV-I 0 W/m -2,3 C -5,0 C 7,8 kts (3 Bft) 100,00 %
02.12.2023 00:13 -1,0 C 91 % 1002,6 hPa 0,0 l/m 6,9 kts (3 Bft) N-NO 19 0 min 0,0 UV-I 0 W/m -2,3 C -6,7 C 7,8 kts (3 Bft) 100,00 %
02.12.2023 00:12 -1,0 C 91 % 1002,7 hPa 0,0 l/m 6,4 kts (2 Bft) N-NO 28 0 min 0,0 UV-I 0 W/m -2,3 C -6,1 C 7,8 kts (3 Bft) 100,00 %
02.12.2023 00:11 -1,0 C 91 % 1002,7 hPa 0,0 l/m 6,0 kts (2 Bft) N-NO 17 0 min 0,0 UV-I 0 W/m -2,3 C -5,5 C 7,0 kts (3 Bft) 99,15 %
02.12.2023 00:10 -1,1 C 91 % 1002,6 hPa 0,0 l/m 5,7 kts (2 Bft) N-NO 17 0 min 0,0 UV-I 0 W/m -2,4 C -5,1 C 7,0 kts (3 Bft) 100,00 %
02.12.2023 00:09 -1,0 C 91 % 1002,7 hPa 0,0 l/m 6,4 kts (2 Bft) N-NO 18 0 min 0,0 UV-I 0 W/m -2,3 C -6,0 C 7,0 kts (3 Bft) 96,30 %
02.12.2023 00:08 -1,0 C 91 % 1002,7 hPa 0,0 l/m 6,3 kts (2 Bft) N-NO 17 0 min 0,0 UV-I 0 W/m -2,3 C -5,9 C 7,8 kts (3 Bft) 100,00 %
02.12.2023 00:07 -1,0 C 91 % 1002,7 hPa 0,0 l/m 4,7 kts (2 Bft) N-NO 14 0 min 0,0 UV-I 0 W/m -2,3 C -3,4 C 6,1 kts (2 Bft) 100,00 %
02.12.2023 00:06 -1,0 C 91 % 1002,7 hPa 0,0 l/m 5,1 kts (2 Bft) N-NO 17 0 min 0,0 UV-I 0 W/m -2,3 C -4,1 C 7,0 kts (3 Bft) 100,00 %
02.12.2023 00:05 -1,0 C 91 % 1002,7 hPa 0,0 l/m 6,5 kts (2 Bft) N-NO 19 0 min 0,0 UV-I 0 W/m -2,3 C -6,2 C 7,8 kts (3 Bft) 100,00 %
02.12.2023 00:04 -1,0 C 91 % 1002,6 hPa 0,0 l/m 6,4 kts (2 Bft) N 9 0 min 0,0 UV-I 0 W/m -2,3 C -6,1 C 7,8 kts (3 Bft) 100,00 %
02.12.2023 00:03 -1,0 C 91 % 1002,7 hPa 0,0 l/m 5,8 kts (2 Bft) N-NO 17 0 min 0,0 UV-I 0 W/m -2,3 C -5,2 C 7,0 kts (3 Bft) 100,00 %
02.12.2023 00:02 -0,9 C 91 % 1002,6 hPa 0,0 l/m 5,5 kts (2 Bft) N-NO 24 0 min 0,0 UV-I 0 W/m -2,2 C -4,6 C 7,0 kts (3 Bft) 100,00 %
02.12.2023 00:01 -0,9 C 91 % 1002,7 hPa 0,0 l/m 5,8 kts (2 Bft) N-NO 23 0 min 0,0 UV-I 0 W/m -2,2 C -5,1 C 7,0 kts (3 Bft) 95,83 %
02.12.2023 00:00 -0,9 C 91 % 1002,7 hPa 0,0 l/m 5,1 kts (2 Bft) N 11 0 min 0,0 UV-I 0 W/m -2,2 C -4,0 C 6,1 kts (2 Bft) 100,00 %
_ Min-Zeit 22:39 23:33 04:21 - 00:55 - - - - - 23:33 22:54 00:28 13:21
Minimum _ -4,8 C 85 % 1000,9 hPa - 4,3 kts (2 Bft) - - - - - -6,9 C -22,9 C 0,0 kts (0 Bft) 46,67 %
_ Max-Zeit 00:00 00:00 23:40 00:00 18:25 - - 00:00 00:00 09:33 00:00 00:55 18:34 00:00
Maximum _ -0,9 C 91 % 1016,5 hPa 0,0 l/m 22,6 kts
W-SW (6 Bft)
- - 0 min 0,0 UV-I 42 W/m -2,2 C -2,8 C 26,9 kts
W-SW (6 Bft)
100,00 %
Durchschnitt _ -2,6 C 90 % 1005,7 hPa #0,0 l/m 10,4 kts (3 Bft) W - #0 min. 0,0 UV-I 22 W/m -4,1 C -12,1 C 11,0 kts (4 Bft) 96,27 %